<?xml version="1.0" encoding="UTF-8" standalone="no" ?>
<gpx xmlns="http://www.topografix.com/GPX/1/1" xmlns:xsi="http://www.w3.org/2001/XMLSchema-instance" xsi:schemaLocation="http://www.topografix.com/GPX/1/1 http://www.topografix.com/GPX/1/1/gpx.xsd" version="1.1" creator="VisuGPX - https://www.visugpx.com">
  <metadata>
    <name>Barlagne : Du pont de l\'Arpet (Vallée d\'Aspe)</name>
    <desc><![CDATA[


]]></desc>
  </metadata>
  <trk>
    <name><![CDATA[Barlagne : Du pont de l\'Arpet (Vallée d\'Aspe)_1]]></name>
    <trkseg>
      <trkpt lat="42.99733" lon="-0.69408">
        <ele>892</ele>
        <time>2014-02-02T10:07:13Z</time>
      </trkpt>
      <trkpt lat="42.99733" lon="-0.69425">
        <ele>891.90384656683</ele>
        <time>2014-02-02T10:07:18Z</time>
      </trkpt>
      <trkpt lat="42.99733" lon="-0.69432">
        <ele>891.90384656683</ele>
        <time>2014-02-02T10:07:23Z</time>
      </trkpt>
      <trkpt lat="42.99732" lon="-0.69432">
        <ele>891.90384656683</ele>
        <time>2014-02-02T10:07:28Z</time>
      </trkpt>
      <trkpt lat="42.99732" lon="-0.69432">
        <ele>891.90384656683</ele>
        <time>2014-02-02T10:07:33Z</time>
      </trkpt>
      <trkpt lat="42.99726" lon="-0.69445">
        <ele>896.22021347035</ele>
        <time>2014-02-02T10:08:13Z</time>
      </trkpt>
      <trkpt lat="42.99724" lon="-0.69442">
        <ele>896.22021347035</ele>
        <time>2014-02-02T10:08:18Z</time>
      </trkpt>
      <trkpt lat="42.99724" lon="-0.69439">
        <ele>896.22021347035</ele>
        <time>2014-02-02T10:08:23Z</time>
      </trkpt>
      <trkpt lat="42.99727" lon="-0.69438">
        <ele>896.22021347035</ele>
        <time>2014-02-02T10:08:28Z</time>
      </trkpt>
      <trkpt lat="42.99728" lon="-0.69435">
        <ele>900.59783729655</ele>
        <time>2014-02-02T10:08:33Z</time>
      </trkpt>
      <trkpt lat="42.99719" lon="-0.69432">
        <ele>904.84550715166</ele>
        <time>2014-02-02T10:11:13Z</time>
      </trkpt>
      <trkpt lat="42.99716" lon="-0.69425">
        <ele>904.84550715166</ele>
        <time>2014-02-02T10:11:19Z</time>
      </trkpt>
      <trkpt lat="42.99713" lon="-0.69424">
        <ele>908.98870702699</ele>
        <time>2014-02-02T10:11:24Z</time>
      </trkpt>
      <trkpt lat="42.9971" lon="-0.69423">
        <ele>908.98870702699</ele>
        <time>2014-02-02T10:11:29Z</time>
      </trkpt>
      <trkpt lat="42.99706" lon="-0.69424">
        <ele>908.98870702699</ele>
        <time>2014-02-02T10:11:34Z</time>
      </trkpt>
      <trkpt lat="42.99702" lon="-0.69426">
        <ele>912.82397649897</ele>
        <time>2014-02-02T10:11:40Z</time>
      </trkpt>
      <trkpt lat="42.99698" lon="-0.69426">
        <ele>912.82397649897</ele>
        <time>2014-02-02T10:11:44Z</time>
      </trkpt>
      <trkpt lat="42.99692" lon="-0.69431">
        <ele>916.18797112985</ele>
        <time>2014-02-02T10:11:49Z</time>
      </trkpt>
      <trkpt lat="42.99688" lon="-0.69436">
        <ele>916.18797112985</ele>
        <time>2014-02-02T10:11:54Z</time>
      </trkpt>
      <trkpt lat="42.99682" lon="-0.69433">
        <ele>918.9531858578</ele>
        <time>2014-02-02T10:11:59Z</time>
      </trkpt>
      <trkpt lat="42.99677" lon="-0.69433">
        <ele>918.9531858578</ele>
        <time>2014-02-02T10:12:05Z</time>
      </trkpt>
      <trkpt lat="42.99672" lon="-0.69432">
        <ele>921.05367773552</ele>
        <time>2014-02-02T10:12:09Z</time>
      </trkpt>
      <trkpt lat="42.99668" lon="-0.69429">
        <ele>921.05367773552</ele>
        <time>2014-02-02T10:12:14Z</time>
      </trkpt>
      <trkpt lat="42.99663" lon="-0.69424">
        <ele>922.47241626448</ele>
        <time>2014-02-02T10:12:19Z</time>
      </trkpt>
      <trkpt lat="42.99658" lon="-0.69424">
        <ele>922.47241626448</ele>
        <time>2014-02-02T10:12:24Z</time>
      </trkpt>
      <trkpt lat="42.99654" lon="-0.69427">
        <ele>923.27354346705</ele>
        <time>2014-02-02T10:12:30Z</time>
      </trkpt>
      <trkpt lat="42.99649" lon="-0.6943">
        <ele>923.27354346705</ele>
        <time>2014-02-02T10:12:34Z</time>
      </trkpt>
      <trkpt lat="42.99644" lon="-0.69424">
        <ele>923.50639851847</ele>
        <time>2014-02-02T10:12:39Z</time>
      </trkpt>
      <trkpt lat="42.99643" lon="-0.69428">
        <ele>923.50639851847</ele>
        <time>2014-02-02T10:12:44Z</time>
      </trkpt>
      <trkpt lat="42.99647" lon="-0.69432">
        <ele>923.50639851847</ele>
        <time>2014-02-02T10:12:49Z</time>
      </trkpt>
      <trkpt lat="42.99648" lon="-0.69437">
        <ele>923.26199887907</ele>
        <time>2014-02-02T10:12:54Z</time>
      </trkpt>
      <trkpt lat="42.9965" lon="-0.69446">
        <ele>923.26199887907</ele>
        <time>2014-02-02T10:12:59Z</time>
      </trkpt>
      <trkpt lat="42.99653" lon="-0.6945">
        <ele>922.62343389195</ele>
        <time>2014-02-02T10:13:05Z</time>
      </trkpt>
      <trkpt lat="42.99656" lon="-0.69453">
        <ele>922.62343389195</ele>
        <time>2014-02-02T10:13:08Z</time>
      </trkpt>
      <trkpt lat="42.99661" lon="-0.69457">
        <ele>921.70563804824</ele>
        <time>2014-02-02T10:13:14Z</time>
      </trkpt>
      <trkpt lat="42.99665" lon="-0.69461">
        <ele>921.70563804824</ele>
        <time>2014-02-02T10:13:19Z</time>
      </trkpt>
      <trkpt lat="42.99667" lon="-0.69465">
        <ele>921.70563804824</ele>
        <time>2014-02-02T10:13:24Z</time>
      </trkpt>
      <trkpt lat="42.9967" lon="-0.69472">
        <ele>920.57800616235</ele>
        <time>2014-02-02T10:13:30Z</time>
      </trkpt>
      <trkpt lat="42.99673" lon="-0.69476">
        <ele>920.57800616235</ele>
        <time>2014-02-02T10:13:34Z</time>
      </trkpt>
      <trkpt lat="42.99677" lon="-0.6948">
        <ele>919.31362265867</ele>
        <time>2014-02-02T10:13:39Z</time>
      </trkpt>
      <trkpt lat="42.99679" lon="-0.6949">
        <ele>919.31362265867</ele>
        <time>2014-02-02T10:13:44Z</time>
      </trkpt>
      <trkpt lat="42.9968" lon="-0.69496">
        <ele>917.98627073698</ele>
        <time>2014-02-02T10:13:49Z</time>
      </trkpt>
      <trkpt lat="42.99683" lon="-0.69499">
        <ele>917.98627073698</ele>
        <time>2014-02-02T10:13:54Z</time>
      </trkpt>
      <trkpt lat="42.99685" lon="-0.69507">
        <ele>916.58949392395</ele>
        <time>2014-02-02T10:14:00Z</time>
      </trkpt>
      <trkpt lat="42.99688" lon="-0.69509">
        <ele>916.58949392395</ele>
        <time>2014-02-02T10:14:04Z</time>
      </trkpt>
      <trkpt lat="42.99686" lon="-0.69516">
        <ele>916.58949392395</ele>
        <time>2014-02-02T10:14:09Z</time>
      </trkpt>
      <trkpt lat="42.99689" lon="-0.69519">
        <ele>915.15793187358</ele>
        <time>2014-02-02T10:14:14Z</time>
      </trkpt>
      <trkpt lat="42.99689" lon="-0.69524">
        <ele>915.15793187358</ele>
        <time>2014-02-02T10:14:19Z</time>
      </trkpt>
      <trkpt lat="42.9969" lon="-0.69533">
        <ele>913.76211903435</ele>
        <time>2014-02-02T10:14:24Z</time>
      </trkpt>
      <trkpt lat="42.99689" lon="-0.69541">
        <ele>913.76211903435</ele>
        <time>2014-02-02T10:14:29Z</time>
      </trkpt>
      <trkpt lat="42.99686" lon="-0.69557">
        <ele>912.4276673225</ele>
        <time>2014-02-02T10:14:34Z</time>
      </trkpt>
      <trkpt lat="42.9969" lon="-0.69561">
        <ele>912.4276673225</ele>
        <time>2014-02-02T10:14:39Z</time>
      </trkpt>
      <trkpt lat="42.99694" lon="-0.69566">
        <ele>911.14247351351</ele>
        <time>2014-02-02T10:14:44Z</time>
      </trkpt>
      <trkpt lat="42.9968" lon="-0.69569">
        <ele>909.9072760803</ele>
        <time>2014-02-02T10:14:49Z</time>
      </trkpt>
      <trkpt lat="42.99672" lon="-0.69571">
        <ele>909.9072760803</ele>
        <time>2014-02-02T10:14:54Z</time>
      </trkpt>
      <trkpt lat="42.99671" lon="-0.69574">
        <ele>908.73466016158</ele>
        <time>2014-02-02T10:14:58Z</time>
      </trkpt>
      <trkpt lat="42.9967" lon="-0.6958">
        <ele>908.73466016158</ele>
        <time>2014-02-02T10:15:04Z</time>
      </trkpt>
      <trkpt lat="42.99671" lon="-0.69584">
        <ele>908.73466016158</ele>
        <time>2014-02-02T10:15:09Z</time>
      </trkpt>
      <trkpt lat="42.99674" lon="-0.69589">
        <ele>907.56182514129</ele>
        <time>2014-02-02T10:15:13Z</time>
      </trkpt>
      <trkpt lat="42.99676" lon="-0.69594">
        <ele>907.56182514129</ele>
        <time>2014-02-02T10:15:19Z</time>
      </trkpt>
      <trkpt lat="42.99677" lon="-0.69601">
        <ele>906.41722130067</ele>
        <time>2014-02-02T10:15:24Z</time>
      </trkpt>
      <trkpt lat="42.99681" lon="-0.69607">
        <ele>906.41722130067</ele>
        <time>2014-02-02T10:15:29Z</time>
      </trkpt>
      <trkpt lat="42.99685" lon="-0.69613">
        <ele>905.28301943325</ele>
        <time>2014-02-02T10:15:34Z</time>
      </trkpt>
      <trkpt lat="42.99689" lon="-0.69624">
        <ele>905.28301943325</ele>
        <time>2014-02-02T10:15:39Z</time>
      </trkpt>
      <trkpt lat="42.99692" lon="-0.69631">
        <ele>904.15681882763</ele>
        <time>2014-02-02T10:15:44Z</time>
      </trkpt>
      <trkpt lat="42.99694" lon="-0.69637">
        <ele>904.15681882763</ele>
        <time>2014-02-02T10:15:49Z</time>
      </trkpt>
      <trkpt lat="42.99697" lon="-0.69645">
        <ele>903.03641672368</ele>
        <time>2014-02-02T10:15:55Z</time>
      </trkpt>
      <trkpt lat="42.99697" lon="-0.69653">
        <ele>903.03641672368</ele>
        <time>2014-02-02T10:15:59Z</time>
      </trkpt>
      <trkpt lat="42.99698" lon="-0.69657">
        <ele>903.03641672368</ele>
        <time>2014-02-02T10:16:04Z</time>
      </trkpt>
      <trkpt lat="42.99703" lon="-0.69668">
        <ele>901.92011052324</ele>
        <time>2014-02-02T10:16:09Z</time>
      </trkpt>
      <trkpt lat="42.99705" lon="-0.69671">
        <ele>901.92011052324</ele>
        <time>2014-02-02T10:16:14Z</time>
      </trkpt>
      <trkpt lat="42.99707" lon="-0.69678">
        <ele>901.92011052324</ele>
        <time>2014-02-02T10:16:19Z</time>
      </trkpt>
      <trkpt lat="42.99709" lon="-0.69683">
        <ele>900.77916328315</ele>
        <time>2014-02-02T10:16:24Z</time>
      </trkpt>
      <trkpt lat="42.99711" lon="-0.69691">
        <ele>900.77916328315</ele>
        <time>2014-02-02T10:16:29Z</time>
      </trkpt>
      <trkpt lat="42.99712" lon="-0.69701">
        <ele>899.64324012179</ele>
        <time>2014-02-02T10:16:35Z</time>
      </trkpt>
      <trkpt lat="42.99715" lon="-0.69706">
        <ele>899.64324012179</ele>
        <time>2014-02-02T10:16:39Z</time>
      </trkpt>
      <trkpt lat="42.99721" lon="-0.69711">
        <ele>898.51301941022</ele>
        <time>2014-02-02T10:16:45Z</time>
      </trkpt>
      <trkpt lat="42.99725" lon="-0.69717">
        <ele>898.51301941022</ele>
        <time>2014-02-02T10:16:49Z</time>
      </trkpt>
      <trkpt lat="42.99728" lon="-0.69723">
        <ele>897.3901321155</ele>
        <time>2014-02-02T10:16:55Z</time>
      </trkpt>
      <trkpt lat="42.99726" lon="-0.69733">
        <ele>897.3901321155</ele>
        <time>2014-02-02T10:16:59Z</time>
      </trkpt>
      <trkpt lat="42.99723" lon="-0.69738">
        <ele>896.2770910361</ele>
        <time>2014-02-02T10:17:04Z</time>
      </trkpt>
      <trkpt lat="42.99723" lon="-0.69739">
        <ele>896.2770910361</ele>
        <time>2014-02-02T10:17:09Z</time>
      </trkpt>
      <trkpt lat="42.99725" lon="-0.69749">
        <ele>896.2770910361</ele>
        <time>2014-02-02T10:19:24Z</time>
      </trkpt>
      <trkpt lat="42.99728" lon="-0.69752">
        <ele>895.24762469835</ele>
        <time>2014-02-02T10:19:29Z</time>
      </trkpt>
      <trkpt lat="42.99735" lon="-0.69757">
        <ele>895.24762469835</ele>
        <time>2014-02-02T10:19:35Z</time>
      </trkpt>
      <trkpt lat="42.99739" lon="-0.69763">
        <ele>894.28716252867</ele>
        <time>2014-02-02T10:19:38Z</time>
      </trkpt>
      <trkpt lat="42.99742" lon="-0.6977">
        <ele>894.28716252867</ele>
        <time>2014-02-02T10:19:45Z</time>
      </trkpt>
      <trkpt lat="42.99742" lon="-0.69776">
        <ele>893.36808455114</ele>
        <time>2014-02-02T10:19:49Z</time>
      </trkpt>
      <trkpt lat="42.99741" lon="-0.69784">
        <ele>893.36808455114</ele>
        <time>2014-02-02T10:19:54Z</time>
      </trkpt>
      <trkpt lat="42.99741" lon="-0.6979">
        <ele>892.49317782356</ele>
        <time>2014-02-02T10:19:59Z</time>
      </trkpt>
      <trkpt lat="42.99738" lon="-0.69799">
        <ele>892.49317782356</ele>
        <time>2014-02-02T10:20:04Z</time>
      </trkpt>
      <trkpt lat="42.99739" lon="-0.69808">
        <ele>891.66515003239</ele>
        <time>2014-02-02T10:20:09Z</time>
      </trkpt>
      <trkpt lat="42.99738" lon="-0.69812">
        <ele>891.66515003239</ele>
        <time>2014-02-02T10:20:14Z</time>
      </trkpt>
      <trkpt lat="42.99733" lon="-0.69819">
        <ele>890.8718650248</ele>
        <time>2014-02-02T10:20:19Z</time>
      </trkpt>
      <trkpt lat="42.99737" lon="-0.69827">
        <ele>890.8718650248</ele>
        <time>2014-02-02T10:20:25Z</time>
      </trkpt>
      <trkpt lat="42.99738" lon="-0.69834">
        <ele>890.13089801864</ele>
        <time>2014-02-02T10:20:29Z</time>
      </trkpt>
      <trkpt lat="42.9974" lon="-0.69839">
        <ele>890.13089801864</ele>
        <time>2014-02-02T10:20:34Z</time>
      </trkpt>
      <trkpt lat="42.99744" lon="-0.69846">
        <ele>889.44371454066</ele>
        <time>2014-02-02T10:20:39Z</time>
      </trkpt>
      <trkpt lat="42.99746" lon="-0.69851">
        <ele>889.44371454066</ele>
        <time>2014-02-02T10:20:44Z</time>
      </trkpt>
      <trkpt lat="42.99748" lon="-0.69856">
        <ele>889.44371454066</ele>
        <time>2014-02-02T10:20:50Z</time>
      </trkpt>
      <trkpt lat="42.99754" lon="-0.69859">
        <ele>888.78151041695</ele>
        <time>2014-02-02T10:20:54Z</time>
      </trkpt>
      <trkpt lat="42.99758" lon="-0.69861">
        <ele>888.78151041695</ele>
        <time>2014-02-02T10:20:59Z</time>
      </trkpt>
      <trkpt lat="42.99762" lon="-0.69865">
        <ele>888.16140953958</ele>
        <time>2014-02-02T10:21:04Z</time>
      </trkpt>
      <trkpt lat="42.99765" lon="-0.69872">
        <ele>888.16140953958</ele>
        <time>2014-02-02T10:21:09Z</time>
      </trkpt>
      <trkpt lat="42.99767" lon="-0.69879">
        <ele>887.59899479189</ele>
        <time>2014-02-02T10:21:14Z</time>
      </trkpt>
      <trkpt lat="42.99768" lon="-0.69884">
        <ele>887.59899479189</ele>
        <time>2014-02-02T10:21:19Z</time>
      </trkpt>
      <trkpt lat="42.99769" lon="-0.69888">
        <ele>887.59899479189</ele>
        <time>2014-02-02T10:21:24Z</time>
      </trkpt>
      <trkpt lat="42.99773" lon="-0.69891">
        <ele>887.09325214055</ele>
        <time>2014-02-02T10:21:30Z</time>
      </trkpt>
      <trkpt lat="42.99776" lon="-0.69894">
        <ele>887.09325214055</ele>
        <time>2014-02-02T10:21:33Z</time>
      </trkpt>
      <trkpt lat="42.99776" lon="-0.69899">
        <ele>887.09325214055</ele>
        <time>2014-02-02T10:21:39Z</time>
      </trkpt>
      <trkpt lat="42.99777" lon="-0.69904">
        <ele>886.65768007272</ele>
        <time>2014-02-02T10:21:43Z</time>
      </trkpt>
      <trkpt lat="42.9978" lon="-0.69908">
        <ele>886.65768007272</ele>
        <time>2014-02-02T10:21:49Z</time>
      </trkpt>
      <trkpt lat="42.99785" lon="-0.69911">
        <ele>886.33436421225</ele>
        <time>2014-02-02T10:21:55Z</time>
      </trkpt>
      <trkpt lat="42.99785" lon="-0.69907">
        <ele>886.33436421225</ele>
        <time>2014-02-02T10:21:59Z</time>
      </trkpt>
      <trkpt lat="42.99785" lon="-0.69905">
        <ele>886.33436421225</ele>
        <time>2014-02-02T10:22:05Z</time>
      </trkpt>
      <trkpt lat="42.99792" lon="-0.6992">
        <ele>886.08614870857</ele>
        <time>2014-02-02T10:22:30Z</time>
      </trkpt>
      <trkpt lat="42.99793" lon="-0.69925">
        <ele>886.08614870857</ele>
        <time>2014-02-02T10:22:33Z</time>
      </trkpt>
      <trkpt lat="42.99794" lon="-0.69928">
        <ele>886.08614870857</ele>
        <time>2014-02-02T10:22:39Z</time>
      </trkpt>
      <trkpt lat="42.99794" lon="-0.69934">
        <ele>886.07426222272</ele>
        <time>2014-02-02T10:22:44Z</time>
      </trkpt>
      <trkpt lat="42.99794" lon="-0.69938">
        <ele>886.07426222272</ele>
        <time>2014-02-02T10:22:49Z</time>
      </trkpt>
      <trkpt lat="42.99793" lon="-0.69943">
        <ele>886.07426222272</ele>
        <time>2014-02-02T10:22:54Z</time>
      </trkpt>
      <trkpt lat="42.99791" lon="-0.69949">
        <ele>886.22006066542</ele>
        <time>2014-02-02T10:22:59Z</time>
      </trkpt>
      <trkpt lat="42.99792" lon="-0.69954">
        <ele>886.22006066542</ele>
        <time>2014-02-02T10:23:04Z</time>
      </trkpt>
      <trkpt lat="42.99791" lon="-0.69961">
        <ele>886.22006066542</ele>
        <time>2014-02-02T10:23:10Z</time>
      </trkpt>
      <trkpt lat="42.99791" lon="-0.69965">
        <ele>886.49533346113</ele>
        <time>2014-02-02T10:23:14Z</time>
      </trkpt>
      <trkpt lat="42.99792" lon="-0.69967">
        <ele>886.49533346113</ele>
        <time>2014-02-02T10:23:19Z</time>
      </trkpt>
      <trkpt lat="42.99793" lon="-0.6997">
        <ele>886.49533346113</ele>
        <time>2014-02-02T10:23:24Z</time>
      </trkpt>
      <trkpt lat="42.99795" lon="-0.69973">
        <ele>886.49533346113</ele>
        <time>2014-02-02T10:23:30Z</time>
      </trkpt>
      <trkpt lat="42.99794" lon="-0.69978">
        <ele>886.91868510173</ele>
        <time>2014-02-02T10:23:34Z</time>
      </trkpt>
      <trkpt lat="42.99791" lon="-0.69986">
        <ele>886.91868510173</ele>
        <time>2014-02-02T10:23:40Z</time>
      </trkpt>
      <trkpt lat="42.9979" lon="-0.69992">
        <ele>887.47650102092</ele>
        <time>2014-02-02T10:23:44Z</time>
      </trkpt>
      <trkpt lat="42.9979" lon="-0.69997">
        <ele>887.47650102092</ele>
        <time>2014-02-02T10:23:49Z</time>
      </trkpt>
      <trkpt lat="42.9979" lon="-0.69999">
        <ele>887.47650102092</ele>
        <time>2014-02-02T10:23:54Z</time>
      </trkpt>
      <trkpt lat="42.99793" lon="-0.70003">
        <ele>888.15577456135</ele>
        <time>2014-02-02T10:23:58Z</time>
      </trkpt>
      <trkpt lat="42.99795" lon="-0.7001">
        <ele>888.15577456135</ele>
        <time>2014-02-02T10:24:05Z</time>
      </trkpt>
      <trkpt lat="42.99796" lon="-0.70014">
        <ele>888.15577456135</ele>
        <time>2014-02-02T10:24:08Z</time>
      </trkpt>
      <trkpt lat="42.99796" lon="-0.70019">
        <ele>888.98917472059</ele>
        <time>2014-02-02T10:24:14Z</time>
      </trkpt>
      <trkpt lat="42.99794" lon="-0.70023">
        <ele>888.98917472059</ele>
        <time>2014-02-02T10:24:19Z</time>
      </trkpt>
      <trkpt lat="42.99794" lon="-0.70024">
        <ele>888.98917472059</ele>
        <time>2014-02-02T10:24:24Z</time>
      </trkpt>
      <trkpt lat="42.99793" lon="-0.70027">
        <ele>888.98917472059</ele>
        <time>2014-02-02T10:24:29Z</time>
      </trkpt>
      <trkpt lat="42.99791" lon="-0.70031">
        <ele>889.85654558374</ele>
        <time>2014-02-02T10:24:34Z</time>
      </trkpt>
      <trkpt lat="42.9979" lon="-0.70039">
        <ele>889.85654558374</ele>
        <time>2014-02-02T10:24:39Z</time>
      </trkpt>
      <trkpt lat="42.9979" lon="-0.70042">
        <ele>889.85654558374</ele>
        <time>2014-02-02T10:24:44Z</time>
      </trkpt>
      <trkpt lat="42.99788" lon="-0.70049">
        <ele>890.88666072901</ele>
        <time>2014-02-02T10:24:49Z</time>
      </trkpt>
      <trkpt lat="42.99788" lon="-0.70051">
        <ele>890.88666072901</ele>
        <time>2014-02-02T10:24:54Z</time>
      </trkpt>
      <trkpt lat="42.99787" lon="-0.70051">
        <ele>890.88666072901</ele>
        <time>2014-02-02T10:25:05Z</time>
      </trkpt>
      <trkpt lat="42.99786" lon="-0.70055">
        <ele>890.88666072901</ele>
        <time>2014-02-02T10:25:09Z</time>
      </trkpt>
      <trkpt lat="42.99785" lon="-0.70058">
        <ele>890.88666072901</ele>
        <time>2014-02-02T10:25:14Z</time>
      </trkpt>
      <trkpt lat="42.99784" lon="-0.70063">
        <ele>892.15238402427</ele>
        <time>2014-02-02T10:25:19Z</time>
      </trkpt>
      <trkpt lat="42.99784" lon="-0.70066">
        <ele>892.15238402427</ele>
        <time>2014-02-02T10:25:25Z</time>
      </trkpt>
      <trkpt lat="42.99781" lon="-0.70067">
        <ele>892.15238402427</ele>
        <time>2014-02-02T10:25:29Z</time>
      </trkpt>
      <trkpt lat="42.99779" lon="-0.70071">
        <ele>892.15238402427</ele>
        <time>2014-02-02T10:25:34Z</time>
      </trkpt>
      <trkpt lat="42.99779" lon="-0.70074">
        <ele>893.40784626502</ele>
        <time>2014-02-02T10:25:40Z</time>
      </trkpt>
      <trkpt lat="42.99776" lon="-0.70078">
        <ele>893.40784626502</ele>
        <time>2014-02-02T10:25:44Z</time>
      </trkpt>
      <trkpt lat="42.99771" lon="-0.7008">
        <ele>894.72442894723</ele>
        <time>2014-02-02T10:25:49Z</time>
      </trkpt>
      <trkpt lat="42.99768" lon="-0.70085">
        <ele>894.72442894723</ele>
        <time>2014-02-02T10:25:54Z</time>
      </trkpt>
      <trkpt lat="42.99766" lon="-0.70088">
        <ele>894.72442894723</ele>
        <time>2014-02-02T10:26:00Z</time>
      </trkpt>
      <trkpt lat="42.99766" lon="-0.70091">
        <ele>896.12310403597</ele>
        <time>2014-02-02T10:26:04Z</time>
      </trkpt>
      <trkpt lat="42.99765" lon="-0.70095">
        <ele>896.12310403597</ele>
        <time>2014-02-02T10:26:10Z</time>
      </trkpt>
      <trkpt lat="42.99764" lon="-0.70095">
        <ele>896.12310403597</ele>
        <time>2014-02-02T10:26:14Z</time>
      </trkpt>
      <trkpt lat="42.99763" lon="-0.701">
        <ele>896.12310403597</ele>
        <time>2014-02-02T10:26:19Z</time>
      </trkpt>
      <trkpt lat="42.99758" lon="-0.70103">
        <ele>897.53448854455</ele>
        <time>2014-02-02T10:26:24Z</time>
      </trkpt>
      <trkpt lat="42.99754" lon="-0.70108">
        <ele>897.53448854455</ele>
        <time>2014-02-02T10:26:30Z</time>
      </trkpt>
      <trkpt lat="42.99753" lon="-0.70106">
        <ele>897.53448854455</ele>
        <time>2014-02-02T10:26:34Z</time>
      </trkpt>
      <trkpt lat="42.99752" lon="-0.70109">
        <ele>899.01274734531</ele>
        <time>2014-02-02T10:26:39Z</time>
      </trkpt>
      <trkpt lat="42.99752" lon="-0.70112">
        <ele>899.01274734531</ele>
        <time>2014-02-02T10:26:44Z</time>
      </trkpt>
      <trkpt lat="42.99752" lon="-0.70113">
        <ele>899.01274734531</ele>
        <time>2014-02-02T10:26:49Z</time>
      </trkpt>
      <trkpt lat="42.99751" lon="-0.70113">
        <ele>899.01274734531</ele>
        <time>2014-02-02T10:26:55Z</time>
      </trkpt>
      <trkpt lat="42.99747" lon="-0.70115">
        <ele>899.01274734531</ele>
        <time>2014-02-02T10:26:59Z</time>
      </trkpt>
      <trkpt lat="42.99741" lon="-0.70115">
        <ele>900.72488704811</ele>
        <time>2014-02-02T10:27:05Z</time>
      </trkpt>
      <trkpt lat="42.99741" lon="-0.70121">
        <ele>900.72488704811</ele>
        <time>2014-02-02T10:27:09Z</time>
      </trkpt>
      <trkpt lat="42.99739" lon="-0.70125">
        <ele>900.72488704811</ele>
        <time>2014-02-02T10:27:14Z</time>
      </trkpt>
      <trkpt lat="42.99737" lon="-0.70133">
        <ele>902.54535056436</ele>
        <time>2014-02-02T10:27:20Z</time>
      </trkpt>
      <trkpt lat="42.99736" lon="-0.70139">
        <ele>902.54535056436</ele>
        <time>2014-02-02T10:27:24Z</time>
      </trkpt>
      <trkpt lat="42.99734" lon="-0.70147">
        <ele>904.38795145601</ele>
        <time>2014-02-02T10:27:29Z</time>
      </trkpt>
      <trkpt lat="42.99731" lon="-0.70153">
        <ele>904.38795145601</ele>
        <time>2014-02-02T10:27:35Z</time>
      </trkpt>
      <trkpt lat="42.99731" lon="-0.70156">
        <ele>904.38795145601</ele>
        <time>2014-02-02T10:27:39Z</time>
      </trkpt>
      <trkpt lat="42.99733" lon="-0.70157">
        <ele>906.34862457866</ele>
        <time>2014-02-02T10:27:45Z</time>
      </trkpt>
      <trkpt lat="42.99731" lon="-0.70157">
        <ele>906.34862457866</ele>
        <time>2014-02-02T10:27:49Z</time>
      </trkpt>
      <trkpt lat="42.99731" lon="-0.70162">
        <ele>906.34862457866</ele>
        <time>2014-02-02T10:27:55Z</time>
      </trkpt>
      <trkpt lat="42.99729" lon="-0.70165">
        <ele>906.34862457866</ele>
        <time>2014-02-02T10:27:59Z</time>
      </trkpt>
      <trkpt lat="42.99724" lon="-0.7017">
        <ele>908.52991263688</ele>
        <time>2014-02-02T10:28:04Z</time>
      </trkpt>
      <trkpt lat="42.99721" lon="-0.70172">
        <ele>908.52991263688</ele>
        <time>2014-02-02T10:28:09Z</time>
      </trkpt>
      <trkpt lat="42.99714" lon="-0.70177">
        <ele>910.74941022636</ele>
        <time>2014-02-02T10:28:15Z</time>
      </trkpt>
      <trkpt lat="42.99709" lon="-0.70178">
        <ele>910.74941022636</ele>
        <time>2014-02-02T10:28:19Z</time>
      </trkpt>
      <trkpt lat="42.99706" lon="-0.70178">
        <ele>910.74941022636</ele>
        <time>2014-02-02T10:28:25Z</time>
      </trkpt>
      <trkpt lat="42.997" lon="-0.70179">
        <ele>913.02799612322</ele>
        <time>2014-02-02T10:28:28Z</time>
      </trkpt>
      <trkpt lat="42.99696" lon="-0.70175">
        <ele>913.02799612322</ele>
        <time>2014-02-02T10:28:34Z</time>
      </trkpt>
      <trkpt lat="42.99695" lon="-0.70168">
        <ele>915.34131886467</ele>
        <time>2014-02-02T10:28:39Z</time>
      </trkpt>
      <trkpt lat="42.9969" lon="-0.70163">
        <ele>915.34131886467</ele>
        <time>2014-02-02T10:28:44Z</time>
      </trkpt>
      <trkpt lat="42.99688" lon="-0.70163">
        <ele>915.34131886467</ele>
        <time>2014-02-02T10:28:49Z</time>
      </trkpt>
      <trkpt lat="42.99688" lon="-0.70158">
        <ele>917.681409108</ele>
        <time>2014-02-02T10:28:54Z</time>
      </trkpt>
      <trkpt lat="42.99681" lon="-0.70158">
        <ele>917.681409108</ele>
        <time>2014-02-02T10:28:59Z</time>
      </trkpt>
      <trkpt lat="42.99682" lon="-0.70153">
        <ele>920.04092596015</ele>
        <time>2014-02-02T10:29:04Z</time>
      </trkpt>
      <trkpt lat="42.99683" lon="-0.70151">
        <ele>920.04092596015</ele>
        <time>2014-02-02T10:29:09Z</time>
      </trkpt>
      <trkpt lat="42.99687" lon="-0.70147">
        <ele>920.04092596015</ele>
        <time>2014-02-02T10:29:14Z</time>
      </trkpt>
      <trkpt lat="42.99686" lon="-0.70144">
        <ele>922.44205010828</ele>
        <time>2014-02-02T10:29:19Z</time>
      </trkpt>
      <trkpt lat="42.99686" lon="-0.70141">
        <ele>922.44205010828</ele>
        <time>2014-02-02T10:29:24Z</time>
      </trkpt>
      <trkpt lat="42.99692" lon="-0.7013">
        <ele>924.84744710446</ele>
        <time>2014-02-02T10:29:29Z</time>
      </trkpt>
      <trkpt lat="42.9969" lon="-0.70126">
        <ele>924.84744710446</ele>
        <time>2014-02-02T10:29:34Z</time>
      </trkpt>
      <trkpt lat="42.99692" lon="-0.70119">
        <ele>924.84744710446</ele>
        <time>2014-02-02T10:29:39Z</time>
      </trkpt>
      <trkpt lat="42.99697" lon="-0.70116">
        <ele>927.32380956602</ele>
        <time>2014-02-02T10:29:45Z</time>
      </trkpt>
      <trkpt lat="42.99701" lon="-0.70113">
        <ele>927.32380956602</ele>
        <time>2014-02-02T10:29:49Z</time>
      </trkpt>
      <trkpt lat="42.997" lon="-0.7011">
        <ele>927.32380956602</ele>
        <time>2014-02-02T10:29:54Z</time>
      </trkpt>
      <trkpt lat="42.99703" lon="-0.70108">
        <ele>929.67287363985</ele>
        <time>2014-02-02T10:29:59Z</time>
      </trkpt>
      <trkpt lat="42.99708" lon="-0.70104">
        <ele>929.67287363985</ele>
        <time>2014-02-02T10:30:04Z</time>
      </trkpt>
      <trkpt lat="42.99705" lon="-0.70107">
        <ele>931.88488716234</ele>
        <time>2014-02-02T10:30:09Z</time>
      </trkpt>
      <trkpt lat="42.99704" lon="-0.70108">
        <ele>931.88488716234</ele>
        <time>2014-02-02T10:30:15Z</time>
      </trkpt>
      <trkpt lat="42.99697" lon="-0.70101">
        <ele>934.03783831478</ele>
        <time>2014-02-02T10:30:19Z</time>
      </trkpt>
      <trkpt lat="42.99696" lon="-0.70096">
        <ele>934.03783831478</ele>
        <time>2014-02-02T10:30:25Z</time>
      </trkpt>
      <trkpt lat="42.99701" lon="-0.70091">
        <ele>936.04552597436</ele>
        <time>2014-02-02T10:30:29Z</time>
      </trkpt>
      <trkpt lat="42.99701" lon="-0.70088">
        <ele>936.04552597436</ele>
        <time>2014-02-02T10:30:34Z</time>
      </trkpt>
      <trkpt lat="42.99695" lon="-0.70077">
        <ele>938.0593906279</ele>
        <time>2014-02-02T10:30:39Z</time>
      </trkpt>
      <trkpt lat="42.99702" lon="-0.70071">
        <ele>938.0593906279</ele>
        <time>2014-02-02T10:30:44Z</time>
      </trkpt>
      <trkpt lat="42.99702" lon="-0.70068">
        <ele>940.23420050371</ele>
        <time>2014-02-02T10:30:49Z</time>
      </trkpt>
      <trkpt lat="42.99703" lon="-0.7006">
        <ele>940.23420050371</ele>
        <time>2014-02-02T10:30:54Z</time>
      </trkpt>
      <trkpt lat="42.99703" lon="-0.70055">
        <ele>942.3958241206</ele>
        <time>2014-02-02T10:31:00Z</time>
      </trkpt>
      <trkpt lat="42.99702" lon="-0.70053">
        <ele>942.3958241206</ele>
        <time>2014-02-02T10:31:04Z</time>
      </trkpt>
      <trkpt lat="42.99697" lon="-0.70055">
        <ele>942.3958241206</ele>
        <time>2014-02-02T10:31:09Z</time>
      </trkpt>
      <trkpt lat="42.99696" lon="-0.70051">
        <ele>944.68592496407</ele>
        <time>2014-02-02T10:31:14Z</time>
      </trkpt>
      <trkpt lat="42.99693" lon="-0.70046">
        <ele>944.68592496407</ele>
        <time>2014-02-02T10:31:19Z</time>
      </trkpt>
      <trkpt lat="42.9969" lon="-0.70039">
        <ele>946.97602874693</ele>
        <time>2014-02-02T10:31:24Z</time>
      </trkpt>
      <trkpt lat="42.99692" lon="-0.70036">
        <ele>946.97602874693</ele>
        <time>2014-02-02T10:31:30Z</time>
      </trkpt>
      <trkpt lat="42.9969" lon="-0.70031">
        <ele>946.97602874693</ele>
        <time>2014-02-02T10:31:34Z</time>
      </trkpt>
      <trkpt lat="42.99687" lon="-0.70029">
        <ele>949.26259939121</ele>
        <time>2014-02-02T10:31:39Z</time>
      </trkpt>
      <trkpt lat="42.99683" lon="-0.70027">
        <ele>949.26259939121</ele>
        <time>2014-02-02T10:31:44Z</time>
      </trkpt>
      <trkpt lat="42.9968" lon="-0.70023">
        <ele>949.26259939121</ele>
        <time>2014-02-02T10:31:49Z</time>
      </trkpt>
      <trkpt lat="42.99681" lon="-0.70016">
        <ele>951.64345222421</ele>
        <time>2014-02-02T10:31:54Z</time>
      </trkpt>
      <trkpt lat="42.99678" lon="-0.70012">
        <ele>951.64345222421</ele>
        <time>2014-02-02T10:31:59Z</time>
      </trkpt>
      <trkpt lat="42.99678" lon="-0.70009">
        <ele>951.64345222421</ele>
        <time>2014-02-02T10:32:05Z</time>
      </trkpt>
      <trkpt lat="42.99675" lon="-0.70007">
        <ele>951.64345222421</ele>
        <time>2014-02-02T10:32:09Z</time>
      </trkpt>
      <trkpt lat="42.99672" lon="-0.70005">
        <ele>954.07934249445</ele>
        <time>2014-02-02T10:32:14Z</time>
      </trkpt>
      <trkpt lat="42.99671" lon="-0.7">
        <ele>954.07934249445</ele>
        <time>2014-02-02T10:32:19Z</time>
      </trkpt>
      <trkpt lat="42.99669" lon="-0.7">
        <ele>954.07934249445</ele>
        <time>2014-02-02T10:32:24Z</time>
      </trkpt>
      <trkpt lat="42.99665" lon="-0.69996">
        <ele>956.40411880328</ele>
        <time>2014-02-02T10:32:30Z</time>
      </trkpt>
      <trkpt lat="42.99663" lon="-0.69996">
        <ele>956.40411880328</ele>
        <time>2014-02-02T10:32:34Z</time>
      </trkpt>
      <trkpt lat="42.99664" lon="-0.6999">
        <ele>956.40411880328</ele>
        <time>2014-02-02T10:32:39Z</time>
      </trkpt>
      <trkpt lat="42.99663" lon="-0.69984">
        <ele>958.73827378723</ele>
        <time>2014-02-02T10:32:45Z</time>
      </trkpt>
      <trkpt lat="42.99663" lon="-0.69983">
        <ele>958.73827378723</ele>
        <time>2014-02-02T10:32:49Z</time>
      </trkpt>
      <trkpt lat="42.99665" lon="-0.69974">
        <ele>958.73827378723</ele>
        <time>2014-02-02T10:33:04Z</time>
      </trkpt>
      <trkpt lat="42.99663" lon="-0.69973">
        <ele>961.07821420015</ele>
        <time>2014-02-02T10:33:10Z</time>
      </trkpt>
      <trkpt lat="42.99657" lon="-0.69977">
        <ele>961.07821420015</ele>
        <time>2014-02-02T10:33:14Z</time>
      </trkpt>
      <trkpt lat="42.99657" lon="-0.69977">
        <ele>961.07821420015</ele>
        <time>2014-02-02T10:33:19Z</time>
      </trkpt>
      <trkpt lat="42.99652" lon="-0.6998">
        <ele>963.29093758388</ele>
        <time>2014-02-02T10:33:29Z</time>
      </trkpt>
      <trkpt lat="42.99652" lon="-0.69979">
        <ele>963.29093758388</ele>
        <time>2014-02-02T10:33:34Z</time>
      </trkpt>
      <trkpt lat="42.99648" lon="-0.69976">
        <ele>963.29093758388</ele>
        <time>2014-02-02T10:33:39Z</time>
      </trkpt>
      <trkpt lat="42.99646" lon="-0.69973">
        <ele>963.29093758388</ele>
        <time>2014-02-02T10:33:44Z</time>
      </trkpt>
      <trkpt lat="42.99646" lon="-0.69969">
        <ele>965.42678035871</ele>
        <time>2014-02-02T10:33:49Z</time>
      </trkpt>
      <trkpt lat="42.99644" lon="-0.69966">
        <ele>965.42678035871</ele>
        <time>2014-02-02T10:33:54Z</time>
      </trkpt>
      <trkpt lat="42.99644" lon="-0.69966">
        <ele>965.42678035871</ele>
        <time>2014-02-02T10:33:59Z</time>
      </trkpt>
      <trkpt lat="42.99639" lon="-0.69961">
        <ele>967.5471686309</ele>
        <time>2014-02-02T10:34:04Z</time>
      </trkpt>
      <trkpt lat="42.99637" lon="-0.69959">
        <ele>967.5471686309</ele>
        <time>2014-02-02T10:34:10Z</time>
      </trkpt>
      <trkpt lat="42.99635" lon="-0.69956">
        <ele>967.5471686309</ele>
        <time>2014-02-02T10:34:14Z</time>
      </trkpt>
      <trkpt lat="42.99633" lon="-0.69954">
        <ele>967.5471686309</ele>
        <time>2014-02-02T10:34:19Z</time>
      </trkpt>
      <trkpt lat="42.99633" lon="-0.69951">
        <ele>969.73804757602</ele>
        <time>2014-02-02T10:34:24Z</time>
      </trkpt>
      <trkpt lat="42.99632" lon="-0.6995">
        <ele>969.73804757602</ele>
        <time>2014-02-02T10:34:29Z</time>
      </trkpt>
      <trkpt lat="42.99626" lon="-0.69947">
        <ele>969.73804757602</ele>
        <time>2014-02-02T10:34:34Z</time>
      </trkpt>
      <trkpt lat="42.99622" lon="-0.69946">
        <ele>971.83376700915</ele>
        <time>2014-02-02T10:34:40Z</time>
      </trkpt>
      <trkpt lat="42.9962" lon="-0.69944">
        <ele>971.83376700915</ele>
        <time>2014-02-02T10:34:44Z</time>
      </trkpt>
      <trkpt lat="42.99619" lon="-0.69943">
        <ele>971.83376700915</ele>
        <time>2014-02-02T10:34:50Z</time>
      </trkpt>
      <trkpt lat="42.99617" lon="-0.69942">
        <ele>971.83376700915</ele>
        <time>2014-02-02T10:34:54Z</time>
      </trkpt>
      <trkpt lat="42.99615" lon="-0.69941">
        <ele>971.83376700915</ele>
        <time>2014-02-02T10:34:59Z</time>
      </trkpt>
      <trkpt lat="42.99613" lon="-0.6994">
        <ele>974.013003875</ele>
        <time>2014-02-02T10:35:04Z</time>
      </trkpt>
      <trkpt lat="42.99612" lon="-0.69938">
        <ele>974.013003875</ele>
        <time>2014-02-02T10:35:09Z</time>
      </trkpt>
      <trkpt lat="42.99613" lon="-0.69937">
        <ele>974.013003875</ele>
        <time>2014-02-02T10:35:15Z</time>
      </trkpt>
      <trkpt lat="42.99612" lon="-0.69931">
        <ele>974.013003875</ele>
        <time>2014-02-02T10:35:19Z</time>
      </trkpt>
      <trkpt lat="42.9961" lon="-0.69929">
        <ele>976.18154597641</ele>
        <time>2014-02-02T10:35:25Z</time>
      </trkpt>
      <trkpt lat="42.99609" lon="-0.69927">
        <ele>976.18154597641</ele>
        <time>2014-02-02T10:35:29Z</time>
      </trkpt>
      <trkpt lat="42.99601" lon="-0.69921">
        <ele>978.20898131257</ele>
        <time>2014-02-02T10:35:34Z</time>
      </trkpt>
      <trkpt lat="42.996" lon="-0.69918">
        <ele>978.20898131257</ele>
        <time>2014-02-02T10:35:39Z</time>
      </trkpt>
      <trkpt lat="42.99599" lon="-0.69915">
        <ele>978.20898131257</ele>
        <time>2014-02-02T10:35:44Z</time>
      </trkpt>
      <trkpt lat="42.99596" lon="-0.69906">
        <ele>980.32117446047</ele>
        <time>2014-02-02T10:35:50Z</time>
      </trkpt>
      <trkpt lat="42.99593" lon="-0.69904">
        <ele>980.32117446047</ele>
        <time>2014-02-02T10:35:54Z</time>
      </trkpt>
      <trkpt lat="42.99592" lon="-0.69903">
        <ele>980.32117446047</ele>
        <time>2014-02-02T10:35:59Z</time>
      </trkpt>
      <trkpt lat="42.99593" lon="-0.69898">
        <ele>980.32117446047</ele>
        <time>2014-02-02T10:36:04Z</time>
      </trkpt>
      <trkpt lat="42.99591" lon="-0.69895">
        <ele>982.52530372591</ele>
        <time>2014-02-02T10:36:09Z</time>
      </trkpt>
      <trkpt lat="42.99586" lon="-0.6989">
        <ele>982.52530372591</ele>
        <time>2014-02-02T10:36:15Z</time>
      </trkpt>
      <trkpt lat="42.99584" lon="-0.69889">
        <ele>982.52530372591</ele>
        <time>2014-02-02T10:36:19Z</time>
      </trkpt>
      <trkpt lat="42.99582" lon="-0.69889">
        <ele>984.8422805359</ele>
        <time>2014-02-02T10:36:25Z</time>
      </trkpt>
      <trkpt lat="42.99582" lon="-0.69888">
        <ele>984.8422805359</ele>
        <time>2014-02-02T10:36:29Z</time>
      </trkpt>
      <trkpt lat="42.99579" lon="-0.69882">
        <ele>984.8422805359</ele>
        <time>2014-02-02T10:36:34Z</time>
      </trkpt>
      <trkpt lat="42.99578" lon="-0.69882">
        <ele>984.8422805359</ele>
        <time>2014-02-02T10:36:40Z</time>
      </trkpt>
      <trkpt lat="42.99577" lon="-0.69882">
        <ele>984.8422805359</ele>
        <time>2014-02-02T10:36:44Z</time>
      </trkpt>
      <trkpt lat="42.99575" lon="-0.6988">
        <ele>987.37778688871</ele>
        <time>2014-02-02T10:36:49Z</time>
      </trkpt>
      <trkpt lat="42.99576" lon="-0.6988">
        <ele>987.37778688871</ele>
        <time>2014-02-02T10:36:54Z</time>
      </trkpt>
      <trkpt lat="42.99576" lon="-0.69878">
        <ele>987.37778688871</ele>
        <time>2014-02-02T10:36:59Z</time>
      </trkpt>
      <trkpt lat="42.99575" lon="-0.69879">
        <ele>987.37778688871</ele>
        <time>2014-02-02T10:37:05Z</time>
      </trkpt>
      <trkpt lat="42.99572" lon="-0.69876">
        <ele>987.37778688871</ele>
        <time>2014-02-02T10:37:18Z</time>
      </trkpt>
      <trkpt lat="42.99569" lon="-0.69873">
        <ele>990.30130595455</ele>
        <time>2014-02-02T10:37:24Z</time>
      </trkpt>
      <trkpt lat="42.99566" lon="-0.69872">
        <ele>990.30130595455</ele>
        <time>2014-02-02T10:37:30Z</time>
      </trkpt>
      <trkpt lat="42.99564" lon="-0.69871">
        <ele>990.30130595455</ele>
        <time>2014-02-02T10:37:34Z</time>
      </trkpt>
      <trkpt lat="42.99563" lon="-0.6987">
        <ele>990.30130595455</ele>
        <time>2014-02-02T10:37:40Z</time>
      </trkpt>
      <trkpt lat="42.9956" lon="-0.69861">
        <ele>993.43715193873</ele>
        <time>2014-02-02T10:37:50Z</time>
      </trkpt>
      <trkpt lat="42.99559" lon="-0.69861">
        <ele>993.43715193873</ele>
        <time>2014-02-02T10:37:54Z</time>
      </trkpt>
      <trkpt lat="42.99561" lon="-0.6986">
        <ele>993.43715193873</ele>
        <time>2014-02-02T10:38:04Z</time>
      </trkpt>
      <trkpt lat="42.99564" lon="-0.69857">
        <ele>993.43715193873</ele>
        <time>2014-02-02T10:38:09Z</time>
      </trkpt>
      <trkpt lat="42.99564" lon="-0.69857">
        <ele>993.43715193873</ele>
        <time>2014-02-02T10:38:14Z</time>
      </trkpt>
      <trkpt lat="42.99561" lon="-0.69863">
        <ele>997.24215293122</ele>
        <time>2014-02-02T10:38:19Z</time>
      </trkpt>
      <trkpt lat="42.9956" lon="-0.69864">
        <ele>997.24215293122</ele>
        <time>2014-02-02T10:38:24Z</time>
      </trkpt>
      <trkpt lat="42.99559" lon="-0.69862">
        <ele>997.24215293122</ele>
        <time>2014-02-02T10:38:29Z</time>
      </trkpt>
      <trkpt lat="42.99559" lon="-0.69859">
        <ele>997.24215293122</ele>
        <time>2014-02-02T10:38:34Z</time>
      </trkpt>
      <trkpt lat="42.99558" lon="-0.6986">
        <ele>997.24215293122</ele>
        <time>2014-02-02T10:38:38Z</time>
      </trkpt>
      <trkpt lat="42.99556" lon="-0.69857">
        <ele>1001.503239267</ele>
        <time>2014-02-02T10:38:45Z</time>
      </trkpt>
      <trkpt lat="42.9956" lon="-0.69864">
        <ele>1001.503239267</ele>
        <time>2014-02-02T10:39:04Z</time>
      </trkpt>
      <trkpt lat="42.9956" lon="-0.69865">
        <ele>1001.503239267</ele>
        <time>2014-02-02T10:39:09Z</time>
      </trkpt>
      <trkpt lat="42.99555" lon="-0.69867">
        <ele>1005.9065181243</ele>
        <time>2014-02-02T10:39:19Z</time>
      </trkpt>
      <trkpt lat="42.99556" lon="-0.69867">
        <ele>1005.9065181243</ele>
        <time>2014-02-02T10:39:24Z</time>
      </trkpt>
      <trkpt lat="42.9956" lon="-0.69868">
        <ele>1005.9065181243</ele>
        <time>2014-02-02T10:39:44Z</time>
      </trkpt>
      <trkpt lat="42.99556" lon="-0.69865">
        <ele>1010.1897787256</ele>
        <time>2014-02-02T10:39:49Z</time>
      </trkpt>
      <trkpt lat="42.99551" lon="-0.69861">
        <ele>1010.1897787256</ele>
        <time>2014-02-02T10:39:55Z</time>
      </trkpt>
      <trkpt lat="42.99549" lon="-0.69857">
        <ele>1010.1897787256</ele>
        <time>2014-02-02T10:39:59Z</time>
      </trkpt>
      <trkpt lat="42.99547" lon="-0.69858">
        <ele>1014.2259295771</ele>
        <time>2014-02-02T10:40:04Z</time>
      </trkpt>
      <trkpt lat="42.99541" lon="-0.69851">
        <ele>1014.2259295771</ele>
        <time>2014-02-02T10:40:19Z</time>
      </trkpt>
      <trkpt lat="42.9954" lon="-0.69851">
        <ele>1014.2259295771</ele>
        <time>2014-02-02T10:40:24Z</time>
      </trkpt>
      <trkpt lat="42.99536" lon="-0.69849">
        <ele>1017.8403999736</ele>
        <time>2014-02-02T10:40:30Z</time>
      </trkpt>
      <trkpt lat="42.99532" lon="-0.69841">
        <ele>1017.8403999736</ele>
        <time>2014-02-02T10:40:40Z</time>
      </trkpt>
      <trkpt lat="42.99531" lon="-0.69839">
        <ele>1017.8403999736</ele>
        <time>2014-02-02T10:40:43Z</time>
      </trkpt>
      <trkpt lat="42.99528" lon="-0.69834">
        <ele>1021.2764421517</ele>
        <time>2014-02-02T10:40:50Z</time>
      </trkpt>
      <trkpt lat="42.99526" lon="-0.6983">
        <ele>1021.2764421517</ele>
        <time>2014-02-02T10:40:54Z</time>
      </trkpt>
      <trkpt lat="42.99524" lon="-0.69826">
        <ele>1021.2764421517</ele>
        <time>2014-02-02T10:41:00Z</time>
      </trkpt>
      <trkpt lat="42.99523" lon="-0.69823">
        <ele>1024.3996489162</ele>
        <time>2014-02-02T10:41:04Z</time>
      </trkpt>
      <trkpt lat="42.99524" lon="-0.69808">
        <ele>1027.2883295682</ele>
        <time>2014-02-02T10:41:29Z</time>
      </trkpt>
      <trkpt lat="42.99524" lon="-0.69806">
        <ele>1027.2883295682</ele>
        <time>2014-02-02T10:41:34Z</time>
      </trkpt>
      <trkpt lat="42.99522" lon="-0.69805">
        <ele>1027.2883295682</ele>
        <time>2014-02-02T10:41:39Z</time>
      </trkpt>
      <trkpt lat="42.99518" lon="-0.69795">
        <ele>1030.01581907</ele>
        <time>2014-02-02T10:41:44Z</time>
      </trkpt>
      <trkpt lat="42.99512" lon="-0.69797">
        <ele>1030.01581907</ele>
        <time>2014-02-02T10:41:49Z</time>
      </trkpt>
      <trkpt lat="42.9951" lon="-0.69798">
        <ele>1030.01581907</ele>
        <time>2014-02-02T10:41:54Z</time>
      </trkpt>
      <trkpt lat="42.99509" lon="-0.69798">
        <ele>1032.5064976525</ele>
        <time>2014-02-02T10:41:59Z</time>
      </trkpt>
      <trkpt lat="42.99506" lon="-0.69803">
        <ele>1032.5064976525</ele>
        <time>2014-02-02T10:42:05Z</time>
      </trkpt>
      <trkpt lat="42.99497" lon="-0.69805">
        <ele>1034.806401762</ele>
        <time>2014-02-02T10:42:19Z</time>
      </trkpt>
      <trkpt lat="42.99497" lon="-0.6981">
        <ele>1034.806401762</ele>
        <time>2014-02-02T10:42:24Z</time>
      </trkpt>
      <trkpt lat="42.99497" lon="-0.69811">
        <ele>1034.806401762</ele>
        <time>2014-02-02T10:42:29Z</time>
      </trkpt>
      <trkpt lat="42.99494" lon="-0.69821">
        <ele>1036.9011765115</ele>
        <time>2014-02-02T10:42:34Z</time>
      </trkpt>
      <trkpt lat="42.99492" lon="-0.69823">
        <ele>1036.9011765115</ele>
        <time>2014-02-02T10:42:39Z</time>
      </trkpt>
      <trkpt lat="42.99489" lon="-0.69835">
        <ele>1038.8358513723</ele>
        <time>2014-02-02T10:42:54Z</time>
      </trkpt>
      <trkpt lat="42.99491" lon="-0.69838">
        <ele>1038.8358513723</ele>
        <time>2014-02-02T10:42:59Z</time>
      </trkpt>
      <trkpt lat="42.99492" lon="-0.6984">
        <ele>1038.8358513723</ele>
        <time>2014-02-02T10:43:04Z</time>
      </trkpt>
      <trkpt lat="42.9949" lon="-0.69844">
        <ele>1038.8358513723</ele>
        <time>2014-02-02T10:43:09Z</time>
      </trkpt>
      <trkpt lat="42.99488" lon="-0.69848">
        <ele>1040.7391593307</ele>
        <time>2014-02-02T10:43:14Z</time>
      </trkpt>
      <trkpt lat="42.99488" lon="-0.69849">
        <ele>1040.7391593307</ele>
        <time>2014-02-02T10:43:19Z</time>
      </trkpt>
      <trkpt lat="42.99498" lon="-0.69849">
        <ele>1042.9178948908</ele>
        <time>2014-02-02T10:43:34Z</time>
      </trkpt>
      <trkpt lat="42.99498" lon="-0.69854">
        <ele>1042.9178948908</ele>
        <time>2014-02-02T10:43:39Z</time>
      </trkpt>
      <trkpt lat="42.99496" lon="-0.6986">
        <ele>1042.9178948908</ele>
        <time>2014-02-02T10:43:45Z</time>
      </trkpt>
      <trkpt lat="42.99498" lon="-0.69863">
        <ele>1045.2664798359</ele>
        <time>2014-02-02T10:43:49Z</time>
      </trkpt>
      <trkpt lat="42.99501" lon="-0.69866">
        <ele>1045.2664798359</ele>
        <time>2014-02-02T10:43:54Z</time>
      </trkpt>
      <trkpt lat="42.995" lon="-0.69873">
        <ele>1045.2664798359</ele>
        <time>2014-02-02T10:44:00Z</time>
      </trkpt>
      <trkpt lat="42.995" lon="-0.69876">
        <ele>1047.614628937</ele>
        <time>2014-02-02T10:44:04Z</time>
      </trkpt>
      <trkpt lat="42.995" lon="-0.69879">
        <ele>1047.614628937</ele>
        <time>2014-02-02T10:44:10Z</time>
      </trkpt>
      <trkpt lat="42.99502" lon="-0.69887">
        <ele>1047.614628937</ele>
        <time>2014-02-02T10:44:24Z</time>
      </trkpt>
      <trkpt lat="42.99499" lon="-0.69891">
        <ele>1050.0640389915</ele>
        <time>2014-02-02T10:44:29Z</time>
      </trkpt>
      <trkpt lat="42.99497" lon="-0.69893">
        <ele>1050.0640389915</ele>
        <time>2014-02-02T10:44:35Z</time>
      </trkpt>
      <trkpt lat="42.99495" lon="-0.69897">
        <ele>1050.0640389915</ele>
        <time>2014-02-02T10:44:39Z</time>
      </trkpt>
      <trkpt lat="42.99495" lon="-0.69895">
        <ele>1050.0640389915</ele>
        <time>2014-02-02T10:44:44Z</time>
      </trkpt>
      <trkpt lat="42.99495" lon="-0.69895">
        <ele>1050.0640389915</ele>
        <time>2014-02-02T10:44:49Z</time>
      </trkpt>
      <trkpt lat="42.99495" lon="-0.69898">
        <ele>1052.2763555302</ele>
        <time>2014-02-02T10:45:00Z</time>
      </trkpt>
      <trkpt lat="42.9949" lon="-0.69903">
        <ele>1052.2763555302</ele>
        <time>2014-02-02T10:45:04Z</time>
      </trkpt>
      <trkpt lat="42.99489" lon="-0.6991">
        <ele>1054.3567240362</ele>
        <time>2014-02-02T10:45:09Z</time>
      </trkpt>
      <trkpt lat="42.99489" lon="-0.69911">
        <ele>1054.3567240362</ele>
        <time>2014-02-02T10:45:14Z</time>
      </trkpt>
      <trkpt lat="42.99487" lon="-0.69913">
        <ele>1054.3567240362</ele>
        <time>2014-02-02T10:45:19Z</time>
      </trkpt>
      <trkpt lat="42.99487" lon="-0.69914">
        <ele>1054.3567240362</ele>
        <time>2014-02-02T10:45:25Z</time>
      </trkpt>
      <trkpt lat="42.99486" lon="-0.6992">
        <ele>1054.3567240362</ele>
        <time>2014-02-02T10:45:29Z</time>
      </trkpt>
      <trkpt lat="42.99486" lon="-0.69923">
        <ele>1056.4317913827</ele>
        <time>2014-02-02T10:45:34Z</time>
      </trkpt>
      <trkpt lat="42.99487" lon="-0.69928">
        <ele>1056.4317913827</ele>
        <time>2014-02-02T10:45:44Z</time>
      </trkpt>
      <trkpt lat="42.99488" lon="-0.69935">
        <ele>1056.4317913827</ele>
        <time>2014-02-02T10:45:50Z</time>
      </trkpt>
      <trkpt lat="42.99488" lon="-0.69941">
        <ele>1058.446007432</ele>
        <time>2014-02-02T10:45:54Z</time>
      </trkpt>
      <trkpt lat="42.99488" lon="-0.69943">
        <ele>1058.446007432</ele>
        <time>2014-02-02T10:46:00Z</time>
      </trkpt>
      <trkpt lat="42.99486" lon="-0.69946">
        <ele>1058.446007432</ele>
        <time>2014-02-02T10:46:04Z</time>
      </trkpt>
      <trkpt lat="42.99485" lon="-0.6995">
        <ele>1058.446007432</ele>
        <time>2014-02-02T10:46:09Z</time>
      </trkpt>
      <trkpt lat="42.99486" lon="-0.69951">
        <ele>1058.446007432</ele>
        <time>2014-02-02T10:46:15Z</time>
      </trkpt>
      <trkpt lat="42.99486" lon="-0.69955">
        <ele>1060.8236671101</ele>
        <time>2014-02-02T10:46:19Z</time>
      </trkpt>
      <trkpt lat="42.99487" lon="-0.69961">
        <ele>1060.8236671101</ele>
        <time>2014-02-02T10:46:24Z</time>
      </trkpt>
      <trkpt lat="42.99485" lon="-0.69964">
        <ele>1060.8236671101</ele>
        <time>2014-02-02T10:46:29Z</time>
      </trkpt>
      <trkpt lat="42.99485" lon="-0.69965">
        <ele>1060.8236671101</ele>
        <time>2014-02-02T10:46:34Z</time>
      </trkpt>
      <trkpt lat="42.99486" lon="-0.69968">
        <ele>1063.495732741</ele>
        <time>2014-02-02T10:46:40Z</time>
      </trkpt>
      <trkpt lat="42.99489" lon="-0.69969">
        <ele>1063.495732741</ele>
        <time>2014-02-02T10:46:44Z</time>
      </trkpt>
      <trkpt lat="42.99489" lon="-0.6997">
        <ele>1063.495732741</ele>
        <time>2014-02-02T10:46:49Z</time>
      </trkpt>
      <trkpt lat="42.99488" lon="-0.69976">
        <ele>1063.495732741</ele>
        <time>2014-02-02T10:46:54Z</time>
      </trkpt>
      <trkpt lat="42.99489" lon="-0.69979">
        <ele>1066.6712401851</ele>
        <time>2014-02-02T10:46:59Z</time>
      </trkpt>
      <trkpt lat="42.99488" lon="-0.6998">
        <ele>1066.6712401851</ele>
        <time>2014-02-02T10:47:05Z</time>
      </trkpt>
      <trkpt lat="42.99487" lon="-0.69986">
        <ele>1066.6712401851</ele>
        <time>2014-02-02T10:47:14Z</time>
      </trkpt>
      <trkpt lat="42.99487" lon="-0.69987">
        <ele>1066.6712401851</ele>
        <time>2014-02-02T10:47:19Z</time>
      </trkpt>
      <trkpt lat="42.99492" lon="-0.6999">
        <ele>1070.1101324497</ele>
        <time>2014-02-02T10:47:24Z</time>
      </trkpt>
      <trkpt lat="42.99496" lon="-0.69998">
        <ele>1070.1101324497</ele>
        <time>2014-02-02T10:47:29Z</time>
      </trkpt>
      <trkpt lat="42.99497" lon="-0.69999">
        <ele>1070.1101324497</ele>
        <time>2014-02-02T10:47:34Z</time>
      </trkpt>
      <trkpt lat="42.99493" lon="-0.70003">
        <ele>1073.6757296716</ele>
        <time>2014-02-02T10:47:44Z</time>
      </trkpt>
      <trkpt lat="42.99493" lon="-0.70007">
        <ele>1073.6757296716</ele>
        <time>2014-02-02T10:47:49Z</time>
      </trkpt>
      <trkpt lat="42.99492" lon="-0.70007">
        <ele>1073.6757296716</ele>
        <time>2014-02-02T10:47:54Z</time>
      </trkpt>
      <trkpt lat="42.99494" lon="-0.70008">
        <ele>1073.6757296716</ele>
        <time>2014-02-02T10:47:59Z</time>
      </trkpt>
      <trkpt lat="42.99494" lon="-0.70004">
        <ele>1073.6757296716</ele>
        <time>2014-02-02T10:48:03Z</time>
      </trkpt>
      <trkpt lat="42.99494" lon="-0.70006">
        <ele>1076.9240047847</ele>
        <time>2014-02-02T10:48:08Z</time>
      </trkpt>
      <trkpt lat="42.99494" lon="-0.70008">
        <ele>1076.9240047847</ele>
        <time>2014-02-02T10:48:13Z</time>
      </trkpt>
      <trkpt lat="42.99495" lon="-0.70011">
        <ele>1076.9240047847</ele>
        <time>2014-02-02T10:48:18Z</time>
      </trkpt>
      <trkpt lat="42.99495" lon="-0.70012">
        <ele>1076.9240047847</ele>
        <time>2014-02-02T10:48:23Z</time>
      </trkpt>
      <trkpt lat="42.99494" lon="-0.70014">
        <ele>1076.9240047847</ele>
        <time>2014-02-02T10:48:28Z</time>
      </trkpt>
      <trkpt lat="42.99493" lon="-0.70011">
        <ele>1076.9240047847</ele>
        <time>2014-02-02T10:48:33Z</time>
      </trkpt>
      <trkpt lat="42.99492" lon="-0.7001">
        <ele>1080.049734446</ele>
        <time>2014-02-02T10:48:38Z</time>
      </trkpt>
      <trkpt lat="42.99491" lon="-0.70009">
        <ele>1080.049734446</ele>
        <time>2014-02-02T10:48:58Z</time>
      </trkpt>
      <trkpt lat="42.99488" lon="-0.70009">
        <ele>1080.049734446</ele>
        <time>2014-02-02T10:49:03Z</time>
      </trkpt>
      <trkpt lat="42.99488" lon="-0.70007">
        <ele>1080.049734446</ele>
        <time>2014-02-02T10:49:08Z</time>
      </trkpt>
      <trkpt lat="42.99488" lon="-0.70006">
        <ele>1080.049734446</ele>
        <time>2014-02-02T10:49:13Z</time>
      </trkpt>
      <trkpt lat="42.99489" lon="-0.70007">
        <ele>1080.049734446</ele>
        <time>2014-02-02T10:49:18Z</time>
      </trkpt>
      <trkpt lat="42.9949" lon="-0.70009">
        <ele>1083.3202249604</ele>
        <time>2014-02-02T10:49:23Z</time>
      </trkpt>
      <trkpt lat="42.99489" lon="-0.70009">
        <ele>1083.3202249604</ele>
        <time>2014-02-02T10:49:28Z</time>
      </trkpt>
      <trkpt lat="42.99486" lon="-0.7001">
        <ele>1083.3202249604</ele>
        <time>2014-02-02T10:49:43Z</time>
      </trkpt>
      <trkpt lat="42.99485" lon="-0.70014">
        <ele>1083.3202249604</ele>
        <time>2014-02-02T10:49:48Z</time>
      </trkpt>
      <trkpt lat="42.99487" lon="-0.70018">
        <ele>1086.4063129868</ele>
        <time>2014-02-02T10:49:53Z</time>
      </trkpt>
      <trkpt lat="42.99484" lon="-0.70015">
        <ele>1086.4063129868</ele>
        <time>2014-02-02T10:49:58Z</time>
      </trkpt>
      <trkpt lat="42.99487" lon="-0.70017">
        <ele>1086.4063129868</ele>
        <time>2014-02-02T10:50:08Z</time>
      </trkpt>
      <trkpt lat="42.99489" lon="-0.70013">
        <ele>1089.162085124</ele>
        <time>2014-02-02T10:50:13Z</time>
      </trkpt>
      <trkpt lat="42.9949" lon="-0.7001">
        <ele>1089.162085124</ele>
        <time>2014-02-02T10:50:18Z</time>
      </trkpt>
      <trkpt lat="42.99487" lon="-0.70011">
        <ele>1089.162085124</ele>
        <time>2014-02-02T10:50:23Z</time>
      </trkpt>
      <trkpt lat="42.99487" lon="-0.70012">
        <ele>1089.162085124</ele>
        <time>2014-02-02T10:50:28Z</time>
      </trkpt>
      <trkpt lat="42.9949" lon="-0.70004">
        <ele>1092.3324000061</ele>
        <time>2014-02-02T10:50:48Z</time>
      </trkpt>
      <trkpt lat="42.99491" lon="-0.70004">
        <ele>1092.3324000061</ele>
        <time>2014-02-02T10:50:53Z</time>
      </trkpt>
      <trkpt lat="42.99495" lon="-0.70008">
        <ele>1092.3324000061</ele>
        <time>2014-02-02T10:50:58Z</time>
      </trkpt>
      <trkpt lat="42.99496" lon="-0.70018">
        <ele>1095.06424111</ele>
        <time>2014-02-02T10:51:03Z</time>
      </trkpt>
      <trkpt lat="42.99498" lon="-0.70019">
        <ele>1095.06424111</ele>
        <time>2014-02-02T10:51:08Z</time>
      </trkpt>
      <trkpt lat="42.99501" lon="-0.70021">
        <ele>1095.06424111</ele>
        <time>2014-02-02T10:51:13Z</time>
      </trkpt>
      <trkpt lat="42.99504" lon="-0.70025">
        <ele>1097.4764321731</ele>
        <time>2014-02-02T10:51:18Z</time>
      </trkpt>
      <trkpt lat="42.99507" lon="-0.70029">
        <ele>1097.4764321731</ele>
        <time>2014-02-02T10:51:23Z</time>
      </trkpt>
      <trkpt lat="42.9951" lon="-0.70033">
        <ele>1097.4764321731</ele>
        <time>2014-02-02T10:51:28Z</time>
      </trkpt>
      <trkpt lat="42.99514" lon="-0.70037">
        <ele>1099.5935205418</ele>
        <time>2014-02-02T10:51:33Z</time>
      </trkpt>
      <trkpt lat="42.99518" lon="-0.70043">
        <ele>1099.5935205418</ele>
        <time>2014-02-02T10:51:38Z</time>
      </trkpt>
      <trkpt lat="42.99524" lon="-0.70046">
        <ele>1101.2949826029</ele>
        <time>2014-02-02T10:51:43Z</time>
      </trkpt>
      <trkpt lat="42.99529" lon="-0.7005">
        <ele>1101.2949826029</ele>
        <time>2014-02-02T10:51:49Z</time>
      </trkpt>
      <trkpt lat="42.99531" lon="-0.70051">
        <ele>1101.2949826029</ele>
        <time>2014-02-02T10:51:54Z</time>
      </trkpt>
      <trkpt lat="42.99535" lon="-0.70055">
        <ele>1102.5567947749</ele>
        <time>2014-02-02T10:51:58Z</time>
      </trkpt>
      <trkpt lat="42.99537" lon="-0.70061">
        <ele>1102.5567947749</ele>
        <time>2014-02-02T10:52:03Z</time>
      </trkpt>
      <trkpt lat="42.9954" lon="-0.70066">
        <ele>1103.1994059769</ele>
        <time>2014-02-02T10:52:08Z</time>
      </trkpt>
      <trkpt lat="42.99541" lon="-0.70073">
        <ele>1103.1994059769</ele>
        <time>2014-02-02T10:52:13Z</time>
      </trkpt>
      <trkpt lat="42.99541" lon="-0.70078">
        <ele>1103.360820234</ele>
        <time>2014-02-02T10:52:18Z</time>
      </trkpt>
      <trkpt lat="42.9954" lon="-0.70083">
        <ele>1103.360820234</ele>
        <time>2014-02-02T10:52:23Z</time>
      </trkpt>
      <trkpt lat="42.99539" lon="-0.70089">
        <ele>1103.360820234</ele>
        <time>2014-02-02T10:52:29Z</time>
      </trkpt>
      <trkpt lat="42.99538" lon="-0.70096">
        <ele>1102.9540510038</ele>
        <time>2014-02-02T10:52:33Z</time>
      </trkpt>
      <trkpt lat="42.99538" lon="-0.70103">
        <ele>1102.9540510038</ele>
        <time>2014-02-02T10:52:38Z</time>
      </trkpt>
      <trkpt lat="42.99539" lon="-0.70104">
        <ele>1102.9540510038</ele>
        <time>2014-02-02T10:52:44Z</time>
      </trkpt>
      <trkpt lat="42.99538" lon="-0.70112">
        <ele>1101.9144567015</ele>
        <time>2014-02-02T10:52:49Z</time>
      </trkpt>
      <trkpt lat="42.99536" lon="-0.70116">
        <ele>1101.9144567015</ele>
        <time>2014-02-02T10:52:54Z</time>
      </trkpt>
      <trkpt lat="42.99536" lon="-0.70118">
        <ele>1101.9144567015</ele>
        <time>2014-02-02T10:52:59Z</time>
      </trkpt>
      <trkpt lat="42.99538" lon="-0.70121">
        <ele>1101.9144567015</ele>
        <time>2014-02-02T10:53:03Z</time>
      </trkpt>
      <trkpt lat="42.99538" lon="-0.70129">
        <ele>1100.702657987</ele>
        <time>2014-02-02T10:53:08Z</time>
      </trkpt>
      <trkpt lat="42.99536" lon="-0.70134">
        <ele>1100.702657987</ele>
        <time>2014-02-02T10:53:14Z</time>
      </trkpt>
      <trkpt lat="42.99536" lon="-0.70135">
        <ele>1100.702657987</ele>
        <time>2014-02-02T10:53:18Z</time>
      </trkpt>
      <trkpt lat="42.99534" lon="-0.70142">
        <ele>1099.7458217049</ele>
        <time>2014-02-02T10:53:24Z</time>
      </trkpt>
      <trkpt lat="42.99534" lon="-0.70147">
        <ele>1099.7458217049</ele>
        <time>2014-02-02T10:53:29Z</time>
      </trkpt>
      <trkpt lat="42.9953" lon="-0.70155">
        <ele>1098.8768517171</ele>
        <time>2014-02-02T10:53:33Z</time>
      </trkpt>
      <trkpt lat="42.9953" lon="-0.70157">
        <ele>1098.8768517171</ele>
        <time>2014-02-02T10:53:39Z</time>
      </trkpt>
      <trkpt lat="42.99528" lon="-0.70157">
        <ele>1098.8768517171</ele>
        <time>2014-02-02T10:53:43Z</time>
      </trkpt>
      <trkpt lat="42.99526" lon="-0.70159">
        <ele>1098.8768517171</ele>
        <time>2014-02-02T10:53:49Z</time>
      </trkpt>
      <trkpt lat="42.99525" lon="-0.70163">
        <ele>1098.1278862599</ele>
        <time>2014-02-02T10:53:53Z</time>
      </trkpt>
      <trkpt lat="42.99524" lon="-0.70169">
        <ele>1098.1278862599</ele>
        <time>2014-02-02T10:53:58Z</time>
      </trkpt>
      <trkpt lat="42.9952" lon="-0.70175">
        <ele>1097.4129132912</ele>
        <time>2014-02-02T10:54:03Z</time>
      </trkpt>
      <trkpt lat="42.9952" lon="-0.70178">
        <ele>1097.4129132912</ele>
        <time>2014-02-02T10:54:09Z</time>
      </trkpt>
      <trkpt lat="42.99516" lon="-0.70182">
        <ele>1097.4129132912</ele>
        <time>2014-02-02T10:54:14Z</time>
      </trkpt>
      <trkpt lat="42.99512" lon="-0.70186">
        <ele>1097.0122506121</ele>
        <time>2014-02-02T10:54:18Z</time>
      </trkpt>
      <trkpt lat="42.99511" lon="-0.70192">
        <ele>1097.0122506121</ele>
        <time>2014-02-02T10:54:23Z</time>
      </trkpt>
      <trkpt lat="42.99512" lon="-0.70194">
        <ele>1097.0122506121</ele>
        <time>2014-02-02T10:54:29Z</time>
      </trkpt>
      <trkpt lat="42.99512" lon="-0.70198">
        <ele>1097.0122506121</ele>
        <time>2014-02-02T10:54:34Z</time>
      </trkpt>
      <trkpt lat="42.99511" lon="-0.70201">
        <ele>1096.896324476</ele>
        <time>2014-02-02T10:54:38Z</time>
      </trkpt>
      <trkpt lat="42.9951" lon="-0.70203">
        <ele>1096.896324476</ele>
        <time>2014-02-02T10:54:43Z</time>
      </trkpt>
      <trkpt lat="42.99508" lon="-0.70206">
        <ele>1096.896324476</ele>
        <time>2014-02-02T10:54:48Z</time>
      </trkpt>
      <trkpt lat="42.99507" lon="-0.70206">
        <ele>1096.896324476</ele>
        <time>2014-02-02T10:54:54Z</time>
      </trkpt>
      <trkpt lat="42.99504" lon="-0.70211">
        <ele>1096.9646794097</ele>
        <time>2014-02-02T10:54:58Z</time>
      </trkpt>
      <trkpt lat="42.99502" lon="-0.70212">
        <ele>1096.9646794097</ele>
        <time>2014-02-02T10:55:04Z</time>
      </trkpt>
      <trkpt lat="42.995" lon="-0.70219">
        <ele>1096.9646794097</ele>
        <time>2014-02-02T10:55:08Z</time>
      </trkpt>
      <trkpt lat="42.99499" lon="-0.70223">
        <ele>1097.0802835285</ele>
        <time>2014-02-02T10:55:14Z</time>
      </trkpt>
      <trkpt lat="42.995" lon="-0.70223">
        <ele>1097.0802835285</ele>
        <time>2014-02-02T10:55:18Z</time>
      </trkpt>
      <trkpt lat="42.99493" lon="-0.70223">
        <ele>1097.0802835285</ele>
        <time>2014-02-02T10:55:34Z</time>
      </trkpt>
      <trkpt lat="42.9949" lon="-0.70228">
        <ele>1097.9084505336</ele>
        <time>2014-02-02T10:55:39Z</time>
      </trkpt>
      <trkpt lat="42.99487" lon="-0.70232">
        <ele>1097.9084505336</ele>
        <time>2014-02-02T10:55:44Z</time>
      </trkpt>
      <trkpt lat="42.99485" lon="-0.70236">
        <ele>1097.9084505336</ele>
        <time>2014-02-02T10:55:48Z</time>
      </trkpt>
      <trkpt lat="42.99484" lon="-0.70243">
        <ele>1098.7663980216</ele>
        <time>2014-02-02T10:55:54Z</time>
      </trkpt>
      <trkpt lat="42.99483" lon="-0.70247">
        <ele>1098.7663980216</ele>
        <time>2014-02-02T10:55:58Z</time>
      </trkpt>
      <trkpt lat="42.99482" lon="-0.70251">
        <ele>1098.7663980216</ele>
        <time>2014-02-02T10:56:04Z</time>
      </trkpt>
      <trkpt lat="42.9948" lon="-0.70254">
        <ele>1099.5832521545</ele>
        <time>2014-02-02T10:56:08Z</time>
      </trkpt>
      <trkpt lat="42.99477" lon="-0.70257">
        <ele>1099.5832521545</ele>
        <time>2014-02-02T10:56:13Z</time>
      </trkpt>
      <trkpt lat="42.99475" lon="-0.70259">
        <ele>1099.5832521545</ele>
        <time>2014-02-02T10:56:18Z</time>
      </trkpt>
      <trkpt lat="42.99472" lon="-0.70264">
        <ele>1100.3797266308</ele>
        <time>2014-02-02T10:56:24Z</time>
      </trkpt>
      <trkpt lat="42.99468" lon="-0.70263">
        <ele>1100.3797266308</ele>
        <time>2014-02-02T10:56:28Z</time>
      </trkpt>
      <trkpt lat="42.99466" lon="-0.70265">
        <ele>1100.3797266308</ele>
        <time>2014-02-02T10:56:34Z</time>
      </trkpt>
      <trkpt lat="42.99464" lon="-0.70268">
        <ele>1101.3333978564</ele>
        <time>2014-02-02T10:56:39Z</time>
      </trkpt>
      <trkpt lat="42.99464" lon="-0.7027">
        <ele>1101.3333978564</ele>
        <time>2014-02-02T10:56:44Z</time>
      </trkpt>
      <trkpt lat="42.99464" lon="-0.70271">
        <ele>1101.3333978564</ele>
        <time>2014-02-02T10:56:48Z</time>
      </trkpt>
      <trkpt lat="42.9947" lon="-0.70275">
        <ele>1101.3333978564</ele>
        <time>2014-02-02T10:56:54Z</time>
      </trkpt>
      <trkpt lat="42.99474" lon="-0.70276">
        <ele>1102.7522787372</ele>
        <time>2014-02-02T10:56:58Z</time>
      </trkpt>
      <trkpt lat="42.99473" lon="-0.70281">
        <ele>1102.7522787372</ele>
        <time>2014-02-02T10:57:04Z</time>
      </trkpt>
      <trkpt lat="42.99472" lon="-0.70287">
        <ele>1102.7522787372</ele>
        <time>2014-02-02T10:57:09Z</time>
      </trkpt>
      <trkpt lat="42.99473" lon="-0.70289">
        <ele>1104.257354626</ele>
        <time>2014-02-02T10:57:14Z</time>
      </trkpt>
      <trkpt lat="42.99473" lon="-0.70288">
        <ele>1104.257354626</ele>
        <time>2014-02-02T10:57:18Z</time>
      </trkpt>
      <trkpt lat="42.99472" lon="-0.70293">
        <ele>1104.257354626</ele>
        <time>2014-02-02T10:57:24Z</time>
      </trkpt>
      <trkpt lat="42.99471" lon="-0.70296">
        <ele>1104.257354626</ele>
        <time>2014-02-02T10:57:28Z</time>
      </trkpt>
      <trkpt lat="42.9947" lon="-0.70301">
        <ele>1105.7996749667</ele>
        <time>2014-02-02T10:57:34Z</time>
      </trkpt>
      <trkpt lat="42.99469" lon="-0.70304">
        <ele>1105.7996749667</ele>
        <time>2014-02-02T10:57:39Z</time>
      </trkpt>
      <trkpt lat="42.99464" lon="-0.7031">
        <ele>1107.2327409689</ele>
        <time>2014-02-02T10:57:43Z</time>
      </trkpt>
      <trkpt lat="42.99463" lon="-0.70314">
        <ele>1107.2327409689</ele>
        <time>2014-02-02T10:57:49Z</time>
      </trkpt>
      <trkpt lat="42.99462" lon="-0.70316">
        <ele>1107.2327409689</ele>
        <time>2014-02-02T10:57:53Z</time>
      </trkpt>
      <trkpt lat="42.99461" lon="-0.70316">
        <ele>1107.2327409689</ele>
        <time>2014-02-02T10:57:59Z</time>
      </trkpt>
      <trkpt lat="42.99462" lon="-0.70321">
        <ele>1108.5506714682</ele>
        <time>2014-02-02T10:58:03Z</time>
      </trkpt>
      <trkpt lat="42.99464" lon="-0.7032">
        <ele>1108.5506714682</ele>
        <time>2014-02-02T10:58:09Z</time>
      </trkpt>
      <trkpt lat="42.9946" lon="-0.70328">
        <ele>1108.5506714682</ele>
        <time>2014-02-02T10:58:19Z</time>
      </trkpt>
      <trkpt lat="42.99458" lon="-0.70321">
        <ele>1109.9499551504</ele>
        <time>2014-02-02T10:58:39Z</time>
      </trkpt>
      <trkpt lat="42.99452" lon="-0.70319">
        <ele>1109.9499551504</ele>
        <time>2014-02-02T10:58:58Z</time>
      </trkpt>
      <trkpt lat="42.99451" lon="-0.70322">
        <ele>1109.9499551504</ele>
        <time>2014-02-02T10:59:04Z</time>
      </trkpt>
      <trkpt lat="42.99448" lon="-0.70324">
        <ele>1111.6266982105</ele>
        <time>2014-02-02T10:59:08Z</time>
      </trkpt>
      <trkpt lat="42.99445" lon="-0.70327">
        <ele>1111.6266982105</ele>
        <time>2014-02-02T10:59:13Z</time>
      </trkpt>
      <trkpt lat="42.99442" lon="-0.7033">
        <ele>1111.6266982105</ele>
        <time>2014-02-02T10:59:18Z</time>
      </trkpt>
      <trkpt lat="42.99439" lon="-0.70334">
        <ele>1113.3437783189</ele>
        <time>2014-02-02T10:59:23Z</time>
      </trkpt>
      <trkpt lat="42.99436" lon="-0.70335">
        <ele>1113.3437783189</ele>
        <time>2014-02-02T10:59:28Z</time>
      </trkpt>
      <trkpt lat="42.99434" lon="-0.70334">
        <ele>1113.3437783189</ele>
        <time>2014-02-02T10:59:33Z</time>
      </trkpt>
      <trkpt lat="42.99432" lon="-0.70335">
        <ele>1113.3437783189</ele>
        <time>2014-02-02T10:59:39Z</time>
      </trkpt>
      <trkpt lat="42.99433" lon="-0.70336">
        <ele>1113.3437783189</ele>
        <time>2014-02-02T10:59:44Z</time>
      </trkpt>
      <trkpt lat="42.9943" lon="-0.70342">
        <ele>1115.4000690526</ele>
        <time>2014-02-02T10:59:48Z</time>
      </trkpt>
      <trkpt lat="42.99428" lon="-0.70346">
        <ele>1115.4000690526</ele>
        <time>2014-02-02T10:59:54Z</time>
      </trkpt>
      <trkpt lat="42.99425" lon="-0.70347">
        <ele>1115.4000690526</ele>
        <time>2014-02-02T10:59:59Z</time>
      </trkpt>
      <trkpt lat="42.99422" lon="-0.70347">
        <ele>1117.5958709567</ele>
        <time>2014-02-02T11:00:03Z</time>
      </trkpt>
      <trkpt lat="42.99421" lon="-0.70353">
        <ele>1117.5958709567</ele>
        <time>2014-02-02T11:00:08Z</time>
      </trkpt>
      <trkpt lat="42.9942" lon="-0.70357">
        <ele>1117.5958709567</ele>
        <time>2014-02-02T11:00:13Z</time>
      </trkpt>
      <trkpt lat="42.9942" lon="-0.70361">
        <ele>1119.8897879049</ele>
        <time>2014-02-02T11:00:19Z</time>
      </trkpt>
      <trkpt lat="42.9942" lon="-0.70361">
        <ele>1119.8897879049</ele>
        <time>2014-02-02T11:00:24Z</time>
      </trkpt>
      <trkpt lat="42.99418" lon="-0.70366">
        <ele>1119.8897879049</ele>
        <time>2014-02-02T11:00:28Z</time>
      </trkpt>
      <trkpt lat="42.99417" lon="-0.7037">
        <ele>1119.8897879049</ele>
        <time>2014-02-02T11:00:34Z</time>
      </trkpt>
      <trkpt lat="42.99417" lon="-0.70371">
        <ele>1119.8897879049</ele>
        <time>2014-02-02T11:00:38Z</time>
      </trkpt>
      <trkpt lat="42.99417" lon="-0.70371">
        <ele>1119.8897879049</ele>
        <time>2014-02-02T11:00:43Z</time>
      </trkpt>
      <trkpt lat="42.99413" lon="-0.70364">
        <ele>1122.4881055962</ele>
        <time>2014-02-02T11:01:08Z</time>
      </trkpt>
      <trkpt lat="42.99412" lon="-0.70368">
        <ele>1122.4881055962</ele>
        <time>2014-02-02T11:01:13Z</time>
      </trkpt>
      <trkpt lat="42.99407" lon="-0.7036">
        <ele>1124.8604868039</ele>
        <time>2014-02-02T11:01:18Z</time>
      </trkpt>
      <trkpt lat="42.99404" lon="-0.70363">
        <ele>1124.8604868039</ele>
        <time>2014-02-02T11:01:23Z</time>
      </trkpt>
      <trkpt lat="42.99403" lon="-0.70366">
        <ele>1124.8604868039</ele>
        <time>2014-02-02T11:01:28Z</time>
      </trkpt>
      <trkpt lat="42.99407" lon="-0.70355">
        <ele>1127.0781741384</ele>
        <time>2014-02-02T11:01:33Z</time>
      </trkpt>
      <trkpt lat="42.99412" lon="-0.70365">
        <ele>1127.0781741384</ele>
        <time>2014-02-02T11:01:38Z</time>
      </trkpt>
      <trkpt lat="42.99412" lon="-0.70379">
        <ele>1129.2363992606</ele>
        <time>2014-02-02T11:01:58Z</time>
      </trkpt>
      <trkpt lat="42.99409" lon="-0.70382">
        <ele>1129.2363992606</ele>
        <time>2014-02-02T11:02:08Z</time>
      </trkpt>
      <trkpt lat="42.99406" lon="-0.70386">
        <ele>1129.2363992606</ele>
        <time>2014-02-02T11:02:13Z</time>
      </trkpt>
      <trkpt lat="42.99407" lon="-0.7039">
        <ele>1131.3226643926</ele>
        <time>2014-02-02T11:02:19Z</time>
      </trkpt>
      <trkpt lat="42.99405" lon="-0.70394">
        <ele>1131.3226643926</ele>
        <time>2014-02-02T11:02:23Z</time>
      </trkpt>
      <trkpt lat="42.99403" lon="-0.70398">
        <ele>1131.3226643926</ele>
        <time>2014-02-02T11:02:28Z</time>
      </trkpt>
      <trkpt lat="42.99402" lon="-0.70403">
        <ele>1133.19587786</ele>
        <time>2014-02-02T11:02:33Z</time>
      </trkpt>
      <trkpt lat="42.994" lon="-0.70406">
        <ele>1133.19587786</ele>
        <time>2014-02-02T11:02:39Z</time>
      </trkpt>
      <trkpt lat="42.99396" lon="-0.70409">
        <ele>1133.19587786</ele>
        <time>2014-02-02T11:02:43Z</time>
      </trkpt>
      <trkpt lat="42.99388" lon="-0.70415">
        <ele>1134.8700148511</ele>
        <time>2014-02-02T11:02:48Z</time>
      </trkpt>
      <trkpt lat="42.99384" lon="-0.7042">
        <ele>1134.8700148511</ele>
        <time>2014-02-02T11:02:53Z</time>
      </trkpt>
      <trkpt lat="42.99381" lon="-0.70422">
        <ele>1134.8700148511</ele>
        <time>2014-02-02T11:02:58Z</time>
      </trkpt>
      <trkpt lat="42.99378" lon="-0.70423">
        <ele>1136.3874036309</ele>
        <time>2014-02-02T11:03:03Z</time>
      </trkpt>
      <trkpt lat="42.99376" lon="-0.70426">
        <ele>1136.3874036309</ele>
        <time>2014-02-02T11:03:09Z</time>
      </trkpt>
      <trkpt lat="42.99376" lon="-0.70425">
        <ele>1136.3874036309</ele>
        <time>2014-02-02T11:03:13Z</time>
      </trkpt>
      <trkpt lat="42.99369" lon="-0.7043">
        <ele>1137.9029946779</ele>
        <time>2014-02-02T11:03:23Z</time>
      </trkpt>
      <trkpt lat="42.99366" lon="-0.70428">
        <ele>1137.9029946779</ele>
        <time>2014-02-02T11:03:28Z</time>
      </trkpt>
      <trkpt lat="42.99365" lon="-0.70428">
        <ele>1137.9029946779</ele>
        <time>2014-02-02T11:03:33Z</time>
      </trkpt>
      <trkpt lat="42.99358" lon="-0.7042">
        <ele>1139.3730217979</ele>
        <time>2014-02-02T11:03:53Z</time>
      </trkpt>
      <trkpt lat="42.99358" lon="-0.70418">
        <ele>1139.3730217979</ele>
        <time>2014-02-02T11:03:58Z</time>
      </trkpt>
      <trkpt lat="42.99363" lon="-0.70411">
        <ele>1139.3730217979</ele>
        <time>2014-02-02T11:04:03Z</time>
      </trkpt>
      <trkpt lat="42.99367" lon="-0.70402">
        <ele>1141.2182254026</ele>
        <time>2014-02-02T11:04:08Z</time>
      </trkpt>
      <trkpt lat="42.99367" lon="-0.70394">
        <ele>1141.2182254026</ele>
        <time>2014-02-02T11:04:13Z</time>
      </trkpt>
      <trkpt lat="42.99357" lon="-0.70395">
        <ele>1143.6832860396</ele>
        <time>2014-02-02T11:04:53Z</time>
      </trkpt>
      <trkpt lat="42.99355" lon="-0.70397">
        <ele>1143.6832860396</ele>
        <time>2014-02-02T11:04:58Z</time>
      </trkpt>
      <trkpt lat="42.99356" lon="-0.70401">
        <ele>1143.6832860396</ele>
        <time>2014-02-02T11:05:03Z</time>
      </trkpt>
      <trkpt lat="42.99354" lon="-0.70404">
        <ele>1143.6832860396</ele>
        <time>2014-02-02T11:05:08Z</time>
      </trkpt>
      <trkpt lat="42.99353" lon="-0.70408">
        <ele>1146.4743871271</ele>
        <time>2014-02-02T11:05:13Z</time>
      </trkpt>
      <trkpt lat="42.9935" lon="-0.70413">
        <ele>1146.4743871271</ele>
        <time>2014-02-02T11:05:18Z</time>
      </trkpt>
      <trkpt lat="42.99346" lon="-0.70416">
        <ele>1146.4743871271</ele>
        <time>2014-02-02T11:05:23Z</time>
      </trkpt>
      <trkpt lat="42.99341" lon="-0.70417">
        <ele>1149.7507391101</ele>
        <time>2014-02-02T11:05:28Z</time>
      </trkpt>
      <trkpt lat="42.99336" lon="-0.70417">
        <ele>1149.7507391101</ele>
        <time>2014-02-02T11:05:33Z</time>
      </trkpt>
      <trkpt lat="42.99329" lon="-0.70417">
        <ele>1153.5576533836</ele>
        <time>2014-02-02T11:05:38Z</time>
      </trkpt>
      <trkpt lat="42.99326" lon="-0.70421">
        <ele>1153.5576533836</ele>
        <time>2014-02-02T11:05:43Z</time>
      </trkpt>
      <trkpt lat="42.99324" lon="-0.70423">
        <ele>1153.5576533836</ele>
        <time>2014-02-02T11:05:48Z</time>
      </trkpt>
      <trkpt lat="42.99322" lon="-0.70427">
        <ele>1157.6474514994</ele>
        <time>2014-02-02T11:05:53Z</time>
      </trkpt>
      <trkpt lat="42.99318" lon="-0.7043">
        <ele>1157.6474514994</ele>
        <time>2014-02-02T11:05:58Z</time>
      </trkpt>
      <trkpt lat="42.99314" lon="-0.70433">
        <ele>1157.6474514994</ele>
        <time>2014-02-02T11:06:03Z</time>
      </trkpt>
      <trkpt lat="42.99312" lon="-0.70435">
        <ele>1161.761098838</ele>
        <time>2014-02-02T11:06:08Z</time>
      </trkpt>
      <trkpt lat="42.99308" lon="-0.70438">
        <ele>1161.761098838</ele>
        <time>2014-02-02T11:06:13Z</time>
      </trkpt>
      <trkpt lat="42.99304" lon="-0.7044">
        <ele>1161.761098838</ele>
        <time>2014-02-02T11:06:18Z</time>
      </trkpt>
      <trkpt lat="42.99301" lon="-0.70443">
        <ele>1165.8027155536</ele>
        <time>2014-02-02T11:06:23Z</time>
      </trkpt>
      <trkpt lat="42.99299" lon="-0.70447">
        <ele>1165.8027155536</ele>
        <time>2014-02-02T11:06:28Z</time>
      </trkpt>
      <trkpt lat="42.99297" lon="-0.70452">
        <ele>1165.8027155536</ele>
        <time>2014-02-02T11:06:33Z</time>
      </trkpt>
      <trkpt lat="42.99295" lon="-0.70457">
        <ele>1169.6261204008</ele>
        <time>2014-02-02T11:06:38Z</time>
      </trkpt>
      <trkpt lat="42.99292" lon="-0.70461">
        <ele>1169.6261204008</ele>
        <time>2014-02-02T11:06:43Z</time>
      </trkpt>
      <trkpt lat="42.9929" lon="-0.7046">
        <ele>1169.6261204008</ele>
        <time>2014-02-02T11:06:48Z</time>
      </trkpt>
      <trkpt lat="42.99288" lon="-0.70462">
        <ele>1169.6261204008</ele>
        <time>2014-02-02T11:06:53Z</time>
      </trkpt>
      <trkpt lat="42.99285" lon="-0.70465">
        <ele>1173.1542387923</ele>
        <time>2014-02-02T11:06:58Z</time>
      </trkpt>
      <trkpt lat="42.99282" lon="-0.70468">
        <ele>1173.1542387923</ele>
        <time>2014-02-02T11:07:03Z</time>
      </trkpt>
      <trkpt lat="42.99279" lon="-0.70471">
        <ele>1173.1542387923</ele>
        <time>2014-02-02T11:07:08Z</time>
      </trkpt>
      <trkpt lat="42.99277" lon="-0.70474">
        <ele>1176.4030757403</ele>
        <time>2014-02-02T11:07:13Z</time>
      </trkpt>
      <trkpt lat="42.99275" lon="-0.70474">
        <ele>1176.4030757403</ele>
        <time>2014-02-02T11:07:19Z</time>
      </trkpt>
      <trkpt lat="42.99271" lon="-0.70476">
        <ele>1176.4030757403</ele>
        <time>2014-02-02T11:07:24Z</time>
      </trkpt>
      <trkpt lat="42.99266" lon="-0.70478">
        <ele>1179.3883744458</ele>
        <time>2014-02-02T11:07:29Z</time>
      </trkpt>
      <trkpt lat="42.99262" lon="-0.7048">
        <ele>1179.3883744458</ele>
        <time>2014-02-02T11:07:34Z</time>
      </trkpt>
      <trkpt lat="42.99259" lon="-0.70482">
        <ele>1179.3883744458</ele>
        <time>2014-02-02T11:07:39Z</time>
      </trkpt>
      <trkpt lat="42.99257" lon="-0.70482">
        <ele>1182.0823625049</ele>
        <time>2014-02-02T11:07:44Z</time>
      </trkpt>
      <trkpt lat="42.99256" lon="-0.70485">
        <ele>1182.0823625049</ele>
        <time>2014-02-02T11:07:49Z</time>
      </trkpt>
      <trkpt lat="42.99257" lon="-0.70485">
        <ele>1182.0823625049</ele>
        <time>2014-02-02T11:07:54Z</time>
      </trkpt>
      <trkpt lat="42.99254" lon="-0.70484">
        <ele>1182.0823625049</ele>
        <time>2014-02-02T11:07:58Z</time>
      </trkpt>
      <trkpt lat="42.99252" lon="-0.70485">
        <ele>1182.0823625049</ele>
        <time>2014-02-02T11:08:03Z</time>
      </trkpt>
      <trkpt lat="42.99249" lon="-0.7049">
        <ele>1184.820539891</ele>
        <time>2014-02-02T11:08:09Z</time>
      </trkpt>
      <trkpt lat="42.99248" lon="-0.70495">
        <ele>1184.820539891</ele>
        <time>2014-02-02T11:08:13Z</time>
      </trkpt>
      <trkpt lat="42.99243" lon="-0.70495">
        <ele>1187.5102622152</ele>
        <time>2014-02-02T11:08:19Z</time>
      </trkpt>
      <trkpt lat="42.99237" lon="-0.70486">
        <ele>1187.5102622152</ele>
        <time>2014-02-02T11:10:18Z</time>
      </trkpt>
      <trkpt lat="42.99237" lon="-0.70499">
        <ele>1192.1123447924</ele>
        <time>2014-02-02T11:11:38Z</time>
      </trkpt>
      <trkpt lat="42.99235" lon="-0.70487">
        <ele>1192.1123447924</ele>
        <time>2014-02-02T11:16:24Z</time>
      </trkpt>
      <trkpt lat="42.99236" lon="-0.70488">
        <ele>1196.648214179</ele>
        <time>2014-02-02T11:16:29Z</time>
      </trkpt>
      <trkpt lat="42.99233" lon="-0.70494">
        <ele>1196.648214179</ele>
        <time>2014-02-02T11:17:34Z</time>
      </trkpt>
      <trkpt lat="42.99229" lon="-0.70496">
        <ele>1200.5963873967</ele>
        <time>2014-02-02T11:17:39Z</time>
      </trkpt>
      <trkpt lat="42.99226" lon="-0.70496">
        <ele>1200.5963873967</ele>
        <time>2014-02-02T11:17:44Z</time>
      </trkpt>
      <trkpt lat="42.99224" lon="-0.70496">
        <ele>1200.5963873967</ele>
        <time>2014-02-02T11:17:48Z</time>
      </trkpt>
      <trkpt lat="42.99223" lon="-0.70496">
        <ele>1200.5963873967</ele>
        <time>2014-02-02T11:17:53Z</time>
      </trkpt>
      <trkpt lat="42.99218" lon="-0.70496">
        <ele>1204.4410378593</ele>
        <time>2014-02-02T11:18:08Z</time>
      </trkpt>
      <trkpt lat="42.99215" lon="-0.70496">
        <ele>1204.4410378593</ele>
        <time>2014-02-02T11:18:13Z</time>
      </trkpt>
      <trkpt lat="42.99213" lon="-0.70498">
        <ele>1204.4410378593</ele>
        <time>2014-02-02T11:18:18Z</time>
      </trkpt>
      <trkpt lat="42.99213" lon="-0.70498">
        <ele>1204.4410378593</ele>
        <time>2014-02-02T11:18:24Z</time>
      </trkpt>
      <trkpt lat="42.9921" lon="-0.70499">
        <ele>1204.4410378593</ele>
        <time>2014-02-02T11:18:29Z</time>
      </trkpt>
      <trkpt lat="42.99211" lon="-0.70499">
        <ele>1208.112423532</ele>
        <time>2014-02-02T11:18:34Z</time>
      </trkpt>
      <trkpt lat="42.99207" lon="-0.70499">
        <ele>1208.112423532</ele>
        <time>2014-02-02T11:18:39Z</time>
      </trkpt>
      <trkpt lat="42.99204" lon="-0.70497">
        <ele>1208.112423532</ele>
        <time>2014-02-02T11:18:44Z</time>
      </trkpt>
      <trkpt lat="42.992" lon="-0.70495">
        <ele>1211.5609883627</ele>
        <time>2014-02-02T11:18:49Z</time>
      </trkpt>
      <trkpt lat="42.99197" lon="-0.70495">
        <ele>1211.5609883627</ele>
        <time>2014-02-02T11:18:54Z</time>
      </trkpt>
      <trkpt lat="42.99195" lon="-0.70498">
        <ele>1211.5609883627</ele>
        <time>2014-02-02T11:18:58Z</time>
      </trkpt>
      <trkpt lat="42.99193" lon="-0.70501">
        <ele>1214.79925289</ele>
        <time>2014-02-02T11:19:04Z</time>
      </trkpt>
      <trkpt lat="42.99192" lon="-0.705">
        <ele>1214.79925289</ele>
        <time>2014-02-02T11:19:08Z</time>
      </trkpt>
      <trkpt lat="42.9919" lon="-0.70499">
        <ele>1214.79925289</ele>
        <time>2014-02-02T11:19:14Z</time>
      </trkpt>
      <trkpt lat="42.9919" lon="-0.70498">
        <ele>1214.79925289</ele>
        <time>2014-02-02T11:19:18Z</time>
      </trkpt>
      <trkpt lat="42.99188" lon="-0.70495">
        <ele>1214.79925289</ele>
        <time>2014-02-02T11:19:49Z</time>
      </trkpt>
      <trkpt lat="42.99185" lon="-0.70493">
        <ele>1218.0269183281</ele>
        <time>2014-02-02T11:19:54Z</time>
      </trkpt>
      <trkpt lat="42.99181" lon="-0.70492">
        <ele>1218.0269183281</ele>
        <time>2014-02-02T11:19:58Z</time>
      </trkpt>
      <trkpt lat="42.99178" lon="-0.70494">
        <ele>1218.0269183281</ele>
        <time>2014-02-02T11:20:04Z</time>
      </trkpt>
      <trkpt lat="42.99174" lon="-0.70495">
        <ele>1220.9536417986</ele>
        <time>2014-02-02T11:20:09Z</time>
      </trkpt>
      <trkpt lat="42.99173" lon="-0.70496">
        <ele>1220.9536417986</ele>
        <time>2014-02-02T11:20:13Z</time>
      </trkpt>
      <trkpt lat="42.99172" lon="-0.70497">
        <ele>1220.9536417986</ele>
        <time>2014-02-02T11:20:19Z</time>
      </trkpt>
      <trkpt lat="42.99171" lon="-0.70502">
        <ele>1220.9536417986</ele>
        <time>2014-02-02T11:20:24Z</time>
      </trkpt>
      <trkpt lat="42.99171" lon="-0.70503">
        <ele>1220.9536417986</ele>
        <time>2014-02-02T11:20:28Z</time>
      </trkpt>
      <trkpt lat="42.99166" lon="-0.70501">
        <ele>1224.3057798619</ele>
        <time>2014-02-02T11:21:33Z</time>
      </trkpt>
      <trkpt lat="42.99165" lon="-0.70499">
        <ele>1224.3057798619</ele>
        <time>2014-02-02T11:21:38Z</time>
      </trkpt>
      <trkpt lat="42.99161" lon="-0.70498">
        <ele>1224.3057798619</ele>
        <time>2014-02-02T11:22:09Z</time>
      </trkpt>
      <trkpt lat="42.99158" lon="-0.705">
        <ele>1224.3057798619</ele>
        <time>2014-02-02T11:22:13Z</time>
      </trkpt>
      <trkpt lat="42.99158" lon="-0.70501">
        <ele>1227.8473931678</ele>
        <time>2014-02-02T11:22:19Z</time>
      </trkpt>
      <trkpt lat="42.99155" lon="-0.705">
        <ele>1227.8473931678</ele>
        <time>2014-02-02T11:22:29Z</time>
      </trkpt>
      <trkpt lat="42.99155" lon="-0.70499">
        <ele>1227.8473931678</ele>
        <time>2014-02-02T11:22:33Z</time>
      </trkpt>
      <trkpt lat="42.99155" lon="-0.705">
        <ele>1227.8473931678</ele>
        <time>2014-02-02T11:22:53Z</time>
      </trkpt>
      <trkpt lat="42.99155" lon="-0.705">
        <ele>1227.8473931678</ele>
        <time>2014-02-02T11:22:59Z</time>
      </trkpt>
      <trkpt lat="42.99151" lon="-0.70488">
        <ele>1231.7341848428</ele>
        <time>2014-02-02T11:23:48Z</time>
      </trkpt>
      <trkpt lat="42.9915" lon="-0.70487">
        <ele>1231.7341848428</ele>
        <time>2014-02-02T11:23:54Z</time>
      </trkpt>
      <trkpt lat="42.99156" lon="-0.705">
        <ele>1235.3890466625</ele>
        <time>2014-02-02T11:24:58Z</time>
      </trkpt>
      <trkpt lat="42.99156" lon="-0.70501">
        <ele>1235.3890466625</ele>
        <time>2014-02-02T11:25:03Z</time>
      </trkpt>
      <trkpt lat="42.99153" lon="-0.70499">
        <ele>1235.3890466625</ele>
        <time>2014-02-02T11:26:03Z</time>
      </trkpt>
      <trkpt lat="42.99151" lon="-0.70499">
        <ele>1235.3890466625</ele>
        <time>2014-02-02T11:26:08Z</time>
      </trkpt>
      <trkpt lat="42.99149" lon="-0.70498">
        <ele>1235.3890466625</ele>
        <time>2014-02-02T11:26:14Z</time>
      </trkpt>
      <trkpt lat="42.99146" lon="-0.70494">
        <ele>1238.7968645387</ele>
        <time>2014-02-02T11:26:18Z</time>
      </trkpt>
      <trkpt lat="42.99146" lon="-0.70494">
        <ele>1238.7968645387</ele>
        <time>2014-02-02T11:26:24Z</time>
      </trkpt>
      <trkpt lat="42.99143" lon="-0.70491">
        <ele>1238.7968645387</ele>
        <time>2014-02-02T11:26:28Z</time>
      </trkpt>
      <trkpt lat="42.99142" lon="-0.70491">
        <ele>1238.7968645387</ele>
        <time>2014-02-02T11:26:34Z</time>
      </trkpt>
      <trkpt lat="42.99139" lon="-0.70491">
        <ele>1238.7968645387</ele>
        <time>2014-02-02T11:26:43Z</time>
      </trkpt>
      <trkpt lat="42.99136" lon="-0.70489">
        <ele>1241.9732969543</ele>
        <time>2014-02-02T11:26:49Z</time>
      </trkpt>
      <trkpt lat="42.99134" lon="-0.70488">
        <ele>1241.9732969543</ele>
        <time>2014-02-02T11:26:53Z</time>
      </trkpt>
      <trkpt lat="42.99133" lon="-0.70487">
        <ele>1241.9732969543</ele>
        <time>2014-02-02T11:26:58Z</time>
      </trkpt>
      <trkpt lat="42.99133" lon="-0.70487">
        <ele>1241.9732969543</ele>
        <time>2014-02-02T11:27:04Z</time>
      </trkpt>
      <trkpt lat="42.99133" lon="-0.70482">
        <ele>1241.9732969543</ele>
        <time>2014-02-02T11:27:25Z</time>
      </trkpt>
      <trkpt lat="42.99132" lon="-0.70481">
        <ele>1241.9732969543</ele>
        <time>2014-02-02T11:27:28Z</time>
      </trkpt>
      <trkpt lat="42.99123" lon="-0.70486">
        <ele>1245.2218674896</ele>
        <time>2014-02-02T11:27:48Z</time>
      </trkpt>
      <trkpt lat="42.99122" lon="-0.70489">
        <ele>1245.2218674896</ele>
        <time>2014-02-02T11:27:53Z</time>
      </trkpt>
      <trkpt lat="42.99117" lon="-0.70488">
        <ele>1245.2218674896</ele>
        <time>2014-02-02T11:28:18Z</time>
      </trkpt>
      <trkpt lat="42.99115" lon="-0.70483">
        <ele>1248.261706147</ele>
        <time>2014-02-02T11:28:23Z</time>
      </trkpt>
      <trkpt lat="42.99113" lon="-0.7048">
        <ele>1248.261706147</ele>
        <time>2014-02-02T11:28:28Z</time>
      </trkpt>
      <trkpt lat="42.99112" lon="-0.70479">
        <ele>1248.261706147</ele>
        <time>2014-02-02T11:28:33Z</time>
      </trkpt>
      <trkpt lat="42.9911" lon="-0.70476">
        <ele>1248.261706147</ele>
        <time>2014-02-02T11:28:38Z</time>
      </trkpt>
      <trkpt lat="42.99108" lon="-0.70474">
        <ele>1251.0062271233</ele>
        <time>2014-02-02T11:28:44Z</time>
      </trkpt>
      <trkpt lat="42.99107" lon="-0.70473">
        <ele>1251.0062271233</ele>
        <time>2014-02-02T11:28:49Z</time>
      </trkpt>
      <trkpt lat="42.99106" lon="-0.70473">
        <ele>1251.0062271233</ele>
        <time>2014-02-02T11:28:54Z</time>
      </trkpt>
      <trkpt lat="42.99099" lon="-0.70466">
        <ele>1253.5635032123</ele>
        <time>2014-02-02T11:29:08Z</time>
      </trkpt>
      <trkpt lat="42.99097" lon="-0.70464">
        <ele>1253.5635032123</ele>
        <time>2014-02-02T11:29:14Z</time>
      </trkpt>
      <trkpt lat="42.99095" lon="-0.70462">
        <ele>1253.5635032123</ele>
        <time>2014-02-02T11:29:19Z</time>
      </trkpt>
      <trkpt lat="42.99093" lon="-0.70463">
        <ele>1253.5635032123</ele>
        <time>2014-02-02T11:29:24Z</time>
      </trkpt>
      <trkpt lat="42.99092" lon="-0.7046">
        <ele>1253.5635032123</ele>
        <time>2014-02-02T11:29:28Z</time>
      </trkpt>
      <trkpt lat="42.9909" lon="-0.70457">
        <ele>1256.048721013</ele>
        <time>2014-02-02T11:29:34Z</time>
      </trkpt>
      <trkpt lat="42.99089" lon="-0.70452">
        <ele>1256.048721013</ele>
        <time>2014-02-02T11:29:39Z</time>
      </trkpt>
      <trkpt lat="42.99089" lon="-0.70452">
        <ele>1256.048721013</ele>
        <time>2014-02-02T11:29:43Z</time>
      </trkpt>
      <trkpt lat="42.99087" lon="-0.70448">
        <ele>1256.048721013</ele>
        <time>2014-02-02T11:29:49Z</time>
      </trkpt>
      <trkpt lat="42.99085" lon="-0.70445">
        <ele>1258.5256809971</ele>
        <time>2014-02-02T11:29:54Z</time>
      </trkpt>
      <trkpt lat="42.99084" lon="-0.70442">
        <ele>1258.5256809971</ele>
        <time>2014-02-02T11:29:59Z</time>
      </trkpt>
      <trkpt lat="42.99082" lon="-0.70439">
        <ele>1258.5256809971</ele>
        <time>2014-02-02T11:30:03Z</time>
      </trkpt>
      <trkpt lat="42.9908" lon="-0.70434">
        <ele>1260.7798048005</ele>
        <time>2014-02-02T11:30:08Z</time>
      </trkpt>
      <trkpt lat="42.99077" lon="-0.70426">
        <ele>1260.7798048005</ele>
        <time>2014-02-02T11:30:14Z</time>
      </trkpt>
      <trkpt lat="42.99077" lon="-0.70426">
        <ele>1260.7798048005</ele>
        <time>2014-02-02T11:30:19Z</time>
      </trkpt>
      <trkpt lat="42.99072" lon="-0.7043">
        <ele>1262.915620343</ele>
        <time>2014-02-02T11:30:33Z</time>
      </trkpt>
      <trkpt lat="42.99071" lon="-0.70431">
        <ele>1262.915620343</ele>
        <time>2014-02-02T11:30:39Z</time>
      </trkpt>
      <trkpt lat="42.99065" lon="-0.70431">
        <ele>1262.915620343</ele>
        <time>2014-02-02T11:30:59Z</time>
      </trkpt>
      <trkpt lat="42.99064" lon="-0.70431">
        <ele>1262.915620343</ele>
        <time>2014-02-02T11:31:03Z</time>
      </trkpt>
      <trkpt lat="42.99057" lon="-0.70421">
        <ele>1265.2465496718</ele>
        <time>2014-02-02T11:31:18Z</time>
      </trkpt>
      <trkpt lat="42.99056" lon="-0.7042">
        <ele>1265.2465496718</ele>
        <time>2014-02-02T11:31:23Z</time>
      </trkpt>
      <trkpt lat="42.99049" lon="-0.7042">
        <ele>1265.2465496718</ele>
        <time>2014-02-02T11:32:04Z</time>
      </trkpt>
      <trkpt lat="42.99047" lon="-0.70422">
        <ele>1268.408375282</ele>
        <time>2014-02-02T11:32:09Z</time>
      </trkpt>
      <trkpt lat="42.99046" lon="-0.70426">
        <ele>1268.408375282</ele>
        <time>2014-02-02T11:32:14Z</time>
      </trkpt>
      <trkpt lat="42.99043" lon="-0.7043">
        <ele>1268.408375282</ele>
        <time>2014-02-02T11:32:19Z</time>
      </trkpt>
      <trkpt lat="42.99043" lon="-0.7043">
        <ele>1268.408375282</ele>
        <time>2014-02-02T11:32:24Z</time>
      </trkpt>
      <trkpt lat="42.99041" lon="-0.7043">
        <ele>1271.3882673102</ele>
        <time>2014-02-02T11:32:28Z</time>
      </trkpt>
      <trkpt lat="42.9904" lon="-0.70428">
        <ele>1271.3882673102</ele>
        <time>2014-02-02T11:32:34Z</time>
      </trkpt>
      <trkpt lat="42.99038" lon="-0.70428">
        <ele>1271.3882673102</ele>
        <time>2014-02-02T11:32:39Z</time>
      </trkpt>
      <trkpt lat="42.99035" lon="-0.7042">
        <ele>1274.1994923474</ele>
        <time>2014-02-02T11:32:43Z</time>
      </trkpt>
      <trkpt lat="42.99032" lon="-0.70419">
        <ele>1274.1994923474</ele>
        <time>2014-02-02T11:32:49Z</time>
      </trkpt>
      <trkpt lat="42.99032" lon="-0.7042">
        <ele>1274.1994923474</ele>
        <time>2014-02-02T11:32:54Z</time>
      </trkpt>
      <trkpt lat="42.99026" lon="-0.7042">
        <ele>1277.2871954657</ele>
        <time>2014-02-02T11:33:44Z</time>
      </trkpt>
      <trkpt lat="42.99024" lon="-0.7042">
        <ele>1277.2871954657</ele>
        <time>2014-02-02T11:33:48Z</time>
      </trkpt>
      <trkpt lat="42.99024" lon="-0.7042">
        <ele>1277.2871954657</ele>
        <time>2014-02-02T11:33:54Z</time>
      </trkpt>
      <trkpt lat="42.99023" lon="-0.70422">
        <ele>1277.2871954657</ele>
        <time>2014-02-02T11:34:18Z</time>
      </trkpt>
      <trkpt lat="42.99022" lon="-0.70419">
        <ele>1277.2871954657</ele>
        <time>2014-02-02T11:34:24Z</time>
      </trkpt>
      <trkpt lat="42.99021" lon="-0.70418">
        <ele>1277.2871954657</ele>
        <time>2014-02-02T11:34:28Z</time>
      </trkpt>
      <trkpt lat="42.99018" lon="-0.70415">
        <ele>1280.4866447896</ele>
        <time>2014-02-02T11:34:33Z</time>
      </trkpt>
      <trkpt lat="42.99017" lon="-0.7041">
        <ele>1280.4866447896</ele>
        <time>2014-02-02T11:34:38Z</time>
      </trkpt>
      <trkpt lat="42.99012" lon="-0.7041">
        <ele>1280.4866447896</ele>
        <time>2014-02-02T11:35:09Z</time>
      </trkpt>
      <trkpt lat="42.9901" lon="-0.70413">
        <ele>1284.2069712269</ele>
        <time>2014-02-02T11:35:13Z</time>
      </trkpt>
      <trkpt lat="42.99008" lon="-0.70414">
        <ele>1284.2069712269</ele>
        <time>2014-02-02T11:35:18Z</time>
      </trkpt>
      <trkpt lat="42.99007" lon="-0.70415">
        <ele>1284.2069712269</ele>
        <time>2014-02-02T11:35:23Z</time>
      </trkpt>
      <trkpt lat="42.99007" lon="-0.70426">
        <ele>1288.6961322897</ele>
        <time>2014-02-02T11:36:43Z</time>
      </trkpt>
      <trkpt lat="42.99008" lon="-0.70429">
        <ele>1288.6961322897</ele>
        <time>2014-02-02T11:36:48Z</time>
      </trkpt>
      <trkpt lat="42.99007" lon="-0.70432">
        <ele>1288.6961322897</ele>
        <time>2014-02-02T11:36:53Z</time>
      </trkpt>
      <trkpt lat="42.99004" lon="-0.70435">
        <ele>1288.6961322897</ele>
        <time>2014-02-02T11:36:59Z</time>
      </trkpt>
      <trkpt lat="42.99002" lon="-0.70439">
        <ele>1292.7262359498</ele>
        <time>2014-02-02T11:37:04Z</time>
      </trkpt>
      <trkpt lat="42.99001" lon="-0.70443">
        <ele>1292.7262359498</ele>
        <time>2014-02-02T11:37:09Z</time>
      </trkpt>
      <trkpt lat="42.98998" lon="-0.70447">
        <ele>1292.7262359498</ele>
        <time>2014-02-02T11:37:13Z</time>
      </trkpt>
      <trkpt lat="42.98998" lon="-0.70451">
        <ele>1296.4291051173</ele>
        <time>2014-02-02T11:37:19Z</time>
      </trkpt>
      <trkpt lat="42.98997" lon="-0.70455">
        <ele>1296.4291051173</ele>
        <time>2014-02-02T11:37:23Z</time>
      </trkpt>
      <trkpt lat="42.98995" lon="-0.70458">
        <ele>1296.4291051173</ele>
        <time>2014-02-02T11:37:29Z</time>
      </trkpt>
      <trkpt lat="42.98995" lon="-0.70458">
        <ele>1296.4291051173</ele>
        <time>2014-02-02T11:37:33Z</time>
      </trkpt>
      <trkpt lat="42.98994" lon="-0.70465">
        <ele>1299.8990272406</ele>
        <time>2014-02-02T11:37:43Z</time>
      </trkpt>
      <trkpt lat="42.98993" lon="-0.7047">
        <ele>1299.8990272406</ele>
        <time>2014-02-02T11:37:49Z</time>
      </trkpt>
      <trkpt lat="42.98991" lon="-0.70473">
        <ele>1299.8990272406</ele>
        <time>2014-02-02T11:37:54Z</time>
      </trkpt>
      <trkpt lat="42.9899" lon="-0.70476">
        <ele>1299.8990272406</ele>
        <time>2014-02-02T11:37:58Z</time>
      </trkpt>
      <trkpt lat="42.98988" lon="-0.70479">
        <ele>1303.0799601706</ele>
        <time>2014-02-02T11:38:04Z</time>
      </trkpt>
      <trkpt lat="42.98987" lon="-0.70482">
        <ele>1303.0799601706</ele>
        <time>2014-02-02T11:38:09Z</time>
      </trkpt>
      <trkpt lat="42.98985" lon="-0.70486">
        <ele>1303.0799601706</ele>
        <time>2014-02-02T11:38:13Z</time>
      </trkpt>
      <trkpt lat="42.98983" lon="-0.70487">
        <ele>1303.0799601706</ele>
        <time>2014-02-02T11:38:18Z</time>
      </trkpt>
      <trkpt lat="42.98979" lon="-0.70493">
        <ele>1306.1081874352</ele>
        <time>2014-02-02T11:38:23Z</time>
      </trkpt>
      <trkpt lat="42.98978" lon="-0.70495">
        <ele>1306.1081874352</ele>
        <time>2014-02-02T11:38:29Z</time>
      </trkpt>
      <trkpt lat="42.98977" lon="-0.70492">
        <ele>1306.1081874352</ele>
        <time>2014-02-02T11:38:38Z</time>
      </trkpt>
      <trkpt lat="42.98977" lon="-0.7049">
        <ele>1306.1081874352</ele>
        <time>2014-02-02T11:38:43Z</time>
      </trkpt>
      <trkpt lat="42.98976" lon="-0.70487">
        <ele>1306.1081874352</ele>
        <time>2014-02-02T11:38:49Z</time>
      </trkpt>
      <trkpt lat="42.98975" lon="-0.70485">
        <ele>1308.9375269587</ele>
        <time>2014-02-02T11:38:53Z</time>
      </trkpt>
      <trkpt lat="42.98974" lon="-0.7048">
        <ele>1308.9375269587</ele>
        <time>2014-02-02T11:38:59Z</time>
      </trkpt>
      <trkpt lat="42.98974" lon="-0.70477">
        <ele>1308.9375269587</ele>
        <time>2014-02-02T11:39:03Z</time>
      </trkpt>
      <trkpt lat="42.98973" lon="-0.70475">
        <ele>1308.9375269587</ele>
        <time>2014-02-02T11:39:09Z</time>
      </trkpt>
      <trkpt lat="42.98972" lon="-0.70474">
        <ele>1308.9375269587</ele>
        <time>2014-02-02T11:39:13Z</time>
      </trkpt>
      <trkpt lat="42.98971" lon="-0.70473">
        <ele>1311.5402042405</ele>
        <time>2014-02-02T11:39:19Z</time>
      </trkpt>
      <trkpt lat="42.98971" lon="-0.70472">
        <ele>1311.5402042405</ele>
        <time>2014-02-02T11:39:23Z</time>
      </trkpt>
      <trkpt lat="42.9897" lon="-0.70465">
        <ele>1311.5402042405</ele>
        <time>2014-02-02T11:39:33Z</time>
      </trkpt>
      <trkpt lat="42.98969" lon="-0.70462">
        <ele>1311.5402042405</ele>
        <time>2014-02-02T11:39:40Z</time>
      </trkpt>
      <trkpt lat="42.98967" lon="-0.70457">
        <ele>1313.8623383225</ele>
        <time>2014-02-02T11:39:43Z</time>
      </trkpt>
      <trkpt lat="42.98967" lon="-0.70453">
        <ele>1313.8623383225</ele>
        <time>2014-02-02T11:39:49Z</time>
      </trkpt>
      <trkpt lat="42.98966" lon="-0.7045">
        <ele>1313.8623383225</ele>
        <time>2014-02-02T11:39:53Z</time>
      </trkpt>
      <trkpt lat="42.98965" lon="-0.70448">
        <ele>1313.8623383225</ele>
        <time>2014-02-02T11:39:59Z</time>
      </trkpt>
      <trkpt lat="42.98964" lon="-0.70444">
        <ele>1315.9989363179</ele>
        <time>2014-02-02T11:40:03Z</time>
      </trkpt>
      <trkpt lat="42.98962" lon="-0.70443">
        <ele>1315.9989363179</ele>
        <time>2014-02-02T11:40:08Z</time>
      </trkpt>
      <trkpt lat="42.98961" lon="-0.70438">
        <ele>1315.9989363179</ele>
        <time>2014-02-02T11:40:13Z</time>
      </trkpt>
      <trkpt lat="42.9896" lon="-0.70436">
        <ele>1315.9989363179</ele>
        <time>2014-02-02T11:40:19Z</time>
      </trkpt>
      <trkpt lat="42.98959" lon="-0.70432">
        <ele>1317.9521026274</ele>
        <time>2014-02-02T11:40:23Z</time>
      </trkpt>
      <trkpt lat="42.98958" lon="-0.70426">
        <ele>1317.9521026274</ele>
        <time>2014-02-02T11:40:29Z</time>
      </trkpt>
      <trkpt lat="42.98957" lon="-0.70423">
        <ele>1317.9521026274</ele>
        <time>2014-02-02T11:40:33Z</time>
      </trkpt>
      <trkpt lat="42.98956" lon="-0.70423">
        <ele>1317.9521026274</ele>
        <time>2014-02-02T11:40:38Z</time>
      </trkpt>
      <trkpt lat="42.98955" lon="-0.7042">
        <ele>1319.7819585448</ele>
        <time>2014-02-02T11:40:43Z</time>
      </trkpt>
      <trkpt lat="42.98953" lon="-0.70415">
        <ele>1319.7819585448</ele>
        <time>2014-02-02T11:40:48Z</time>
      </trkpt>
      <trkpt lat="42.98953" lon="-0.70412">
        <ele>1319.7819585448</ele>
        <time>2014-02-02T11:40:53Z</time>
      </trkpt>
      <trkpt lat="42.98953" lon="-0.70407">
        <ele>1321.4292672009</ele>
        <time>2014-02-02T11:40:59Z</time>
      </trkpt>
      <trkpt lat="42.98951" lon="-0.70405">
        <ele>1321.4292672009</ele>
        <time>2014-02-02T11:41:03Z</time>
      </trkpt>
      <trkpt lat="42.9895" lon="-0.70401">
        <ele>1321.4292672009</ele>
        <time>2014-02-02T11:41:09Z</time>
      </trkpt>
      <trkpt lat="42.9895" lon="-0.70397">
        <ele>1321.4292672009</ele>
        <time>2014-02-02T11:41:13Z</time>
      </trkpt>
      <trkpt lat="42.98949" lon="-0.70393">
        <ele>1322.9981674261</ele>
        <time>2014-02-02T11:41:19Z</time>
      </trkpt>
      <trkpt lat="42.98948" lon="-0.70392">
        <ele>1322.9981674261</ele>
        <time>2014-02-02T11:41:23Z</time>
      </trkpt>
      <trkpt lat="42.98948" lon="-0.70389">
        <ele>1322.9981674261</ele>
        <time>2014-02-02T11:41:29Z</time>
      </trkpt>
      <trkpt lat="42.98947" lon="-0.70386">
        <ele>1322.9981674261</ele>
        <time>2014-02-02T11:41:33Z</time>
      </trkpt>
      <trkpt lat="42.98945" lon="-0.70382">
        <ele>1324.5709351467</ele>
        <time>2014-02-02T11:41:39Z</time>
      </trkpt>
      <trkpt lat="42.98942" lon="-0.70376">
        <ele>1324.5709351467</ele>
        <time>2014-02-02T11:41:43Z</time>
      </trkpt>
      <trkpt lat="42.98939" lon="-0.70375">
        <ele>1324.5709351467</ele>
        <time>2014-02-02T11:41:49Z</time>
      </trkpt>
      <trkpt lat="42.98934" lon="-0.70372">
        <ele>1326.3246365471</ele>
        <time>2014-02-02T11:41:53Z</time>
      </trkpt>
      <trkpt lat="42.98928" lon="-0.7037">
        <ele>1326.3246365471</ele>
        <time>2014-02-02T11:41:59Z</time>
      </trkpt>
      <trkpt lat="42.98926" lon="-0.70371">
        <ele>1326.3246365471</ele>
        <time>2014-02-02T11:42:03Z</time>
      </trkpt>
      <trkpt lat="42.98926" lon="-0.70374">
        <ele>1328.1345578354</ele>
        <time>2014-02-02T11:42:08Z</time>
      </trkpt>
      <trkpt lat="42.98925" lon="-0.70377">
        <ele>1328.1345578354</ele>
        <time>2014-02-02T11:42:13Z</time>
      </trkpt>
      <trkpt lat="42.98925" lon="-0.70379">
        <ele>1328.1345578354</ele>
        <time>2014-02-02T11:42:18Z</time>
      </trkpt>
      <trkpt lat="42.98925" lon="-0.7038">
        <ele>1328.1345578354</ele>
        <time>2014-02-02T11:42:23Z</time>
      </trkpt>
      <trkpt lat="42.98925" lon="-0.70384">
        <ele>1328.1345578354</ele>
        <time>2014-02-02T11:42:29Z</time>
      </trkpt>
      <trkpt lat="42.98924" lon="-0.70387">
        <ele>1330.1155153186</ele>
        <time>2014-02-02T11:42:33Z</time>
      </trkpt>
      <trkpt lat="42.98923" lon="-0.70391">
        <ele>1330.1155153186</ele>
        <time>2014-02-02T11:42:38Z</time>
      </trkpt>
      <trkpt lat="42.98922" lon="-0.70393">
        <ele>1330.1155153186</ele>
        <time>2014-02-02T11:42:43Z</time>
      </trkpt>
      <trkpt lat="42.98918" lon="-0.704">
        <ele>1332.0563080079</ele>
        <time>2014-02-02T11:42:53Z</time>
      </trkpt>
      <trkpt lat="42.98916" lon="-0.70404">
        <ele>1332.0563080079</ele>
        <time>2014-02-02T11:42:58Z</time>
      </trkpt>
      <trkpt lat="42.98915" lon="-0.70407">
        <ele>1332.0563080079</ele>
        <time>2014-02-02T11:43:03Z</time>
      </trkpt>
      <trkpt lat="42.98915" lon="-0.70407">
        <ele>1332.0563080079</ele>
        <time>2014-02-02T11:43:09Z</time>
      </trkpt>
      <trkpt lat="42.9891" lon="-0.70415">
        <ele>1333.9198201151</ele>
        <time>2014-02-02T11:43:13Z</time>
      </trkpt>
      <trkpt lat="42.98908" lon="-0.70417">
        <ele>1333.9198201151</ele>
        <time>2014-02-02T11:43:18Z</time>
      </trkpt>
      <trkpt lat="42.98905" lon="-0.7042">
        <ele>1333.9198201151</ele>
        <time>2014-02-02T11:43:23Z</time>
      </trkpt>
      <trkpt lat="42.98905" lon="-0.70423">
        <ele>1335.6285760681</ele>
        <time>2014-02-02T11:43:29Z</time>
      </trkpt>
      <trkpt lat="42.98903" lon="-0.70426">
        <ele>1335.6285760681</ele>
        <time>2014-02-02T11:43:33Z</time>
      </trkpt>
      <trkpt lat="42.98902" lon="-0.70429">
        <ele>1335.6285760681</ele>
        <time>2014-02-02T11:43:39Z</time>
      </trkpt>
      <trkpt lat="42.98903" lon="-0.70433">
        <ele>1335.6285760681</ele>
        <time>2014-02-02T11:43:43Z</time>
      </trkpt>
      <trkpt lat="42.98902" lon="-0.70437">
        <ele>1337.2552621587</ele>
        <time>2014-02-02T11:43:48Z</time>
      </trkpt>
      <trkpt lat="42.98901" lon="-0.7044">
        <ele>1337.2552621587</ele>
        <time>2014-02-02T11:43:54Z</time>
      </trkpt>
      <trkpt lat="42.98899" lon="-0.70442">
        <ele>1337.2552621587</ele>
        <time>2014-02-02T11:43:58Z</time>
      </trkpt>
      <trkpt lat="42.98897" lon="-0.70445">
        <ele>1337.2552621587</ele>
        <time>2014-02-02T11:44:04Z</time>
      </trkpt>
      <trkpt lat="42.98895" lon="-0.7045">
        <ele>1338.7953198853</ele>
        <time>2014-02-02T11:44:09Z</time>
      </trkpt>
      <trkpt lat="42.98895" lon="-0.70455">
        <ele>1338.7953198853</ele>
        <time>2014-02-02T11:44:14Z</time>
      </trkpt>
      <trkpt lat="42.98894" lon="-0.70455">
        <ele>1338.7953198853</ele>
        <time>2014-02-02T11:44:18Z</time>
      </trkpt>
      <trkpt lat="42.98893" lon="-0.70455">
        <ele>1338.7953198853</ele>
        <time>2014-02-02T11:44:24Z</time>
      </trkpt>
      <trkpt lat="42.98889" lon="-0.70459">
        <ele>1340.3311501187</ele>
        <time>2014-02-02T11:44:29Z</time>
      </trkpt>
      <trkpt lat="42.98888" lon="-0.7046">
        <ele>1340.3311501187</ele>
        <time>2014-02-02T11:44:34Z</time>
      </trkpt>
      <trkpt lat="42.98886" lon="-0.70464">
        <ele>1340.3311501187</ele>
        <time>2014-02-02T11:44:39Z</time>
      </trkpt>
      <trkpt lat="42.98886" lon="-0.70468">
        <ele>1340.3311501187</ele>
        <time>2014-02-02T11:44:44Z</time>
      </trkpt>
      <trkpt lat="42.98884" lon="-0.70474">
        <ele>1341.910199937</ele>
        <time>2014-02-02T11:44:54Z</time>
      </trkpt>
      <trkpt lat="42.9888" lon="-0.70478">
        <ele>1341.910199937</ele>
        <time>2014-02-02T11:44:58Z</time>
      </trkpt>
      <trkpt lat="42.98878" lon="-0.70479">
        <ele>1341.910199937</ele>
        <time>2014-02-02T11:45:04Z</time>
      </trkpt>
      <trkpt lat="42.98874" lon="-0.70484">
        <ele>1343.3888700881</ele>
        <time>2014-02-02T11:45:09Z</time>
      </trkpt>
      <trkpt lat="42.9887" lon="-0.70488">
        <ele>1343.3888700881</ele>
        <time>2014-02-02T11:45:14Z</time>
      </trkpt>
      <trkpt lat="42.9887" lon="-0.70489">
        <ele>1343.3888700881</ele>
        <time>2014-02-02T11:45:18Z</time>
      </trkpt>
      <trkpt lat="42.98866" lon="-0.70493">
        <ele>1344.8792811508</ele>
        <time>2014-02-02T11:45:34Z</time>
      </trkpt>
      <trkpt lat="42.98864" lon="-0.70495">
        <ele>1344.8792811508</ele>
        <time>2014-02-02T11:45:38Z</time>
      </trkpt>
      <trkpt lat="42.98863" lon="-0.70496">
        <ele>1344.8792811508</ele>
        <time>2014-02-02T11:45:44Z</time>
      </trkpt>
      <trkpt lat="42.98863" lon="-0.70497">
        <ele>1344.8792811508</ele>
        <time>2014-02-02T11:45:48Z</time>
      </trkpt>
      <trkpt lat="42.9886" lon="-0.70498">
        <ele>1344.8792811508</ele>
        <time>2014-02-02T11:46:18Z</time>
      </trkpt>
      <trkpt lat="42.9886" lon="-0.70497">
        <ele>1344.8792811508</ele>
        <time>2014-02-02T11:46:24Z</time>
      </trkpt>
      <trkpt lat="42.9886" lon="-0.70493">
        <ele>1347.04721591</ele>
        <time>2014-02-02T11:46:29Z</time>
      </trkpt>
      <trkpt lat="42.9886" lon="-0.7049">
        <ele>1347.04721591</ele>
        <time>2014-02-02T11:46:34Z</time>
      </trkpt>
      <trkpt lat="42.98859" lon="-0.70488">
        <ele>1347.04721591</ele>
        <time>2014-02-02T11:46:38Z</time>
      </trkpt>
      <trkpt lat="42.98858" lon="-0.70485">
        <ele>1347.04721591</ele>
        <time>2014-02-02T11:46:44Z</time>
      </trkpt>
      <trkpt lat="42.98858" lon="-0.70484">
        <ele>1347.04721591</ele>
        <time>2014-02-02T11:46:48Z</time>
      </trkpt>
      <trkpt lat="42.98856" lon="-0.70472">
        <ele>1349.6140565149</ele>
        <time>2014-02-02T11:47:23Z</time>
      </trkpt>
      <trkpt lat="42.98856" lon="-0.70469">
        <ele>1349.6140565149</ele>
        <time>2014-02-02T11:47:28Z</time>
      </trkpt>
      <trkpt lat="42.98856" lon="-0.70467">
        <ele>1349.6140565149</ele>
        <time>2014-02-02T11:47:33Z</time>
      </trkpt>
      <trkpt lat="42.98855" lon="-0.7046">
        <ele>1349.6140565149</ele>
        <time>2014-02-02T11:47:48Z</time>
      </trkpt>
      <trkpt lat="42.98855" lon="-0.70458">
        <ele>1352.1474985179</ele>
        <time>2014-02-02T11:47:54Z</time>
      </trkpt>
      <trkpt lat="42.98852" lon="-0.70447">
        <ele>1352.1474985179</ele>
        <time>2014-02-02T11:48:08Z</time>
      </trkpt>
      <trkpt lat="42.98852" lon="-0.70442">
        <ele>1354.5352126402</ele>
        <time>2014-02-02T11:48:13Z</time>
      </trkpt>
      <trkpt lat="42.98851" lon="-0.70442">
        <ele>1354.5352126402</ele>
        <time>2014-02-02T11:48:18Z</time>
      </trkpt>
      <trkpt lat="42.9885" lon="-0.70437">
        <ele>1354.5352126402</ele>
        <time>2014-02-02T11:48:24Z</time>
      </trkpt>
      <trkpt lat="42.98849" lon="-0.70431">
        <ele>1354.5352126402</ele>
        <time>2014-02-02T11:48:28Z</time>
      </trkpt>
      <trkpt lat="42.98849" lon="-0.70428">
        <ele>1356.8607818135</ele>
        <time>2014-02-02T11:48:34Z</time>
      </trkpt>
      <trkpt lat="42.98849" lon="-0.70427">
        <ele>1356.8607818135</ele>
        <time>2014-02-02T11:48:38Z</time>
      </trkpt>
      <trkpt lat="42.98848" lon="-0.70413">
        <ele>1359.2305578299</ele>
        <time>2014-02-02T11:48:58Z</time>
      </trkpt>
      <trkpt lat="42.98847" lon="-0.70411">
        <ele>1359.2305578299</ele>
        <time>2014-02-02T11:49:03Z</time>
      </trkpt>
      <trkpt lat="42.98846" lon="-0.70409">
        <ele>1359.2305578299</ele>
        <time>2014-02-02T11:49:08Z</time>
      </trkpt>
      <trkpt lat="42.98845" lon="-0.70406">
        <ele>1359.2305578299</ele>
        <time>2014-02-02T11:49:14Z</time>
      </trkpt>
      <trkpt lat="42.98845" lon="-0.70406">
        <ele>1359.2305578299</ele>
        <time>2014-02-02T11:49:18Z</time>
      </trkpt>
      <trkpt lat="42.98844" lon="-0.70402">
        <ele>1361.6996394798</ele>
        <time>2014-02-02T11:49:23Z</time>
      </trkpt>
      <trkpt lat="42.98842" lon="-0.70396">
        <ele>1361.6996394798</ele>
        <time>2014-02-02T11:49:28Z</time>
      </trkpt>
      <trkpt lat="42.98841" lon="-0.70392">
        <ele>1361.6996394798</ele>
        <time>2014-02-02T11:49:34Z</time>
      </trkpt>
      <trkpt lat="42.9884" lon="-0.70389">
        <ele>1364.0304982306</ele>
        <time>2014-02-02T11:49:38Z</time>
      </trkpt>
      <trkpt lat="42.98838" lon="-0.70388">
        <ele>1364.0304982306</ele>
        <time>2014-02-02T11:49:43Z</time>
      </trkpt>
      <trkpt lat="42.98837" lon="-0.70386">
        <ele>1364.0304982306</ele>
        <time>2014-02-02T11:49:48Z</time>
      </trkpt>
      <trkpt lat="42.98836" lon="-0.70385">
        <ele>1364.0304982306</ele>
        <time>2014-02-02T11:49:54Z</time>
      </trkpt>
      <trkpt lat="42.98829" lon="-0.70374">
        <ele>1366.3348229201</ele>
        <time>2014-02-02T11:50:24Z</time>
      </trkpt>
      <trkpt lat="42.98827" lon="-0.70369">
        <ele>1366.3348229201</ele>
        <time>2014-02-02T11:50:29Z</time>
      </trkpt>
      <trkpt lat="42.98824" lon="-0.70371">
        <ele>1366.3348229201</ele>
        <time>2014-02-02T11:50:34Z</time>
      </trkpt>
      <trkpt lat="42.98823" lon="-0.70375">
        <ele>1368.7161015443</ele>
        <time>2014-02-02T11:50:39Z</time>
      </trkpt>
      <trkpt lat="42.98823" lon="-0.70377">
        <ele>1368.7161015443</ele>
        <time>2014-02-02T11:50:44Z</time>
      </trkpt>
      <trkpt lat="42.98819" lon="-0.70385">
        <ele>1368.7161015443</ele>
        <time>2014-02-02T11:53:18Z</time>
      </trkpt>
      <trkpt lat="42.98819" lon="-0.70388">
        <ele>1372.4228289116</ele>
        <time>2014-02-02T11:53:23Z</time>
      </trkpt>
      <trkpt lat="42.98815" lon="-0.70393">
        <ele>1372.4228289116</ele>
        <time>2014-02-02T11:53:28Z</time>
      </trkpt>
      <trkpt lat="42.98814" lon="-0.70397">
        <ele>1372.4228289116</ele>
        <time>2014-02-02T11:53:33Z</time>
      </trkpt>
      <trkpt lat="42.98814" lon="-0.70402">
        <ele>1375.9419541051</ele>
        <time>2014-02-02T11:53:38Z</time>
      </trkpt>
      <trkpt lat="42.98811" lon="-0.70406">
        <ele>1375.9419541051</ele>
        <time>2014-02-02T11:53:43Z</time>
      </trkpt>
      <trkpt lat="42.98809" lon="-0.7041">
        <ele>1375.9419541051</ele>
        <time>2014-02-02T11:53:49Z</time>
      </trkpt>
      <trkpt lat="42.98807" lon="-0.70415">
        <ele>1379.2266972096</ele>
        <time>2014-02-02T11:53:54Z</time>
      </trkpt>
      <trkpt lat="42.98806" lon="-0.70418">
        <ele>1379.2266972096</ele>
        <time>2014-02-02T11:53:59Z</time>
      </trkpt>
      <trkpt lat="42.98804" lon="-0.70421">
        <ele>1379.2266972096</ele>
        <time>2014-02-02T11:54:03Z</time>
      </trkpt>
      <trkpt lat="42.98803" lon="-0.70424">
        <ele>1379.2266972096</ele>
        <time>2014-02-02T11:54:08Z</time>
      </trkpt>
      <trkpt lat="42.98801" lon="-0.70426">
        <ele>1382.2775677136</ele>
        <time>2014-02-02T11:54:13Z</time>
      </trkpt>
      <trkpt lat="42.98799" lon="-0.70431">
        <ele>1382.2775677136</ele>
        <time>2014-02-02T11:54:18Z</time>
      </trkpt>
      <trkpt lat="42.98796" lon="-0.70434">
        <ele>1382.2775677136</ele>
        <time>2014-02-02T11:54:25Z</time>
      </trkpt>
      <trkpt lat="42.98793" lon="-0.70438">
        <ele>1385.0956656328</ele>
        <time>2014-02-02T11:54:29Z</time>
      </trkpt>
      <trkpt lat="42.98791" lon="-0.70441">
        <ele>1385.0956656328</ele>
        <time>2014-02-02T11:54:33Z</time>
      </trkpt>
      <trkpt lat="42.98791" lon="-0.7044">
        <ele>1385.0956656328</ele>
        <time>2014-02-02T11:54:38Z</time>
      </trkpt>
      <trkpt lat="42.98792" lon="-0.70433">
        <ele>1387.682642224</ele>
        <time>2014-02-02T11:54:48Z</time>
      </trkpt>
      <trkpt lat="42.98791" lon="-0.70431">
        <ele>1387.682642224</ele>
        <time>2014-02-02T11:54:53Z</time>
      </trkpt>
      <trkpt lat="42.98791" lon="-0.70429">
        <ele>1387.682642224</ele>
        <time>2014-02-02T11:54:58Z</time>
      </trkpt>
      <trkpt lat="42.9879" lon="-0.70428">
        <ele>1387.682642224</ele>
        <time>2014-02-02T11:55:03Z</time>
      </trkpt>
      <trkpt lat="42.9879" lon="-0.70423">
        <ele>1387.682642224</ele>
        <time>2014-02-02T11:55:13Z</time>
      </trkpt>
      <trkpt lat="42.9879" lon="-0.7042">
        <ele>1390.2856489906</ele>
        <time>2014-02-02T11:55:18Z</time>
      </trkpt>
      <trkpt lat="42.98789" lon="-0.70416">
        <ele>1390.2856489906</ele>
        <time>2014-02-02T11:55:23Z</time>
      </trkpt>
      <trkpt lat="42.98788" lon="-0.7041">
        <ele>1390.2856489906</ele>
        <time>2014-02-02T11:55:28Z</time>
      </trkpt>
      <trkpt lat="42.98786" lon="-0.7041">
        <ele>1392.8742245077</ele>
        <time>2014-02-02T11:55:34Z</time>
      </trkpt>
      <trkpt lat="42.98783" lon="-0.7041">
        <ele>1392.8742245077</ele>
        <time>2014-02-02T11:55:38Z</time>
      </trkpt>
      <trkpt lat="42.98781" lon="-0.70411">
        <ele>1392.8742245077</ele>
        <time>2014-02-02T11:55:43Z</time>
      </trkpt>
      <trkpt lat="42.98777" lon="-0.70414">
        <ele>1395.362531163</ele>
        <time>2014-02-02T11:55:49Z</time>
      </trkpt>
      <trkpt lat="42.98774" lon="-0.70416">
        <ele>1395.362531163</ele>
        <time>2014-02-02T11:55:53Z</time>
      </trkpt>
      <trkpt lat="42.98771" lon="-0.70419">
        <ele>1395.362531163</ele>
        <time>2014-02-02T11:55:58Z</time>
      </trkpt>
      <trkpt lat="42.98767" lon="-0.70422">
        <ele>1397.7721877819</ele>
        <time>2014-02-02T11:56:04Z</time>
      </trkpt>
      <trkpt lat="42.98766" lon="-0.70425">
        <ele>1397.7721877819</ele>
        <time>2014-02-02T11:56:08Z</time>
      </trkpt>
      <trkpt lat="42.98765" lon="-0.70424">
        <ele>1397.7721877819</ele>
        <time>2014-02-02T11:56:14Z</time>
      </trkpt>
      <trkpt lat="42.98763" lon="-0.70422">
        <ele>1397.7721877819</ele>
        <time>2014-02-02T11:56:19Z</time>
      </trkpt>
      <trkpt lat="42.98762" lon="-0.70421">
        <ele>1397.7721877819</ele>
        <time>2014-02-02T11:56:24Z</time>
      </trkpt>
      <trkpt lat="42.98763" lon="-0.70419">
        <ele>1397.7721877819</ele>
        <time>2014-02-02T11:56:28Z</time>
      </trkpt>
      <trkpt lat="42.98762" lon="-0.70417">
        <ele>1400.3251945786</ele>
        <time>2014-02-02T11:56:34Z</time>
      </trkpt>
      <trkpt lat="42.98761" lon="-0.70415">
        <ele>1400.3251945786</ele>
        <time>2014-02-02T11:56:39Z</time>
      </trkpt>
      <trkpt lat="42.98759" lon="-0.70412">
        <ele>1400.3251945786</ele>
        <time>2014-02-02T11:56:58Z</time>
      </trkpt>
      <trkpt lat="42.98753" lon="-0.70404">
        <ele>1403.053902943</ele>
        <time>2014-02-02T11:57:19Z</time>
      </trkpt>
      <trkpt lat="42.98749" lon="-0.70397">
        <ele>1403.053902943</ele>
        <time>2014-02-02T11:57:24Z</time>
      </trkpt>
      <trkpt lat="42.98746" lon="-0.70395">
        <ele>1405.5842795989</ele>
        <time>2014-02-02T11:57:29Z</time>
      </trkpt>
      <trkpt lat="42.98743" lon="-0.70395">
        <ele>1405.5842795989</ele>
        <time>2014-02-02T11:57:34Z</time>
      </trkpt>
      <trkpt lat="42.98741" lon="-0.70395">
        <ele>1405.5842795989</ele>
        <time>2014-02-02T11:57:39Z</time>
      </trkpt>
      <trkpt lat="42.9874" lon="-0.70396">
        <ele>1405.5842795989</ele>
        <time>2014-02-02T11:57:44Z</time>
      </trkpt>
      <trkpt lat="42.98737" lon="-0.70396">
        <ele>1407.9738324216</ele>
        <time>2014-02-02T11:57:49Z</time>
      </trkpt>
      <trkpt lat="42.98735" lon="-0.70399">
        <ele>1407.9738324216</ele>
        <time>2014-02-02T11:57:54Z</time>
      </trkpt>
      <trkpt lat="42.98732" lon="-0.704">
        <ele>1407.9738324216</ele>
        <time>2014-02-02T11:57:59Z</time>
      </trkpt>
      <trkpt lat="42.9873" lon="-0.70402">
        <ele>1407.9738324216</ele>
        <time>2014-02-02T11:58:04Z</time>
      </trkpt>
      <trkpt lat="42.98727" lon="-0.70403">
        <ele>1410.4347605879</ele>
        <time>2014-02-02T11:58:09Z</time>
      </trkpt>
      <trkpt lat="42.98723" lon="-0.70404">
        <ele>1410.4347605879</ele>
        <time>2014-02-02T11:58:13Z</time>
      </trkpt>
      <trkpt lat="42.9872" lon="-0.70405">
        <ele>1410.4347605879</ele>
        <time>2014-02-02T11:58:19Z</time>
      </trkpt>
      <trkpt lat="42.98717" lon="-0.70405">
        <ele>1412.7887850404</ele>
        <time>2014-02-02T11:58:24Z</time>
      </trkpt>
      <trkpt lat="42.98717" lon="-0.70408">
        <ele>1412.7887850404</ele>
        <time>2014-02-02T11:58:28Z</time>
      </trkpt>
      <trkpt lat="42.98717" lon="-0.70411">
        <ele>1412.7887850404</ele>
        <time>2014-02-02T11:58:34Z</time>
      </trkpt>
      <trkpt lat="42.98714" lon="-0.70412">
        <ele>1412.7887850404</ele>
        <time>2014-02-02T11:58:39Z</time>
      </trkpt>
      <trkpt lat="42.98711" lon="-0.70413">
        <ele>1415.2745334479</ele>
        <time>2014-02-02T11:58:44Z</time>
      </trkpt>
      <trkpt lat="42.98709" lon="-0.70416">
        <ele>1415.2745334479</ele>
        <time>2014-02-02T11:58:49Z</time>
      </trkpt>
      <trkpt lat="42.98709" lon="-0.70416">
        <ele>1415.2745334479</ele>
        <time>2014-02-02T11:58:54Z</time>
      </trkpt>
      <trkpt lat="42.98709" lon="-0.70416">
        <ele>1415.2745334479</ele>
        <time>2014-02-02T11:58:58Z</time>
      </trkpt>
      <trkpt lat="42.98704" lon="-0.70417">
        <ele>1415.2745334479</ele>
        <time>2014-02-02T11:59:29Z</time>
      </trkpt>
      <trkpt lat="42.98701" lon="-0.70418">
        <ele>1418.1559679588</ele>
        <time>2014-02-02T11:59:34Z</time>
      </trkpt>
      <trkpt lat="42.98698" lon="-0.70419">
        <ele>1418.1559679588</ele>
        <time>2014-02-02T11:59:39Z</time>
      </trkpt>
      <trkpt lat="42.98696" lon="-0.70422">
        <ele>1418.1559679588</ele>
        <time>2014-02-02T11:59:44Z</time>
      </trkpt>
      <trkpt lat="42.98692" lon="-0.70424">
        <ele>1420.7974732079</ele>
        <time>2014-02-02T11:59:49Z</time>
      </trkpt>
      <trkpt lat="42.98688" lon="-0.70426">
        <ele>1420.7974732079</ele>
        <time>2014-02-02T11:59:53Z</time>
      </trkpt>
      <trkpt lat="42.98684" lon="-0.70427">
        <ele>1420.7974732079</ele>
        <time>2014-02-02T11:59:59Z</time>
      </trkpt>
      <trkpt lat="42.9868" lon="-0.70428">
        <ele>1423.288123725</ele>
        <time>2014-02-02T12:00:04Z</time>
      </trkpt>
      <trkpt lat="42.98676" lon="-0.7043">
        <ele>1423.288123725</ele>
        <time>2014-02-02T12:00:09Z</time>
      </trkpt>
      <trkpt lat="42.98673" lon="-0.70432">
        <ele>1423.288123725</ele>
        <time>2014-02-02T12:00:14Z</time>
      </trkpt>
      <trkpt lat="42.98669" lon="-0.70435">
        <ele>1425.6532330464</ele>
        <time>2014-02-02T12:00:18Z</time>
      </trkpt>
      <trkpt lat="42.98667" lon="-0.70436">
        <ele>1425.6532330464</ele>
        <time>2014-02-02T12:00:24Z</time>
      </trkpt>
      <trkpt lat="42.98664" lon="-0.70438">
        <ele>1425.6532330464</ele>
        <time>2014-02-02T12:00:29Z</time>
      </trkpt>
      <trkpt lat="42.98662" lon="-0.7044">
        <ele>1425.6532330464</ele>
        <time>2014-02-02T12:00:34Z</time>
      </trkpt>
      <trkpt lat="42.9866" lon="-0.70443">
        <ele>1428.046311822</ele>
        <time>2014-02-02T12:00:39Z</time>
      </trkpt>
      <trkpt lat="42.98657" lon="-0.70444">
        <ele>1428.046311822</ele>
        <time>2014-02-02T12:00:43Z</time>
      </trkpt>
      <trkpt lat="42.98654" lon="-0.70445">
        <ele>1428.046311822</ele>
        <time>2014-02-02T12:00:49Z</time>
      </trkpt>
      <trkpt lat="42.98652" lon="-0.70445">
        <ele>1428.046311822</ele>
        <time>2014-02-02T12:00:54Z</time>
      </trkpt>
      <trkpt lat="42.9865" lon="-0.70446">
        <ele>1430.4365862734</ele>
        <time>2014-02-02T12:00:59Z</time>
      </trkpt>
      <trkpt lat="42.98648" lon="-0.70448">
        <ele>1430.4365862734</ele>
        <time>2014-02-02T12:01:04Z</time>
      </trkpt>
      <trkpt lat="42.98645" lon="-0.70451">
        <ele>1430.4365862734</ele>
        <time>2014-02-02T12:01:09Z</time>
      </trkpt>
      <trkpt lat="42.98641" lon="-0.70453">
        <ele>1432.7379101612</ele>
        <time>2014-02-02T12:01:13Z</time>
      </trkpt>
      <trkpt lat="42.98639" lon="-0.70455">
        <ele>1432.7379101612</ele>
        <time>2014-02-02T12:01:19Z</time>
      </trkpt>
      <trkpt lat="42.98636" lon="-0.70457">
        <ele>1432.7379101612</ele>
        <time>2014-02-02T12:01:24Z</time>
      </trkpt>
      <trkpt lat="42.98634" lon="-0.70457">
        <ele>1432.7379101612</ele>
        <time>2014-02-02T12:01:29Z</time>
      </trkpt>
      <trkpt lat="42.98634" lon="-0.70458">
        <ele>1432.7379101612</ele>
        <time>2014-02-02T12:01:34Z</time>
      </trkpt>
      <trkpt lat="42.98632" lon="-0.70452">
        <ele>1434.9860064691</ele>
        <time>2014-02-02T12:02:53Z</time>
      </trkpt>
      <trkpt lat="42.9863" lon="-0.70452">
        <ele>1434.9860064691</ele>
        <time>2014-02-02T12:02:58Z</time>
      </trkpt>
      <trkpt lat="42.98626" lon="-0.70442">
        <ele>1437.660870012</ele>
        <time>2014-02-02T12:03:13Z</time>
      </trkpt>
      <trkpt lat="42.98625" lon="-0.70438">
        <ele>1437.660870012</ele>
        <time>2014-02-02T12:03:18Z</time>
      </trkpt>
      <trkpt lat="42.98624" lon="-0.70436">
        <ele>1437.660870012</ele>
        <time>2014-02-02T12:03:23Z</time>
      </trkpt>
      <trkpt lat="42.98623" lon="-0.70433">
        <ele>1437.660870012</ele>
        <time>2014-02-02T12:03:28Z</time>
      </trkpt>
      <trkpt lat="42.9862" lon="-0.70429">
        <ele>1440.1252061173</ele>
        <time>2014-02-02T12:03:33Z</time>
      </trkpt>
      <trkpt lat="42.98619" lon="-0.70427">
        <ele>1440.1252061173</ele>
        <time>2014-02-02T12:03:38Z</time>
      </trkpt>
      <trkpt lat="42.98618" lon="-0.70426">
        <ele>1440.1252061173</ele>
        <time>2014-02-02T12:03:43Z</time>
      </trkpt>
      <trkpt lat="42.98616" lon="-0.70428">
        <ele>1440.1252061173</ele>
        <time>2014-02-02T12:03:49Z</time>
      </trkpt>
      <trkpt lat="42.98615" lon="-0.70427">
        <ele>1440.1252061173</ele>
        <time>2014-02-02T12:03:54Z</time>
      </trkpt>
      <trkpt lat="42.98609" lon="-0.70431">
        <ele>1442.7402614858</ele>
        <time>2014-02-02T12:04:23Z</time>
      </trkpt>
      <trkpt lat="42.98609" lon="-0.70432">
        <ele>1442.7402614858</ele>
        <time>2014-02-02T12:04:29Z</time>
      </trkpt>
      <trkpt lat="42.98608" lon="-0.70433">
        <ele>1442.7402614858</ele>
        <time>2014-02-02T12:04:33Z</time>
      </trkpt>
      <trkpt lat="42.98607" lon="-0.70435">
        <ele>1442.7402614858</ele>
        <time>2014-02-02T12:04:39Z</time>
      </trkpt>
      <trkpt lat="42.98607" lon="-0.70438">
        <ele>1442.7402614858</ele>
        <time>2014-02-02T12:04:43Z</time>
      </trkpt>
      <trkpt lat="42.98606" lon="-0.70442">
        <ele>1445.2206472879</ele>
        <time>2014-02-02T12:04:48Z</time>
      </trkpt>
      <trkpt lat="42.98605" lon="-0.70443">
        <ele>1445.2206472879</ele>
        <time>2014-02-02T12:04:54Z</time>
      </trkpt>
      <trkpt lat="42.98602" lon="-0.70445">
        <ele>1445.2206472879</ele>
        <time>2014-02-02T12:04:59Z</time>
      </trkpt>
      <trkpt lat="42.986" lon="-0.70445">
        <ele>1445.2206472879</ele>
        <time>2014-02-02T12:05:03Z</time>
      </trkpt>
      <trkpt lat="42.98599" lon="-0.70445">
        <ele>1445.2206472879</ele>
        <time>2014-02-02T12:05:09Z</time>
      </trkpt>
      <trkpt lat="42.98597" lon="-0.70451">
        <ele>1448.2822769129</ele>
        <time>2014-02-02T12:07:08Z</time>
      </trkpt>
      <trkpt lat="42.98595" lon="-0.70452">
        <ele>1448.2822769129</ele>
        <time>2014-02-02T12:07:13Z</time>
      </trkpt>
      <trkpt lat="42.98593" lon="-0.70454">
        <ele>1448.2822769129</ele>
        <time>2014-02-02T12:07:18Z</time>
      </trkpt>
      <trkpt lat="42.98591" lon="-0.70456">
        <ele>1448.2822769129</ele>
        <time>2014-02-02T12:07:23Z</time>
      </trkpt>
      <trkpt lat="42.98592" lon="-0.70463">
        <ele>1451.1025032875</ele>
        <time>2014-02-02T12:07:28Z</time>
      </trkpt>
      <trkpt lat="42.98592" lon="-0.70466">
        <ele>1451.1025032875</ele>
        <time>2014-02-02T12:07:33Z</time>
      </trkpt>
      <trkpt lat="42.98592" lon="-0.70467">
        <ele>1451.1025032875</ele>
        <time>2014-02-02T12:07:38Z</time>
      </trkpt>
      <trkpt lat="42.98588" lon="-0.7047">
        <ele>1451.1025032875</ele>
        <time>2014-02-02T12:07:43Z</time>
      </trkpt>
      <trkpt lat="42.98586" lon="-0.70472">
        <ele>1453.8565182239</ele>
        <time>2014-02-02T12:07:48Z</time>
      </trkpt>
      <trkpt lat="42.98585" lon="-0.70473">
        <ele>1453.8565182239</ele>
        <time>2014-02-02T12:07:53Z</time>
      </trkpt>
      <trkpt lat="42.98583" lon="-0.70468">
        <ele>1453.8565182239</ele>
        <time>2014-02-02T12:07:58Z</time>
      </trkpt>
      <trkpt lat="42.98582" lon="-0.70464">
        <ele>1453.8565182239</ele>
        <time>2014-02-02T12:08:03Z</time>
      </trkpt>
      <trkpt lat="42.98583" lon="-0.70461">
        <ele>1456.4762620447</ele>
        <time>2014-02-02T12:08:08Z</time>
      </trkpt>
      <trkpt lat="42.98583" lon="-0.70458">
        <ele>1456.4762620447</ele>
        <time>2014-02-02T12:08:13Z</time>
      </trkpt>
      <trkpt lat="42.98584" lon="-0.70453">
        <ele>1456.4762620447</ele>
        <time>2014-02-02T12:08:18Z</time>
      </trkpt>
      <trkpt lat="42.98584" lon="-0.70448">
        <ele>1458.9134742792</ele>
        <time>2014-02-02T12:08:23Z</time>
      </trkpt>
      <trkpt lat="42.98582" lon="-0.70444">
        <ele>1458.9134742792</ele>
        <time>2014-02-02T12:08:28Z</time>
      </trkpt>
      <trkpt lat="42.9858" lon="-0.70442">
        <ele>1458.9134742792</ele>
        <time>2014-02-02T12:08:33Z</time>
      </trkpt>
      <trkpt lat="42.98578" lon="-0.70439">
        <ele>1461.123963628</ele>
        <time>2014-02-02T12:08:38Z</time>
      </trkpt>
      <trkpt lat="42.98577" lon="-0.70437">
        <ele>1461.123963628</ele>
        <time>2014-02-02T12:08:43Z</time>
      </trkpt>
      <trkpt lat="42.98575" lon="-0.70432">
        <ele>1461.123963628</ele>
        <time>2014-02-02T12:08:58Z</time>
      </trkpt>
      <trkpt lat="42.98573" lon="-0.7043">
        <ele>1461.123963628</ele>
        <time>2014-02-02T12:09:03Z</time>
      </trkpt>
      <trkpt lat="42.98572" lon="-0.70428">
        <ele>1463.5285881359</ele>
        <time>2014-02-02T12:09:08Z</time>
      </trkpt>
      <trkpt lat="42.98571" lon="-0.70424">
        <ele>1463.5285881359</ele>
        <time>2014-02-02T12:09:13Z</time>
      </trkpt>
      <trkpt lat="42.98569" lon="-0.70421">
        <ele>1463.5285881359</ele>
        <time>2014-02-02T12:09:18Z</time>
      </trkpt>
      <trkpt lat="42.98567" lon="-0.70418">
        <ele>1465.868254863</ele>
        <time>2014-02-02T12:09:23Z</time>
      </trkpt>
      <trkpt lat="42.98566" lon="-0.70416">
        <ele>1465.868254863</ele>
        <time>2014-02-02T12:09:28Z</time>
      </trkpt>
      <trkpt lat="42.98564" lon="-0.70416">
        <ele>1465.868254863</ele>
        <time>2014-02-02T12:09:33Z</time>
      </trkpt>
      <trkpt lat="42.98558" lon="-0.70412">
        <ele>1468.3498388594</ele>
        <time>2014-02-02T12:09:48Z</time>
      </trkpt>
      <trkpt lat="42.98558" lon="-0.70412">
        <ele>1468.3498388594</ele>
        <time>2014-02-02T12:09:53Z</time>
      </trkpt>
      <trkpt lat="42.98555" lon="-0.70411">
        <ele>1468.3498388594</ele>
        <time>2014-02-02T12:10:13Z</time>
      </trkpt>
      <trkpt lat="42.98553" lon="-0.70411">
        <ele>1468.3498388594</ele>
        <time>2014-02-02T12:10:18Z</time>
      </trkpt>
      <trkpt lat="42.98551" lon="-0.7041">
        <ele>1468.3498388594</ele>
        <time>2014-02-02T12:10:23Z</time>
      </trkpt>
      <trkpt lat="42.98549" lon="-0.70411">
        <ele>1471.0637497595</ele>
        <time>2014-02-02T12:10:28Z</time>
      </trkpt>
      <trkpt lat="42.98548" lon="-0.70414">
        <ele>1471.0637497595</ele>
        <time>2014-02-02T12:10:33Z</time>
      </trkpt>
      <trkpt lat="42.98547" lon="-0.70416">
        <ele>1471.0637497595</ele>
        <time>2014-02-02T12:10:38Z</time>
      </trkpt>
      <trkpt lat="42.98546" lon="-0.70419">
        <ele>1471.0637497595</ele>
        <time>2014-02-02T12:10:43Z</time>
      </trkpt>
      <trkpt lat="42.98544" lon="-0.70421">
        <ele>1473.7184222093</ele>
        <time>2014-02-02T12:10:49Z</time>
      </trkpt>
      <trkpt lat="42.98543" lon="-0.70425">
        <ele>1473.7184222093</ele>
        <time>2014-02-02T12:10:53Z</time>
      </trkpt>
      <trkpt lat="42.98542" lon="-0.70429">
        <ele>1473.7184222093</ele>
        <time>2014-02-02T12:10:58Z</time>
      </trkpt>
      <trkpt lat="42.98541" lon="-0.70432">
        <ele>1473.7184222093</ele>
        <time>2014-02-02T12:11:03Z</time>
      </trkpt>
      <trkpt lat="42.98542" lon="-0.70436">
        <ele>1476.3609274045</ele>
        <time>2014-02-02T12:11:08Z</time>
      </trkpt>
      <trkpt lat="42.98543" lon="-0.70439">
        <ele>1476.3609274045</ele>
        <time>2014-02-02T12:11:13Z</time>
      </trkpt>
      <trkpt lat="42.98542" lon="-0.70442">
        <ele>1476.3609274045</ele>
        <time>2014-02-02T12:11:18Z</time>
      </trkpt>
      <trkpt lat="42.98535" lon="-0.7045">
        <ele>1479.3375552868</ele>
        <time>2014-02-02T12:11:59Z</time>
      </trkpt>
      <trkpt lat="42.98533" lon="-0.70454">
        <ele>1479.3375552868</ele>
        <time>2014-02-02T12:12:04Z</time>
      </trkpt>
      <trkpt lat="42.98531" lon="-0.70456">
        <ele>1479.3375552868</ele>
        <time>2014-02-02T12:12:08Z</time>
      </trkpt>
      <trkpt lat="42.98531" lon="-0.70457">
        <ele>1479.3375552868</ele>
        <time>2014-02-02T12:12:13Z</time>
      </trkpt>
      <trkpt lat="42.98531" lon="-0.70458">
        <ele>1479.3375552868</ele>
        <time>2014-02-02T12:12:18Z</time>
      </trkpt>
      <trkpt lat="42.98529" lon="-0.70463">
        <ele>1482.0459191728</ele>
        <time>2014-02-02T12:12:23Z</time>
      </trkpt>
      <trkpt lat="42.98527" lon="-0.70467">
        <ele>1482.0459191728</ele>
        <time>2014-02-02T12:12:28Z</time>
      </trkpt>
      <trkpt lat="42.98525" lon="-0.7047">
        <ele>1482.0459191728</ele>
        <time>2014-02-02T12:12:34Z</time>
      </trkpt>
      <trkpt lat="42.98526" lon="-0.70477">
        <ele>1484.4906809162</ele>
        <time>2014-02-02T12:12:39Z</time>
      </trkpt>
      <trkpt lat="42.98524" lon="-0.70478">
        <ele>1484.4906809162</ele>
        <time>2014-02-02T12:12:44Z</time>
      </trkpt>
      <trkpt lat="42.98523" lon="-0.70478">
        <ele>1484.4906809162</ele>
        <time>2014-02-02T12:12:48Z</time>
      </trkpt>
      <trkpt lat="42.98524" lon="-0.70486">
        <ele>1484.4906809162</ele>
        <time>2014-02-02T12:13:13Z</time>
      </trkpt>
      <trkpt lat="42.98522" lon="-0.70489">
        <ele>1486.8210224963</ele>
        <time>2014-02-02T12:13:18Z</time>
      </trkpt>
      <trkpt lat="42.98522" lon="-0.70494">
        <ele>1486.8210224963</ele>
        <time>2014-02-02T12:13:24Z</time>
      </trkpt>
      <trkpt lat="42.9852" lon="-0.70496">
        <ele>1486.8210224963</ele>
        <time>2014-02-02T12:13:28Z</time>
      </trkpt>
      <trkpt lat="42.98518" lon="-0.70499">
        <ele>1486.8210224963</ele>
        <time>2014-02-02T12:13:33Z</time>
      </trkpt>
      <trkpt lat="42.98517" lon="-0.70501">
        <ele>1488.8728656835</ele>
        <time>2014-02-02T12:13:39Z</time>
      </trkpt>
      <trkpt lat="42.98516" lon="-0.70503">
        <ele>1488.8728656835</ele>
        <time>2014-02-02T12:13:43Z</time>
      </trkpt>
      <trkpt lat="42.98515" lon="-0.70507">
        <ele>1488.8728656835</ele>
        <time>2014-02-02T12:13:48Z</time>
      </trkpt>
      <trkpt lat="42.98513" lon="-0.70511">
        <ele>1488.8728656835</ele>
        <time>2014-02-02T12:13:54Z</time>
      </trkpt>
      <trkpt lat="42.98512" lon="-0.70514">
        <ele>1490.68231946</ele>
        <time>2014-02-02T12:13:59Z</time>
      </trkpt>
      <trkpt lat="42.98511" lon="-0.70517">
        <ele>1490.68231946</ele>
        <time>2014-02-02T12:14:04Z</time>
      </trkpt>
      <trkpt lat="42.9851" lon="-0.7052">
        <ele>1490.68231946</ele>
        <time>2014-02-02T12:14:09Z</time>
      </trkpt>
      <trkpt lat="42.98509" lon="-0.70523">
        <ele>1490.68231946</ele>
        <time>2014-02-02T12:14:14Z</time>
      </trkpt>
      <trkpt lat="42.98508" lon="-0.70526">
        <ele>1492.2691130239</ele>
        <time>2014-02-02T12:14:18Z</time>
      </trkpt>
      <trkpt lat="42.98505" lon="-0.70529">
        <ele>1492.2691130239</ele>
        <time>2014-02-02T12:14:23Z</time>
      </trkpt>
      <trkpt lat="42.98505" lon="-0.7053">
        <ele>1492.2691130239</ele>
        <time>2014-02-02T12:14:29Z</time>
      </trkpt>
      <trkpt lat="42.98505" lon="-0.7054">
        <ele>1494.1565388009</ele>
        <time>2014-02-02T12:15:04Z</time>
      </trkpt>
      <trkpt lat="42.98503" lon="-0.70542">
        <ele>1494.1565388009</ele>
        <time>2014-02-02T12:15:08Z</time>
      </trkpt>
      <trkpt lat="42.98503" lon="-0.70544">
        <ele>1494.1565388009</ele>
        <time>2014-02-02T12:15:14Z</time>
      </trkpt>
      <trkpt lat="42.98501" lon="-0.70546">
        <ele>1494.1565388009</ele>
        <time>2014-02-02T12:15:18Z</time>
      </trkpt>
      <trkpt lat="42.98499" lon="-0.70548">
        <ele>1495.9639311602</ele>
        <time>2014-02-02T12:15:24Z</time>
      </trkpt>
      <trkpt lat="42.98498" lon="-0.70552">
        <ele>1495.9639311602</ele>
        <time>2014-02-02T12:15:28Z</time>
      </trkpt>
      <trkpt lat="42.98494" lon="-0.70552">
        <ele>1495.9639311602</ele>
        <time>2014-02-02T12:15:33Z</time>
      </trkpt>
      <trkpt lat="42.98491" lon="-0.70553">
        <ele>1497.6270220458</ele>
        <time>2014-02-02T12:15:39Z</time>
      </trkpt>
      <trkpt lat="42.98488" lon="-0.70556">
        <ele>1497.6270220458</ele>
        <time>2014-02-02T12:15:44Z</time>
      </trkpt>
      <trkpt lat="42.98487" lon="-0.70561">
        <ele>1497.6270220458</ele>
        <time>2014-02-02T12:15:48Z</time>
      </trkpt>
      <trkpt lat="42.98489" lon="-0.70565">
        <ele>1499.3028179389</ele>
        <time>2014-02-02T12:15:54Z</time>
      </trkpt>
      <trkpt lat="42.98487" lon="-0.70567">
        <ele>1499.3028179389</ele>
        <time>2014-02-02T12:15:58Z</time>
      </trkpt>
      <trkpt lat="42.98487" lon="-0.7057">
        <ele>1499.3028179389</ele>
        <time>2014-02-02T12:16:04Z</time>
      </trkpt>
      <trkpt lat="42.98485" lon="-0.70572">
        <ele>1499.3028179389</ele>
        <time>2014-02-02T12:16:08Z</time>
      </trkpt>
      <trkpt lat="42.98484" lon="-0.70575">
        <ele>1501.0214441706</ele>
        <time>2014-02-02T12:16:13Z</time>
      </trkpt>
      <trkpt lat="42.98482" lon="-0.70578">
        <ele>1501.0214441706</ele>
        <time>2014-02-02T12:16:19Z</time>
      </trkpt>
      <trkpt lat="42.98479" lon="-0.70579">
        <ele>1501.0214441706</ele>
        <time>2014-02-02T12:16:24Z</time>
      </trkpt>
      <trkpt lat="42.98477" lon="-0.70579">
        <ele>1501.0214441706</ele>
        <time>2014-02-02T12:16:28Z</time>
      </trkpt>
      <trkpt lat="42.98478" lon="-0.70581">
        <ele>1502.8971322009</ele>
        <time>2014-02-02T12:16:33Z</time>
      </trkpt>
      <trkpt lat="42.98477" lon="-0.70583">
        <ele>1502.8971322009</ele>
        <time>2014-02-02T12:16:38Z</time>
      </trkpt>
      <trkpt lat="42.98473" lon="-0.70585">
        <ele>1502.8971322009</ele>
        <time>2014-02-02T12:16:44Z</time>
      </trkpt>
      <trkpt lat="42.98474" lon="-0.70588">
        <ele>1502.8971322009</ele>
        <time>2014-02-02T12:16:49Z</time>
      </trkpt>
      <trkpt lat="42.98472" lon="-0.70591">
        <ele>1504.9487837794</ele>
        <time>2014-02-02T12:16:54Z</time>
      </trkpt>
      <trkpt lat="42.98472" lon="-0.70595">
        <ele>1504.9487837794</ele>
        <time>2014-02-02T12:16:59Z</time>
      </trkpt>
      <trkpt lat="42.98471" lon="-0.70597">
        <ele>1504.9487837794</ele>
        <time>2014-02-02T12:17:04Z</time>
      </trkpt>
      <trkpt lat="42.9847" lon="-0.706">
        <ele>1504.9487837794</ele>
        <time>2014-02-02T12:17:08Z</time>
      </trkpt>
      <trkpt lat="42.98468" lon="-0.70603">
        <ele>1507.1789741074</ele>
        <time>2014-02-02T12:17:14Z</time>
      </trkpt>
      <trkpt lat="42.98466" lon="-0.70607">
        <ele>1507.1789741074</ele>
        <time>2014-02-02T12:17:19Z</time>
      </trkpt>
      <trkpt lat="42.98467" lon="-0.70609">
        <ele>1507.1789741074</ele>
        <time>2014-02-02T12:17:24Z</time>
      </trkpt>
      <trkpt lat="42.98467" lon="-0.70611">
        <ele>1507.1789741074</ele>
        <time>2014-02-02T12:17:29Z</time>
      </trkpt>
      <trkpt lat="42.98463" lon="-0.70612">
        <ele>1509.5319098023</ele>
        <time>2014-02-02T12:17:34Z</time>
      </trkpt>
      <trkpt lat="42.98461" lon="-0.70612">
        <ele>1509.5319098023</ele>
        <time>2014-02-02T12:17:39Z</time>
      </trkpt>
      <trkpt lat="42.98459" lon="-0.70613">
        <ele>1509.5319098023</ele>
        <time>2014-02-02T12:17:44Z</time>
      </trkpt>
      <trkpt lat="42.98458" lon="-0.70613">
        <ele>1509.5319098023</ele>
        <time>2014-02-02T12:17:48Z</time>
      </trkpt>
      <trkpt lat="42.98464" lon="-0.70626">
        <ele>1512.719308696</ele>
        <time>2014-02-02T12:18:58Z</time>
      </trkpt>
      <trkpt lat="42.98464" lon="-0.70626">
        <ele>1512.719308696</ele>
        <time>2014-02-02T12:19:03Z</time>
      </trkpt>
      <trkpt lat="42.9846" lon="-0.7062">
        <ele>1512.719308696</ele>
        <time>2014-02-02T12:19:08Z</time>
      </trkpt>
      <trkpt lat="42.9846" lon="-0.70616">
        <ele>1515.6544914268</ele>
        <time>2014-02-02T12:19:13Z</time>
      </trkpt>
      <trkpt lat="42.98461" lon="-0.70611">
        <ele>1515.6544914268</ele>
        <time>2014-02-02T12:19:18Z</time>
      </trkpt>
      <trkpt lat="42.9846" lon="-0.7061">
        <ele>1515.6544914268</ele>
        <time>2014-02-02T12:19:24Z</time>
      </trkpt>
      <trkpt lat="42.98459" lon="-0.70604">
        <ele>1518.5562341534</ele>
        <time>2014-02-02T12:19:35Z</time>
      </trkpt>
      <trkpt lat="42.98458" lon="-0.70601">
        <ele>1518.5562341534</ele>
        <time>2014-02-02T12:19:38Z</time>
      </trkpt>
      <trkpt lat="42.98456" lon="-0.70598">
        <ele>1518.5562341534</ele>
        <time>2014-02-02T12:19:43Z</time>
      </trkpt>
      <trkpt lat="42.98456" lon="-0.70595">
        <ele>1518.5562341534</ele>
        <time>2014-02-02T12:19:49Z</time>
      </trkpt>
      <trkpt lat="42.98453" lon="-0.7059">
        <ele>1521.2093950794</ele>
        <time>2014-02-02T12:19:54Z</time>
      </trkpt>
      <trkpt lat="42.98451" lon="-0.70587">
        <ele>1521.2093950794</ele>
        <time>2014-02-02T12:19:59Z</time>
      </trkpt>
      <trkpt lat="42.9845" lon="-0.70583">
        <ele>1521.2093950794</ele>
        <time>2014-02-02T12:20:04Z</time>
      </trkpt>
      <trkpt lat="42.98448" lon="-0.70579">
        <ele>1523.7035431965</ele>
        <time>2014-02-02T12:20:09Z</time>
      </trkpt>
      <trkpt lat="42.98447" lon="-0.70575">
        <ele>1523.7035431965</ele>
        <time>2014-02-02T12:20:14Z</time>
      </trkpt>
      <trkpt lat="42.98446" lon="-0.70571">
        <ele>1523.7035431965</ele>
        <time>2014-02-02T12:20:19Z</time>
      </trkpt>
      <trkpt lat="42.98445" lon="-0.70567">
        <ele>1525.9924040496</ele>
        <time>2014-02-02T12:20:24Z</time>
      </trkpt>
      <trkpt lat="42.98447" lon="-0.70567">
        <ele>1525.9924040496</ele>
        <time>2014-02-02T12:20:28Z</time>
      </trkpt>
      <trkpt lat="42.98448" lon="-0.70553">
        <ele>1528.6389380268</ele>
        <time>2014-02-02T12:21:14Z</time>
      </trkpt>
      <trkpt lat="42.98446" lon="-0.70549">
        <ele>1528.6389380268</ele>
        <time>2014-02-02T12:21:18Z</time>
      </trkpt>
      <trkpt lat="42.98444" lon="-0.70546">
        <ele>1528.6389380268</ele>
        <time>2014-02-02T12:21:24Z</time>
      </trkpt>
      <trkpt lat="42.98441" lon="-0.70542">
        <ele>1531.0252632674</ele>
        <time>2014-02-02T12:21:28Z</time>
      </trkpt>
      <trkpt lat="42.98439" lon="-0.70538">
        <ele>1531.0252632674</ele>
        <time>2014-02-02T12:21:33Z</time>
      </trkpt>
      <trkpt lat="42.98438" lon="-0.70534">
        <ele>1531.0252632674</ele>
        <time>2014-02-02T12:21:38Z</time>
      </trkpt>
      <trkpt lat="42.98439" lon="-0.70533">
        <ele>1531.0252632674</ele>
        <time>2014-02-02T12:21:43Z</time>
      </trkpt>
      <trkpt lat="42.98439" lon="-0.70533">
        <ele>1531.0252632674</ele>
        <time>2014-02-02T12:21:49Z</time>
      </trkpt>
      <trkpt lat="42.98435" lon="-0.70525">
        <ele>1533.3001678382</ele>
        <time>2014-02-02T12:22:08Z</time>
      </trkpt>
      <trkpt lat="42.98433" lon="-0.7052">
        <ele>1533.3001678382</ele>
        <time>2014-02-02T12:22:13Z</time>
      </trkpt>
      <trkpt lat="42.9843" lon="-0.70518">
        <ele>1533.3001678382</ele>
        <time>2014-02-02T12:22:18Z</time>
      </trkpt>
      <trkpt lat="42.98428" lon="-0.70515">
        <ele>1535.4000619606</ele>
        <time>2014-02-02T12:22:23Z</time>
      </trkpt>
      <trkpt lat="42.98428" lon="-0.70515">
        <ele>1535.4000619606</ele>
        <time>2014-02-02T12:22:28Z</time>
      </trkpt>
      <trkpt lat="42.98427" lon="-0.70505">
        <ele>1535.4000619606</ele>
        <time>2014-02-02T12:23:08Z</time>
      </trkpt>
      <trkpt lat="42.98425" lon="-0.70501">
        <ele>1537.7276690235</ele>
        <time>2014-02-02T12:23:13Z</time>
      </trkpt>
      <trkpt lat="42.98423" lon="-0.705">
        <ele>1537.7276690235</ele>
        <time>2014-02-02T12:23:18Z</time>
      </trkpt>
      <trkpt lat="42.9842" lon="-0.70497">
        <ele>1537.7276690235</ele>
        <time>2014-02-02T12:23:23Z</time>
      </trkpt>
      <trkpt lat="42.98418" lon="-0.70495">
        <ele>1537.7276690235</ele>
        <time>2014-02-02T12:23:29Z</time>
      </trkpt>
      <trkpt lat="42.98418" lon="-0.70493">
        <ele>1539.949339584</ele>
        <time>2014-02-02T12:23:34Z</time>
      </trkpt>
      <trkpt lat="42.98418" lon="-0.70493">
        <ele>1539.949339584</ele>
        <time>2014-02-02T12:23:39Z</time>
      </trkpt>
      <trkpt lat="42.98414" lon="-0.70489">
        <ele>1539.949339584</ele>
        <time>2014-02-02T12:23:53Z</time>
      </trkpt>
      <trkpt lat="42.98413" lon="-0.70491">
        <ele>1539.949339584</ele>
        <time>2014-02-02T12:23:58Z</time>
      </trkpt>
      <trkpt lat="42.98404" lon="-0.70486">
        <ele>1542.7938262614</ele>
        <time>2014-02-02T12:24:44Z</time>
      </trkpt>
      <trkpt lat="42.984" lon="-0.70488">
        <ele>1542.7938262614</ele>
        <time>2014-02-02T12:24:54Z</time>
      </trkpt>
      <trkpt lat="42.984" lon="-0.70488">
        <ele>1542.7938262614</ele>
        <time>2014-02-02T12:24:59Z</time>
      </trkpt>
      <trkpt lat="42.98398" lon="-0.70491">
        <ele>1542.7938262614</ele>
        <time>2014-02-02T12:25:04Z</time>
      </trkpt>
      <trkpt lat="42.98399" lon="-0.70495">
        <ele>1545.4358401638</ele>
        <time>2014-02-02T12:25:09Z</time>
      </trkpt>
      <trkpt lat="42.98399" lon="-0.70497">
        <ele>1545.4358401638</ele>
        <time>2014-02-02T12:25:14Z</time>
      </trkpt>
      <trkpt lat="42.98398" lon="-0.705">
        <ele>1545.4358401638</ele>
        <time>2014-02-02T12:25:19Z</time>
      </trkpt>
      <trkpt lat="42.98394" lon="-0.70501">
        <ele>1545.4358401638</ele>
        <time>2014-02-02T12:25:24Z</time>
      </trkpt>
      <trkpt lat="42.98392" lon="-0.705">
        <ele>1547.7886049721</ele>
        <time>2014-02-02T12:25:28Z</time>
      </trkpt>
      <trkpt lat="42.98391" lon="-0.70503">
        <ele>1547.7886049721</ele>
        <time>2014-02-02T12:25:34Z</time>
      </trkpt>
      <trkpt lat="42.9839" lon="-0.70506">
        <ele>1547.7886049721</ele>
        <time>2014-02-02T12:25:39Z</time>
      </trkpt>
      <trkpt lat="42.98389" lon="-0.70509">
        <ele>1547.7886049721</ele>
        <time>2014-02-02T12:25:44Z</time>
      </trkpt>
      <trkpt lat="42.98386" lon="-0.70512">
        <ele>1549.9022283435</ele>
        <time>2014-02-02T12:25:49Z</time>
      </trkpt>
      <trkpt lat="42.98384" lon="-0.70515">
        <ele>1549.9022283435</ele>
        <time>2014-02-02T12:25:53Z</time>
      </trkpt>
      <trkpt lat="42.98384" lon="-0.70517">
        <ele>1549.9022283435</ele>
        <time>2014-02-02T12:25:59Z</time>
      </trkpt>
      <trkpt lat="42.98379" lon="-0.70525">
        <ele>1551.9102729446</ele>
        <time>2014-02-02T12:26:39Z</time>
      </trkpt>
      <trkpt lat="42.9838" lon="-0.7053">
        <ele>1551.9102729446</ele>
        <time>2014-02-02T12:26:43Z</time>
      </trkpt>
      <trkpt lat="42.98378" lon="-0.70533">
        <ele>1551.9102729446</ele>
        <time>2014-02-02T12:26:49Z</time>
      </trkpt>
      <trkpt lat="42.98377" lon="-0.70535">
        <ele>1551.9102729446</ele>
        <time>2014-02-02T12:26:54Z</time>
      </trkpt>
      <trkpt lat="42.98375" lon="-0.70537">
        <ele>1553.7638497034</ele>
        <time>2014-02-02T12:26:59Z</time>
      </trkpt>
      <trkpt lat="42.98373" lon="-0.70543">
        <ele>1553.7638497034</ele>
        <time>2014-02-02T12:27:03Z</time>
      </trkpt>
      <trkpt lat="42.98372" lon="-0.70547">
        <ele>1553.7638497034</ele>
        <time>2014-02-02T12:27:09Z</time>
      </trkpt>
      <trkpt lat="42.9837" lon="-0.7055">
        <ele>1555.5333773549</ele>
        <time>2014-02-02T12:27:14Z</time>
      </trkpt>
      <trkpt lat="42.9837" lon="-0.70552">
        <ele>1555.5333773549</ele>
        <time>2014-02-02T12:27:19Z</time>
      </trkpt>
      <trkpt lat="42.98368" lon="-0.70556">
        <ele>1555.5333773549</ele>
        <time>2014-02-02T12:27:24Z</time>
      </trkpt>
      <trkpt lat="42.98368" lon="-0.7056">
        <ele>1555.5333773549</ele>
        <time>2014-02-02T12:27:29Z</time>
      </trkpt>
      <trkpt lat="42.98368" lon="-0.70565">
        <ele>1557.2987393175</ele>
        <time>2014-02-02T12:27:34Z</time>
      </trkpt>
      <trkpt lat="42.9837" lon="-0.70578">
        <ele>1559.6383394747</ele>
        <time>2014-02-02T12:28:03Z</time>
      </trkpt>
      <trkpt lat="42.98368" lon="-0.70576">
        <ele>1559.6383394747</ele>
        <time>2014-02-02T12:28:13Z</time>
      </trkpt>
      <trkpt lat="42.98365" lon="-0.70572">
        <ele>1559.6383394747</ele>
        <time>2014-02-02T12:28:18Z</time>
      </trkpt>
      <trkpt lat="42.98363" lon="-0.70569">
        <ele>1562.1353338705</ele>
        <time>2014-02-02T12:28:23Z</time>
      </trkpt>
      <trkpt lat="42.98361" lon="-0.70567">
        <ele>1562.1353338705</ele>
        <time>2014-02-02T12:28:28Z</time>
      </trkpt>
      <trkpt lat="42.98359" lon="-0.70562">
        <ele>1562.1353338705</ele>
        <time>2014-02-02T12:28:34Z</time>
      </trkpt>
      <trkpt lat="42.98359" lon="-0.70559">
        <ele>1562.1353338705</ele>
        <time>2014-02-02T12:28:38Z</time>
      </trkpt>
      <trkpt lat="42.9836" lon="-0.70555">
        <ele>1564.5615658097</ele>
        <time>2014-02-02T12:28:43Z</time>
      </trkpt>
      <trkpt lat="42.98359" lon="-0.70551">
        <ele>1564.5615658097</ele>
        <time>2014-02-02T12:28:48Z</time>
      </trkpt>
      <trkpt lat="42.98358" lon="-0.70549">
        <ele>1564.5615658097</ele>
        <time>2014-02-02T12:28:53Z</time>
      </trkpt>
      <trkpt lat="42.98359" lon="-0.70548">
        <ele>1564.5615658097</ele>
        <time>2014-02-02T12:28:59Z</time>
      </trkpt>
      <trkpt lat="42.98359" lon="-0.70549">
        <ele>1564.5615658097</ele>
        <time>2014-02-02T12:29:03Z</time>
      </trkpt>
      <trkpt lat="42.98362" lon="-0.70537">
        <ele>1567.1525685516</ele>
        <time>2014-02-02T12:29:34Z</time>
      </trkpt>
      <trkpt lat="42.98364" lon="-0.70537">
        <ele>1567.1525685516</ele>
        <time>2014-02-02T12:29:39Z</time>
      </trkpt>
      <trkpt lat="42.98373" lon="-0.70531">
        <ele>1569.6361216983</ele>
        <time>2014-02-02T12:29:48Z</time>
      </trkpt>
      <trkpt lat="42.98372" lon="-0.70527">
        <ele>1569.6361216983</ele>
        <time>2014-02-02T12:29:54Z</time>
      </trkpt>
      <trkpt lat="42.98374" lon="-0.70525">
        <ele>1569.6361216983</ele>
        <time>2014-02-02T12:29:59Z</time>
      </trkpt>
      <trkpt lat="42.98373" lon="-0.70523">
        <ele>1569.6361216983</ele>
        <time>2014-02-02T12:30:03Z</time>
      </trkpt>
      <trkpt lat="42.98372" lon="-0.70522">
        <ele>1569.6361216983</ele>
        <time>2014-02-02T12:30:09Z</time>
      </trkpt>
      <trkpt lat="42.98356" lon="-0.70514">
        <ele>1572.1782168333</ele>
        <time>2014-02-02T12:30:13Z</time>
      </trkpt>
      <trkpt lat="42.98355" lon="-0.70514">
        <ele>1572.1782168333</ele>
        <time>2014-02-02T12:30:19Z</time>
      </trkpt>
      <trkpt lat="42.98347" lon="-0.70511">
        <ele>1574.5145582329</ele>
        <time>2014-02-02T12:30:23Z</time>
      </trkpt>
      <trkpt lat="42.98338" lon="-0.70512">
        <ele>1574.5145582329</ele>
        <time>2014-02-02T12:30:48Z</time>
      </trkpt>
      <trkpt lat="42.98337" lon="-0.70515">
        <ele>1576.6458256097</ele>
        <time>2014-02-02T12:30:54Z</time>
      </trkpt>
      <trkpt lat="42.98336" lon="-0.70517">
        <ele>1576.6458256097</ele>
        <time>2014-02-02T12:30:59Z</time>
      </trkpt>
      <trkpt lat="42.98337" lon="-0.70524">
        <ele>1576.6458256097</ele>
        <time>2014-02-02T12:31:03Z</time>
      </trkpt>
      <trkpt lat="42.98336" lon="-0.70526">
        <ele>1576.6458256097</ele>
        <time>2014-02-02T12:31:08Z</time>
      </trkpt>
      <trkpt lat="42.98334" lon="-0.70531">
        <ele>1578.6885075518</ele>
        <time>2014-02-02T12:31:14Z</time>
      </trkpt>
      <trkpt lat="42.98331" lon="-0.70537">
        <ele>1578.6885075518</ele>
        <time>2014-02-02T12:31:18Z</time>
      </trkpt>
      <trkpt lat="42.98331" lon="-0.70539">
        <ele>1578.6885075518</ele>
        <time>2014-02-02T12:31:24Z</time>
      </trkpt>
      <trkpt lat="42.98331" lon="-0.70539">
        <ele>1578.6885075518</ele>
        <time>2014-02-02T12:31:29Z</time>
      </trkpt>
      <trkpt lat="42.98329" lon="-0.70545">
        <ele>1580.851656033</ele>
        <time>2014-02-02T12:31:48Z</time>
      </trkpt>
      <trkpt lat="42.98328" lon="-0.70548">
        <ele>1580.851656033</ele>
        <time>2014-02-02T12:31:54Z</time>
      </trkpt>
      <trkpt lat="42.98327" lon="-0.7055">
        <ele>1580.851656033</ele>
        <time>2014-02-02T12:31:58Z</time>
      </trkpt>
      <trkpt lat="42.98326" lon="-0.70553">
        <ele>1580.851656033</ele>
        <time>2014-02-02T12:32:04Z</time>
      </trkpt>
      <trkpt lat="42.98323" lon="-0.70556">
        <ele>1582.9106989261</ele>
        <time>2014-02-02T12:32:08Z</time>
      </trkpt>
      <trkpt lat="42.98323" lon="-0.70559">
        <ele>1582.9106989261</ele>
        <time>2014-02-02T12:32:14Z</time>
      </trkpt>
      <trkpt lat="42.98323" lon="-0.70562">
        <ele>1582.9106989261</ele>
        <time>2014-02-02T12:32:19Z</time>
      </trkpt>
      <trkpt lat="42.98324" lon="-0.70567">
        <ele>1582.9106989261</ele>
        <time>2014-02-02T12:32:28Z</time>
      </trkpt>
      <trkpt lat="42.98315" lon="-0.70572">
        <ele>1585.6522129656</ele>
        <time>2014-02-02T12:33:28Z</time>
      </trkpt>
      <trkpt lat="42.98315" lon="-0.70573">
        <ele>1585.6522129656</ele>
        <time>2014-02-02T12:33:33Z</time>
      </trkpt>
      <trkpt lat="42.98322" lon="-0.70566">
        <ele>1588.4340163342</ele>
        <time>2014-02-02T12:34:23Z</time>
      </trkpt>
      <trkpt lat="42.98322" lon="-0.70564">
        <ele>1588.4340163342</ele>
        <time>2014-02-02T12:34:28Z</time>
      </trkpt>
      <trkpt lat="42.98318" lon="-0.70575">
        <ele>1591.0212616748</ele>
        <time>2014-02-02T12:35:03Z</time>
      </trkpt>
      <trkpt lat="42.98318" lon="-0.70576">
        <ele>1591.0212616748</ele>
        <time>2014-02-02T12:35:08Z</time>
      </trkpt>
      <trkpt lat="42.98314" lon="-0.70581">
        <ele>1591.0212616748</ele>
        <time>2014-02-02T12:35:18Z</time>
      </trkpt>
      <trkpt lat="42.9831" lon="-0.70587">
        <ele>1593.3554189469</ele>
        <time>2014-02-02T12:35:23Z</time>
      </trkpt>
      <trkpt lat="42.98306" lon="-0.70588">
        <ele>1593.3554189469</ele>
        <time>2014-02-02T12:35:28Z</time>
      </trkpt>
      <trkpt lat="42.98305" lon="-0.70591">
        <ele>1593.3554189469</ele>
        <time>2014-02-02T12:35:33Z</time>
      </trkpt>
      <trkpt lat="42.98305" lon="-0.70593">
        <ele>1593.3554189469</ele>
        <time>2014-02-02T12:35:38Z</time>
      </trkpt>
      <trkpt lat="42.98304" lon="-0.70593">
        <ele>1593.3554189469</ele>
        <time>2014-02-02T12:35:43Z</time>
      </trkpt>
      <trkpt lat="42.98303" lon="-0.70601">
        <ele>1595.6856009422</ele>
        <time>2014-02-02T12:36:04Z</time>
      </trkpt>
      <trkpt lat="42.98302" lon="-0.70604">
        <ele>1595.6856009422</ele>
        <time>2014-02-02T12:36:08Z</time>
      </trkpt>
      <trkpt lat="42.98303" lon="-0.70607">
        <ele>1595.6856009422</ele>
        <time>2014-02-02T12:36:14Z</time>
      </trkpt>
      <trkpt lat="42.98304" lon="-0.70616">
        <ele>1598.5164451119</ele>
        <time>2014-02-02T12:36:53Z</time>
      </trkpt>
      <trkpt lat="42.98303" lon="-0.70617">
        <ele>1598.5164451119</ele>
        <time>2014-02-02T12:36:59Z</time>
      </trkpt>
      <trkpt lat="42.98295" lon="-0.70613">
        <ele>1601.5215067708</ele>
        <time>2014-02-02T12:37:43Z</time>
      </trkpt>
      <trkpt lat="42.98296" lon="-0.70613">
        <ele>1601.5215067708</ele>
        <time>2014-02-02T12:37:49Z</time>
      </trkpt>
      <trkpt lat="42.98288" lon="-0.70606">
        <ele>1604.4554843511</ele>
        <time>2014-02-02T12:38:29Z</time>
      </trkpt>
      <trkpt lat="42.98286" lon="-0.70605">
        <ele>1604.4554843511</ele>
        <time>2014-02-02T12:38:34Z</time>
      </trkpt>
      <trkpt lat="42.98284" lon="-0.70605">
        <ele>1604.4554843511</ele>
        <time>2014-02-02T12:38:39Z</time>
      </trkpt>
      <trkpt lat="42.98283" lon="-0.70605">
        <ele>1604.4554843511</ele>
        <time>2014-02-02T12:38:43Z</time>
      </trkpt>
      <trkpt lat="42.98279" lon="-0.70612">
        <ele>1607.2930616345</ele>
        <time>2014-02-02T12:38:53Z</time>
      </trkpt>
      <trkpt lat="42.98277" lon="-0.70615">
        <ele>1607.2930616345</ele>
        <time>2014-02-02T12:38:59Z</time>
      </trkpt>
      <trkpt lat="42.98277" lon="-0.70618">
        <ele>1607.2930616345</ele>
        <time>2014-02-02T12:39:03Z</time>
      </trkpt>
      <trkpt lat="42.98276" lon="-0.70618">
        <ele>1607.2930616345</ele>
        <time>2014-02-02T12:39:09Z</time>
      </trkpt>
      <trkpt lat="42.98277" lon="-0.70618">
        <ele>1607.2930616345</ele>
        <time>2014-02-02T12:39:14Z</time>
      </trkpt>
      <trkpt lat="42.98277" lon="-0.70625">
        <ele>1610.2848787172</ele>
        <time>2014-02-02T12:39:43Z</time>
      </trkpt>
      <trkpt lat="42.98276" lon="-0.70627">
        <ele>1610.2848787172</ele>
        <time>2014-02-02T12:39:49Z</time>
      </trkpt>
      <trkpt lat="42.98275" lon="-0.70631">
        <ele>1610.2848787172</ele>
        <time>2014-02-02T12:39:53Z</time>
      </trkpt>
      <trkpt lat="42.98272" lon="-0.70635">
        <ele>1613.0286606051</ele>
        <time>2014-02-02T12:39:59Z</time>
      </trkpt>
      <trkpt lat="42.9827" lon="-0.70637">
        <ele>1613.0286606051</ele>
        <time>2014-02-02T12:40:03Z</time>
      </trkpt>
      <trkpt lat="42.9827" lon="-0.70639">
        <ele>1613.0286606051</ele>
        <time>2014-02-02T12:40:09Z</time>
      </trkpt>
      <trkpt lat="42.98269" lon="-0.70639">
        <ele>1613.0286606051</ele>
        <time>2014-02-02T12:40:14Z</time>
      </trkpt>
      <trkpt lat="42.98265" lon="-0.70641">
        <ele>1613.0286606051</ele>
        <time>2014-02-02T12:40:49Z</time>
      </trkpt>
      <trkpt lat="42.98262" lon="-0.70645">
        <ele>1615.9306011922</ele>
        <time>2014-02-02T12:40:53Z</time>
      </trkpt>
      <trkpt lat="42.98262" lon="-0.70646">
        <ele>1615.9306011922</ele>
        <time>2014-02-02T12:40:59Z</time>
      </trkpt>
      <trkpt lat="42.98264" lon="-0.70636">
        <ele>1615.9306011922</ele>
        <time>2014-02-02T12:42:23Z</time>
      </trkpt>
      <trkpt lat="42.98264" lon="-0.70633">
        <ele>1619.5107490138</ele>
        <time>2014-02-02T12:42:29Z</time>
      </trkpt>
      <trkpt lat="42.98262" lon="-0.70631">
        <ele>1619.5107490138</ele>
        <time>2014-02-02T12:42:33Z</time>
      </trkpt>
      <trkpt lat="42.98262" lon="-0.7063">
        <ele>1619.5107490138</ele>
        <time>2014-02-02T12:42:39Z</time>
      </trkpt>
      <trkpt lat="42.98253" lon="-0.70632">
        <ele>1622.8511993567</ele>
        <time>2014-02-02T12:42:53Z</time>
      </trkpt>
      <trkpt lat="42.9825" lon="-0.70635">
        <ele>1622.8511993567</ele>
        <time>2014-02-02T12:42:59Z</time>
      </trkpt>
      <trkpt lat="42.9825" lon="-0.70638">
        <ele>1622.8511993567</ele>
        <time>2014-02-02T12:43:04Z</time>
      </trkpt>
      <trkpt lat="42.9825" lon="-0.70638">
        <ele>1622.8511993567</ele>
        <time>2014-02-02T12:43:09Z</time>
      </trkpt>
      <trkpt lat="42.98247" lon="-0.70641">
        <ele>1626.0533170457</ele>
        <time>2014-02-02T12:43:34Z</time>
      </trkpt>
      <trkpt lat="42.98246" lon="-0.70642">
        <ele>1626.0533170457</ele>
        <time>2014-02-02T12:43:39Z</time>
      </trkpt>
      <trkpt lat="42.98243" lon="-0.70647">
        <ele>1626.0533170457</ele>
        <time>2014-02-02T12:43:49Z</time>
      </trkpt>
      <trkpt lat="42.98243" lon="-0.70647">
        <ele>1626.0533170457</ele>
        <time>2014-02-02T12:43:54Z</time>
      </trkpt>
      <trkpt lat="42.98243" lon="-0.70654">
        <ele>1629.384382082</ele>
        <time>2014-02-02T12:44:38Z</time>
      </trkpt>
      <trkpt lat="42.9824" lon="-0.70656">
        <ele>1629.384382082</ele>
        <time>2014-02-02T12:44:43Z</time>
      </trkpt>
      <trkpt lat="42.98239" lon="-0.70656">
        <ele>1629.384382082</ele>
        <time>2014-02-02T12:44:49Z</time>
      </trkpt>
      <trkpt lat="42.98238" lon="-0.70663">
        <ele>1632.5441007306</ele>
        <time>2014-02-02T12:44:59Z</time>
      </trkpt>
      <trkpt lat="42.98235" lon="-0.70666">
        <ele>1632.5441007306</ele>
        <time>2014-02-02T12:45:04Z</time>
      </trkpt>
      <trkpt lat="42.98235" lon="-0.70666">
        <ele>1632.5441007306</ele>
        <time>2014-02-02T12:45:08Z</time>
      </trkpt>
      <trkpt lat="42.98237" lon="-0.70661">
        <ele>1632.5441007306</ele>
        <time>2014-02-02T12:46:10Z</time>
      </trkpt>
      <trkpt lat="42.98238" lon="-0.70661">
        <ele>1636.1338465489</ele>
        <time>2014-02-02T12:46:13Z</time>
      </trkpt>
      <trkpt lat="42.98239" lon="-0.70658">
        <ele>1636.1338465489</ele>
        <time>2014-02-02T12:46:18Z</time>
      </trkpt>
      <trkpt lat="42.98241" lon="-0.70656">
        <ele>1636.1338465489</ele>
        <time>2014-02-02T12:46:24Z</time>
      </trkpt>
      <trkpt lat="42.9824" lon="-0.70655">
        <ele>1636.1338465489</ele>
        <time>2014-02-02T12:46:28Z</time>
      </trkpt>
      <trkpt lat="42.98238" lon="-0.70653">
        <ele>1636.1338465489</ele>
        <time>2014-02-02T12:46:33Z</time>
      </trkpt>
      <trkpt lat="42.98236" lon="-0.70651">
        <ele>1639.441484778</ele>
        <time>2014-02-02T12:46:38Z</time>
      </trkpt>
      <trkpt lat="42.98234" lon="-0.70649">
        <ele>1639.441484778</ele>
        <time>2014-02-02T12:46:43Z</time>
      </trkpt>
      <trkpt lat="42.98232" lon="-0.7065">
        <ele>1639.441484778</ele>
        <time>2014-02-02T12:46:48Z</time>
      </trkpt>
      <trkpt lat="42.98236" lon="-0.70648">
        <ele>1639.441484778</ele>
        <time>2014-02-02T12:46:54Z</time>
      </trkpt>
      <trkpt lat="42.98236" lon="-0.70646">
        <ele>1642.442130148</ele>
        <time>2014-02-02T12:46:58Z</time>
      </trkpt>
      <trkpt lat="42.98238" lon="-0.70643">
        <ele>1642.442130148</ele>
        <time>2014-02-02T12:47:03Z</time>
      </trkpt>
      <trkpt lat="42.98237" lon="-0.70642">
        <ele>1642.442130148</ele>
        <time>2014-02-02T12:47:09Z</time>
      </trkpt>
      <trkpt lat="42.98237" lon="-0.70646">
        <ele>1642.442130148</ele>
        <time>2014-02-02T12:47:14Z</time>
      </trkpt>
      <trkpt lat="42.98235" lon="-0.70647">
        <ele>1642.442130148</ele>
        <time>2014-02-02T12:47:18Z</time>
      </trkpt>
      <trkpt lat="42.98235" lon="-0.70643">
        <ele>1645.3154003617</ele>
        <time>2014-02-02T12:47:24Z</time>
      </trkpt>
      <trkpt lat="42.98233" lon="-0.70645">
        <ele>1645.3154003617</ele>
        <time>2014-02-02T12:47:28Z</time>
      </trkpt>
      <trkpt lat="42.98233" lon="-0.70645">
        <ele>1645.3154003617</ele>
        <time>2014-02-02T12:47:34Z</time>
      </trkpt>
      <trkpt lat="42.98238" lon="-0.70646">
        <ele>1645.3154003617</ele>
        <time>2014-02-02T12:47:44Z</time>
      </trkpt>
      <trkpt lat="42.98236" lon="-0.70645">
        <ele>1648.0984347031</ele>
        <time>2014-02-02T12:47:49Z</time>
      </trkpt>
      <trkpt lat="42.98236" lon="-0.70644">
        <ele>1648.0984347031</ele>
        <time>2014-02-02T12:47:53Z</time>
      </trkpt>
      <trkpt lat="42.9823" lon="-0.70637">
        <ele>1650.9700668223</ele>
        <time>2014-02-02T12:48:19Z</time>
      </trkpt>
      <trkpt lat="42.9823" lon="-0.70634">
        <ele>1650.9700668223</ele>
        <time>2014-02-02T12:48:23Z</time>
      </trkpt>
      <trkpt lat="42.98231" lon="-0.70634">
        <ele>1650.9700668223</ele>
        <time>2014-02-02T12:48:29Z</time>
      </trkpt>
      <trkpt lat="42.98231" lon="-0.70628">
        <ele>1650.9700668223</ele>
        <time>2014-02-02T12:48:39Z</time>
      </trkpt>
      <trkpt lat="42.98231" lon="-0.70626">
        <ele>1650.9700668223</ele>
        <time>2014-02-02T12:48:44Z</time>
      </trkpt>
      <trkpt lat="42.98224" lon="-0.70633">
        <ele>1653.7211123684</ele>
        <time>2014-02-02T12:48:49Z</time>
      </trkpt>
      <trkpt lat="42.98222" lon="-0.70634">
        <ele>1653.7211123684</ele>
        <time>2014-02-02T12:48:53Z</time>
      </trkpt>
      <trkpt lat="42.98222" lon="-0.70634">
        <ele>1653.7211123684</ele>
        <time>2014-02-02T12:48:58Z</time>
      </trkpt>
      <trkpt lat="42.98213" lon="-0.70636">
        <ele>1656.3454906408</ele>
        <time>2014-02-02T12:49:18Z</time>
      </trkpt>
      <trkpt lat="42.98211" lon="-0.70637">
        <ele>1656.3454906408</ele>
        <time>2014-02-02T12:49:23Z</time>
      </trkpt>
      <trkpt lat="42.9821" lon="-0.70637">
        <ele>1656.3454906408</ele>
        <time>2014-02-02T12:49:28Z</time>
      </trkpt>
      <trkpt lat="42.98204" lon="-0.70643">
        <ele>1658.8667966612</ele>
        <time>2014-02-02T12:50:03Z</time>
      </trkpt>
      <trkpt lat="42.98204" lon="-0.70646">
        <ele>1658.8667966612</ele>
        <time>2014-02-02T12:50:09Z</time>
      </trkpt>
      <trkpt lat="42.98203" lon="-0.70647">
        <ele>1658.8667966612</ele>
        <time>2014-02-02T12:50:14Z</time>
      </trkpt>
      <trkpt lat="42.98204" lon="-0.70652">
        <ele>1658.8667966612</ele>
        <time>2014-02-02T12:50:19Z</time>
      </trkpt>
      <trkpt lat="42.98202" lon="-0.70652">
        <ele>1658.8667966612</ele>
        <time>2014-02-02T12:50:24Z</time>
      </trkpt>
      <trkpt lat="42.98201" lon="-0.70653">
        <ele>1661.2207625095</ele>
        <time>2014-02-02T12:50:28Z</time>
      </trkpt>
      <trkpt lat="42.98201" lon="-0.70654">
        <ele>1661.2207625095</ele>
        <time>2014-02-02T12:50:34Z</time>
      </trkpt>
      <trkpt lat="42.982" lon="-0.70654">
        <ele>1661.2207625095</ele>
        <time>2014-02-02T12:51:18Z</time>
      </trkpt>
      <trkpt lat="42.98196" lon="-0.70653">
        <ele>1661.2207625095</ele>
        <time>2014-02-02T12:51:23Z</time>
      </trkpt>
      <trkpt lat="42.98193" lon="-0.70654">
        <ele>1663.506876537</ele>
        <time>2014-02-02T12:51:28Z</time>
      </trkpt>
      <trkpt lat="42.98192" lon="-0.70654">
        <ele>1663.506876537</ele>
        <time>2014-02-02T12:51:34Z</time>
      </trkpt>
      <trkpt lat="42.98193" lon="-0.70654">
        <ele>1663.506876537</ele>
        <time>2014-02-02T12:51:38Z</time>
      </trkpt>
      <trkpt lat="42.98186" lon="-0.70652">
        <ele>1663.506876537</ele>
        <time>2014-02-02T12:52:23Z</time>
      </trkpt>
      <trkpt lat="42.98184" lon="-0.70652">
        <ele>1665.7599029962</ele>
        <time>2014-02-02T12:52:29Z</time>
      </trkpt>
      <trkpt lat="42.98181" lon="-0.70648">
        <ele>1665.7599029962</ele>
        <time>2014-02-02T12:52:33Z</time>
      </trkpt>
      <trkpt lat="42.9818" lon="-0.70646">
        <ele>1665.7599029962</ele>
        <time>2014-02-02T12:52:39Z</time>
      </trkpt>
      <trkpt lat="42.98178" lon="-0.70645">
        <ele>1665.7599029962</ele>
        <time>2014-02-02T12:52:44Z</time>
      </trkpt>
      <trkpt lat="42.98176" lon="-0.70645">
        <ele>1667.7671886962</ele>
        <time>2014-02-02T12:52:48Z</time>
      </trkpt>
      <trkpt lat="42.98172" lon="-0.70642">
        <ele>1667.7671886962</ele>
        <time>2014-02-02T12:53:04Z</time>
      </trkpt>
      <trkpt lat="42.98167" lon="-0.70641">
        <ele>1669.6638728629</ele>
        <time>2014-02-02T12:53:09Z</time>
      </trkpt>
      <trkpt lat="42.98165" lon="-0.7064">
        <ele>1669.6638728629</ele>
        <time>2014-02-02T12:53:13Z</time>
      </trkpt>
      <trkpt lat="42.98162" lon="-0.7064">
        <ele>1669.6638728629</ele>
        <time>2014-02-02T12:53:19Z</time>
      </trkpt>
      <trkpt lat="42.98162" lon="-0.70639">
        <ele>1669.6638728629</ele>
        <time>2014-02-02T12:53:23Z</time>
      </trkpt>
      <trkpt lat="42.98158" lon="-0.70642">
        <ele>1671.4746188632</ele>
        <time>2014-02-02T12:53:49Z</time>
      </trkpt>
      <trkpt lat="42.98158" lon="-0.70642">
        <ele>1671.4746188632</ele>
        <time>2014-02-02T12:53:54Z</time>
      </trkpt>
      <trkpt lat="42.98154" lon="-0.70642">
        <ele>1671.4746188632</ele>
        <time>2014-02-02T12:53:58Z</time>
      </trkpt>
      <trkpt lat="42.98152" lon="-0.70642">
        <ele>1671.4746188632</ele>
        <time>2014-02-02T12:54:04Z</time>
      </trkpt>
      <trkpt lat="42.9815" lon="-0.70643">
        <ele>1673.1937084903</ele>
        <time>2014-02-02T12:54:09Z</time>
      </trkpt>
      <trkpt lat="42.98147" lon="-0.70643">
        <ele>1673.1937084903</ele>
        <time>2014-02-02T12:54:14Z</time>
      </trkpt>
      <trkpt lat="42.98146" lon="-0.70642">
        <ele>1673.1937084903</ele>
        <time>2014-02-02T12:54:19Z</time>
      </trkpt>
      <trkpt lat="42.98142" lon="-0.70641">
        <ele>1673.1937084903</ele>
        <time>2014-02-02T12:55:13Z</time>
      </trkpt>
      <trkpt lat="42.98141" lon="-0.70643">
        <ele>1675.5798944824</ele>
        <time>2014-02-02T12:55:18Z</time>
      </trkpt>
      <trkpt lat="42.98139" lon="-0.70645">
        <ele>1675.5798944824</ele>
        <time>2014-02-02T12:55:23Z</time>
      </trkpt>
      <trkpt lat="42.98137" lon="-0.70647">
        <ele>1675.5798944824</ele>
        <time>2014-02-02T12:55:29Z</time>
      </trkpt>
      <trkpt lat="42.98137" lon="-0.7065">
        <ele>1675.5798944824</ele>
        <time>2014-02-02T12:55:33Z</time>
      </trkpt>
      <trkpt lat="42.98135" lon="-0.70652">
        <ele>1675.5798944824</ele>
        <time>2014-02-02T12:55:38Z</time>
      </trkpt>
      <trkpt lat="42.98132" lon="-0.70655">
        <ele>1677.8355630054</ele>
        <time>2014-02-02T12:55:44Z</time>
      </trkpt>
      <trkpt lat="42.9813" lon="-0.70655">
        <ele>1677.8355630054</ele>
        <time>2014-02-02T12:55:49Z</time>
      </trkpt>
      <trkpt lat="42.98129" lon="-0.70654">
        <ele>1677.8355630054</ele>
        <time>2014-02-02T12:55:54Z</time>
      </trkpt>
      <trkpt lat="42.98129" lon="-0.70654">
        <ele>1677.8355630054</ele>
        <time>2014-02-02T12:56:00Z</time>
      </trkpt>
      <trkpt lat="42.98126" lon="-0.70657">
        <ele>1677.8355630054</ele>
        <time>2014-02-02T12:56:18Z</time>
      </trkpt>
      <trkpt lat="42.98124" lon="-0.70658">
        <ele>1677.8355630054</ele>
        <time>2014-02-02T12:56:24Z</time>
      </trkpt>
      <trkpt lat="42.98121" lon="-0.70659">
        <ele>1680.1011305083</ele>
        <time>2014-02-02T12:56:29Z</time>
      </trkpt>
      <trkpt lat="42.9812" lon="-0.70658">
        <ele>1680.1011305083</ele>
        <time>2014-02-02T12:56:34Z</time>
      </trkpt>
      <trkpt lat="42.98117" lon="-0.70661">
        <ele>1680.1011305083</ele>
        <time>2014-02-02T12:56:58Z</time>
      </trkpt>
      <trkpt lat="42.98115" lon="-0.70662">
        <ele>1680.1011305083</ele>
        <time>2014-02-02T12:57:03Z</time>
      </trkpt>
      <trkpt lat="42.98113" lon="-0.70663">
        <ele>1680.1011305083</ele>
        <time>2014-02-02T12:57:09Z</time>
      </trkpt>
      <trkpt lat="42.9811" lon="-0.70663">
        <ele>1682.3049054245</ele>
        <time>2014-02-02T12:57:13Z</time>
      </trkpt>
      <trkpt lat="42.98108" lon="-0.70664">
        <ele>1682.3049054245</ele>
        <time>2014-02-02T12:57:19Z</time>
      </trkpt>
      <trkpt lat="42.98106" lon="-0.70665">
        <ele>1682.3049054245</ele>
        <time>2014-02-02T12:57:24Z</time>
      </trkpt>
      <trkpt lat="42.98103" lon="-0.70667">
        <ele>1682.3049054245</ele>
        <time>2014-02-02T12:57:29Z</time>
      </trkpt>
      <trkpt lat="42.98103" lon="-0.70667">
        <ele>1682.3049054245</ele>
        <time>2014-02-02T12:57:33Z</time>
      </trkpt>
      <trkpt lat="42.981" lon="-0.70669">
        <ele>1684.97148023</ele>
        <time>2014-02-02T12:58:33Z</time>
      </trkpt>
      <trkpt lat="42.98097" lon="-0.70671">
        <ele>1684.97148023</ele>
        <time>2014-02-02T12:58:39Z</time>
      </trkpt>
      <trkpt lat="42.98094" lon="-0.70673">
        <ele>1684.97148023</ele>
        <time>2014-02-02T12:58:43Z</time>
      </trkpt>
      <trkpt lat="42.98092" lon="-0.70674">
        <ele>1687.3894769389</ele>
        <time>2014-02-02T12:58:48Z</time>
      </trkpt>
      <trkpt lat="42.9809" lon="-0.70675">
        <ele>1687.3894769389</ele>
        <time>2014-02-02T12:58:53Z</time>
      </trkpt>
      <trkpt lat="42.9809" lon="-0.70675">
        <ele>1687.3894769389</ele>
        <time>2014-02-02T12:58:58Z</time>
      </trkpt>
      <trkpt lat="42.98087" lon="-0.70673">
        <ele>1687.3894769389</ele>
        <time>2014-02-02T12:59:08Z</time>
      </trkpt>
      <trkpt lat="42.98084" lon="-0.70672">
        <ele>1687.3894769389</ele>
        <time>2014-02-02T12:59:14Z</time>
      </trkpt>
      <trkpt lat="42.98081" lon="-0.70674">
        <ele>1689.8515918038</ele>
        <time>2014-02-02T12:59:18Z</time>
      </trkpt>
      <trkpt lat="42.98079" lon="-0.70674">
        <ele>1689.8515918038</ele>
        <time>2014-02-02T12:59:23Z</time>
      </trkpt>
      <trkpt lat="42.98074" lon="-0.70671">
        <ele>1689.8515918038</ele>
        <time>2014-02-02T12:59:28Z</time>
      </trkpt>
      <trkpt lat="42.98073" lon="-0.70672">
        <ele>1689.8515918038</ele>
        <time>2014-02-02T12:59:34Z</time>
      </trkpt>
      <trkpt lat="42.98072" lon="-0.70669">
        <ele>1692.1244919348</ele>
        <time>2014-02-02T12:59:39Z</time>
      </trkpt>
      <trkpt lat="42.9807" lon="-0.70669">
        <ele>1692.1244919348</ele>
        <time>2014-02-02T13:00:04Z</time>
      </trkpt>
      <trkpt lat="42.98068" lon="-0.70669">
        <ele>1692.1244919348</ele>
        <time>2014-02-02T13:00:08Z</time>
      </trkpt>
      <trkpt lat="42.98066" lon="-0.70671">
        <ele>1692.1244919348</ele>
        <time>2014-02-02T13:00:14Z</time>
      </trkpt>
      <trkpt lat="42.98064" lon="-0.70672">
        <ele>1692.1244919348</ele>
        <time>2014-02-02T13:00:19Z</time>
      </trkpt>
      <trkpt lat="42.9806" lon="-0.70672">
        <ele>1694.3816001449</ele>
        <time>2014-02-02T13:00:23Z</time>
      </trkpt>
      <trkpt lat="42.98056" lon="-0.70673">
        <ele>1694.3816001449</ele>
        <time>2014-02-02T13:00:29Z</time>
      </trkpt>
      <trkpt lat="42.98053" lon="-0.70674">
        <ele>1694.3816001449</ele>
        <time>2014-02-02T13:00:33Z</time>
      </trkpt>
      <trkpt lat="42.98052" lon="-0.70675">
        <ele>1694.3816001449</ele>
        <time>2014-02-02T13:00:38Z</time>
      </trkpt>
      <trkpt lat="42.98052" lon="-0.70675">
        <ele>1694.3816001449</ele>
        <time>2014-02-02T13:00:43Z</time>
      </trkpt>
      <trkpt lat="42.98044" lon="-0.70677">
        <ele>1698.0806299659</ele>
        <time>2014-02-02T13:02:13Z</time>
      </trkpt>
      <trkpt lat="42.98042" lon="-0.70681">
        <ele>1698.0806299659</ele>
        <time>2014-02-02T13:02:18Z</time>
      </trkpt>
      <trkpt lat="42.98041" lon="-0.70684">
        <ele>1698.0806299659</ele>
        <time>2014-02-02T13:02:23Z</time>
      </trkpt>
      <trkpt lat="42.98039" lon="-0.70687">
        <ele>1698.0806299659</ele>
        <time>2014-02-02T13:02:28Z</time>
      </trkpt>
      <trkpt lat="42.98036" lon="-0.7069">
        <ele>1701.3688867229</ele>
        <time>2014-02-02T13:02:33Z</time>
      </trkpt>
      <trkpt lat="42.98034" lon="-0.70694">
        <ele>1701.3688867229</ele>
        <time>2014-02-02T13:02:38Z</time>
      </trkpt>
      <trkpt lat="42.98031" lon="-0.70698">
        <ele>1701.3688867229</ele>
        <time>2014-02-02T13:02:43Z</time>
      </trkpt>
      <trkpt lat="42.98028" lon="-0.707">
        <ele>1704.3323064807</ele>
        <time>2014-02-02T13:02:48Z</time>
      </trkpt>
      <trkpt lat="42.98026" lon="-0.70702">
        <ele>1704.3323064807</ele>
        <time>2014-02-02T13:02:53Z</time>
      </trkpt>
      <trkpt lat="42.98024" lon="-0.70705">
        <ele>1704.3323064807</ele>
        <time>2014-02-02T13:02:58Z</time>
      </trkpt>
      <trkpt lat="42.98022" lon="-0.70709">
        <ele>1707.1090636613</ele>
        <time>2014-02-02T13:03:03Z</time>
      </trkpt>
      <trkpt lat="42.98018" lon="-0.70712">
        <ele>1707.1090636613</ele>
        <time>2014-02-02T13:03:08Z</time>
      </trkpt>
      <trkpt lat="42.98016" lon="-0.70712">
        <ele>1707.1090636613</ele>
        <time>2014-02-02T13:03:13Z</time>
      </trkpt>
      <trkpt lat="42.98014" lon="-0.70712">
        <ele>1707.1090636613</ele>
        <time>2014-02-02T13:03:29Z</time>
      </trkpt>
      <trkpt lat="42.98012" lon="-0.70715">
        <ele>1710.0150506745</ele>
        <time>2014-02-02T13:03:34Z</time>
      </trkpt>
      <trkpt lat="42.9801" lon="-0.70719">
        <ele>1710.0150506745</ele>
        <time>2014-02-02T13:03:38Z</time>
      </trkpt>
      <trkpt lat="42.98007" lon="-0.70722">
        <ele>1710.0150506745</ele>
        <time>2014-02-02T13:03:43Z</time>
      </trkpt>
      <trkpt lat="42.98005" lon="-0.70725">
        <ele>1712.6652720775</ele>
        <time>2014-02-02T13:03:48Z</time>
      </trkpt>
      <trkpt lat="42.98004" lon="-0.70729">
        <ele>1712.6652720775</ele>
        <time>2014-02-02T13:03:53Z</time>
      </trkpt>
      <trkpt lat="42.98002" lon="-0.70732">
        <ele>1712.6652720775</ele>
        <time>2014-02-02T13:03:58Z</time>
      </trkpt>
      <trkpt lat="42.97999" lon="-0.70736">
        <ele>1715.1793018142</ele>
        <time>2014-02-02T13:04:03Z</time>
      </trkpt>
      <trkpt lat="42.97997" lon="-0.70738">
        <ele>1715.1793018142</ele>
        <time>2014-02-02T13:04:08Z</time>
      </trkpt>
      <trkpt lat="42.97995" lon="-0.70739">
        <ele>1715.1793018142</ele>
        <time>2014-02-02T13:04:13Z</time>
      </trkpt>
      <trkpt lat="42.97995" lon="-0.70739">
        <ele>1715.1793018142</ele>
        <time>2014-02-02T13:04:18Z</time>
      </trkpt>
      <trkpt lat="42.97992" lon="-0.7074">
        <ele>1715.1793018142</ele>
        <time>2014-02-02T13:04:34Z</time>
      </trkpt>
      <trkpt lat="42.97988" lon="-0.70743">
        <ele>1717.798016061</ele>
        <time>2014-02-02T13:04:38Z</time>
      </trkpt>
      <trkpt lat="42.97986" lon="-0.70744">
        <ele>1717.798016061</ele>
        <time>2014-02-02T13:04:43Z</time>
      </trkpt>
      <trkpt lat="42.97984" lon="-0.70749">
        <ele>1717.798016061</ele>
        <time>2014-02-02T13:04:48Z</time>
      </trkpt>
      <trkpt lat="42.97982" lon="-0.70753">
        <ele>1720.21109492</ele>
        <time>2014-02-02T13:04:53Z</time>
      </trkpt>
      <trkpt lat="42.97979" lon="-0.70756">
        <ele>1720.21109492</ele>
        <time>2014-02-02T13:04:58Z</time>
      </trkpt>
      <trkpt lat="42.97978" lon="-0.70758">
        <ele>1720.21109492</ele>
        <time>2014-02-02T13:05:03Z</time>
      </trkpt>
      <trkpt lat="42.97975" lon="-0.70762">
        <ele>1722.4630491363</ele>
        <time>2014-02-02T13:05:08Z</time>
      </trkpt>
      <trkpt lat="42.97971" lon="-0.70764">
        <ele>1722.4630491363</ele>
        <time>2014-02-02T13:05:13Z</time>
      </trkpt>
      <trkpt lat="42.97971" lon="-0.70765">
        <ele>1722.4630491363</ele>
        <time>2014-02-02T13:05:18Z</time>
      </trkpt>
      <trkpt lat="42.97969" lon="-0.70771">
        <ele>1724.7685055134</ele>
        <time>2014-02-02T13:05:38Z</time>
      </trkpt>
      <trkpt lat="42.97966" lon="-0.70773">
        <ele>1724.7685055134</ele>
        <time>2014-02-02T13:05:43Z</time>
      </trkpt>
      <trkpt lat="42.97963" lon="-0.70775">
        <ele>1724.7685055134</ele>
        <time>2014-02-02T13:05:48Z</time>
      </trkpt>
      <trkpt lat="42.97961" lon="-0.70776">
        <ele>1724.7685055134</ele>
        <time>2014-02-02T13:05:53Z</time>
      </trkpt>
      <trkpt lat="42.97958" lon="-0.70779">
        <ele>1727.0091279396</ele>
        <time>2014-02-02T13:05:58Z</time>
      </trkpt>
      <trkpt lat="42.97955" lon="-0.70785">
        <ele>1727.0091279396</ele>
        <time>2014-02-02T13:06:03Z</time>
      </trkpt>
      <trkpt lat="42.97953" lon="-0.70789">
        <ele>1727.0091279396</ele>
        <time>2014-02-02T13:06:08Z</time>
      </trkpt>
      <trkpt lat="42.97951" lon="-0.70794">
        <ele>1729.0466279076</ele>
        <time>2014-02-02T13:06:13Z</time>
      </trkpt>
      <trkpt lat="42.9795" lon="-0.70797">
        <ele>1729.0466279076</ele>
        <time>2014-02-02T13:06:18Z</time>
      </trkpt>
      <trkpt lat="42.97949" lon="-0.70796">
        <ele>1729.0466279076</ele>
        <time>2014-02-02T13:06:24Z</time>
      </trkpt>
      <trkpt lat="42.97949" lon="-0.70802">
        <ele>1729.0466279076</ele>
        <time>2014-02-02T13:06:48Z</time>
      </trkpt>
      <trkpt lat="42.97948" lon="-0.70806">
        <ele>1731.4163490114</ele>
        <time>2014-02-02T13:06:54Z</time>
      </trkpt>
      <trkpt lat="42.97947" lon="-0.70811">
        <ele>1731.4163490114</ele>
        <time>2014-02-02T13:06:58Z</time>
      </trkpt>
      <trkpt lat="42.97945" lon="-0.70817">
        <ele>1731.4163490114</ele>
        <time>2014-02-02T13:07:04Z</time>
      </trkpt>
      <trkpt lat="42.97944" lon="-0.70818">
        <ele>1733.719877286</ele>
        <time>2014-02-02T13:07:08Z</time>
      </trkpt>
      <trkpt lat="42.97942" lon="-0.7082">
        <ele>1733.719877286</ele>
        <time>2014-02-02T13:07:14Z</time>
      </trkpt>
      <trkpt lat="42.9794" lon="-0.70823">
        <ele>1733.719877286</ele>
        <time>2014-02-02T13:07:18Z</time>
      </trkpt>
      <trkpt lat="42.97937" lon="-0.70821">
        <ele>1733.719877286</ele>
        <time>2014-02-02T13:07:24Z</time>
      </trkpt>
      <trkpt lat="42.97937" lon="-0.70822">
        <ele>1733.719877286</ele>
        <time>2014-02-02T13:07:28Z</time>
      </trkpt>
      <trkpt lat="42.97935" lon="-0.7082">
        <ele>1736.1646839903</ele>
        <time>2014-02-02T13:07:48Z</time>
      </trkpt>
      <trkpt lat="42.97935" lon="-0.70817">
        <ele>1736.1646839903</ele>
        <time>2014-02-02T13:07:53Z</time>
      </trkpt>
      <trkpt lat="42.97933" lon="-0.70814">
        <ele>1736.1646839903</ele>
        <time>2014-02-02T13:07:58Z</time>
      </trkpt>
      <trkpt lat="42.9793" lon="-0.70812">
        <ele>1736.1646839903</ele>
        <time>2014-02-02T13:08:03Z</time>
      </trkpt>
      <trkpt lat="42.97929" lon="-0.7081">
        <ele>1738.3229110047</ele>
        <time>2014-02-02T13:08:08Z</time>
      </trkpt>
      <trkpt lat="42.97925" lon="-0.70808">
        <ele>1738.3229110047</ele>
        <time>2014-02-02T13:08:13Z</time>
      </trkpt>
      <trkpt lat="42.97921" lon="-0.70805">
        <ele>1738.3229110047</ele>
        <time>2014-02-02T13:08:18Z</time>
      </trkpt>
      <trkpt lat="42.97918" lon="-0.70803">
        <ele>1740.2312515894</ele>
        <time>2014-02-02T13:08:23Z</time>
      </trkpt>
      <trkpt lat="42.97917" lon="-0.70803">
        <ele>1740.2312515894</ele>
        <time>2014-02-02T13:08:28Z</time>
      </trkpt>
      <trkpt lat="42.97917" lon="-0.70803">
        <ele>1740.2312515894</ele>
        <time>2014-02-02T13:08:33Z</time>
      </trkpt>
      <trkpt lat="42.97912" lon="-0.70799">
        <ele>1740.2312515894</ele>
        <time>2014-02-02T13:08:48Z</time>
      </trkpt>
      <trkpt lat="42.97909" lon="-0.70798">
        <ele>1741.9099742793</ele>
        <time>2014-02-02T13:08:53Z</time>
      </trkpt>
      <trkpt lat="42.97906" lon="-0.70796">
        <ele>1741.9099742793</ele>
        <time>2014-02-02T13:08:58Z</time>
      </trkpt>
      <trkpt lat="42.97904" lon="-0.70798">
        <ele>1741.9099742793</ele>
        <time>2014-02-02T13:09:03Z</time>
      </trkpt>
      <trkpt lat="42.97901" lon="-0.70798">
        <ele>1741.9099742793</ele>
        <time>2014-02-02T13:09:08Z</time>
      </trkpt>
      <trkpt lat="42.97897" lon="-0.70794">
        <ele>1743.4361240865</ele>
        <time>2014-02-02T13:09:14Z</time>
      </trkpt>
      <trkpt lat="42.97897" lon="-0.70794">
        <ele>1743.4361240865</ele>
        <time>2014-02-02T13:09:18Z</time>
      </trkpt>
      <trkpt lat="42.97892" lon="-0.70792">
        <ele>1743.4361240865</ele>
        <time>2014-02-02T13:09:38Z</time>
      </trkpt>
      <trkpt lat="42.9789" lon="-0.70791">
        <ele>1743.4361240865</ele>
        <time>2014-02-02T13:09:44Z</time>
      </trkpt>
      <trkpt lat="42.97887" lon="-0.70791">
        <ele>1744.939130304</ele>
        <time>2014-02-02T13:09:48Z</time>
      </trkpt>
      <trkpt lat="42.97883" lon="-0.70791">
        <ele>1744.939130304</ele>
        <time>2014-02-02T13:09:54Z</time>
      </trkpt>
      <trkpt lat="42.9788" lon="-0.7079">
        <ele>1744.939130304</ele>
        <time>2014-02-02T13:09:58Z</time>
      </trkpt>
      <trkpt lat="42.97876" lon="-0.7079">
        <ele>1746.3083667872</ele>
        <time>2014-02-02T13:10:04Z</time>
      </trkpt>
      <trkpt lat="42.97874" lon="-0.70791">
        <ele>1746.3083667872</ele>
        <time>2014-02-02T13:10:08Z</time>
      </trkpt>
      <trkpt lat="42.97874" lon="-0.70792">
        <ele>1746.3083667872</ele>
        <time>2014-02-02T13:10:14Z</time>
      </trkpt>
      <trkpt lat="42.97868" lon="-0.7079">
        <ele>1747.8595907422</ele>
        <time>2014-02-02T13:10:34Z</time>
      </trkpt>
      <trkpt lat="42.97865" lon="-0.7079">
        <ele>1747.8595907422</ele>
        <time>2014-02-02T13:10:38Z</time>
      </trkpt>
      <trkpt lat="42.97863" lon="-0.7079">
        <ele>1747.8595907422</ele>
        <time>2014-02-02T13:10:44Z</time>
      </trkpt>
      <trkpt lat="42.97862" lon="-0.70791">
        <ele>1747.8595907422</ele>
        <time>2014-02-02T13:10:48Z</time>
      </trkpt>
      <trkpt lat="42.97862" lon="-0.70791">
        <ele>1747.8595907422</ele>
        <time>2014-02-02T13:10:53Z</time>
      </trkpt>
      <trkpt lat="42.97858" lon="-0.70791">
        <ele>1751.4556221269</ele>
        <time>2014-02-02T13:13:48Z</time>
      </trkpt>
      <trkpt lat="42.97858" lon="-0.70792">
        <ele>1751.4556221269</ele>
        <time>2014-02-02T13:13:53Z</time>
      </trkpt>
      <trkpt lat="42.9786" lon="-0.70785">
        <ele>1751.4556221269</ele>
        <time>2014-02-02T13:33:13Z</time>
      </trkpt>
      <trkpt lat="42.97861" lon="-0.70788">
        <ele>1751.4556221269</ele>
        <time>2014-02-02T13:33:19Z</time>
      </trkpt>
      <trkpt lat="42.97859" lon="-0.7079">
        <ele>1755.357993247</ele>
        <time>2014-02-02T13:33:23Z</time>
      </trkpt>
      <trkpt lat="42.9786" lon="-0.70789">
        <ele>1755.357993247</ele>
        <time>2014-02-02T13:33:29Z</time>
      </trkpt>
      <trkpt lat="42.97861" lon="-0.7078">
        <ele>1755.357993247</ele>
        <time>2014-02-02T13:43:29Z</time>
      </trkpt>
      <trkpt lat="42.97868" lon="-0.70773">
        <ele>1759.453804815</ele>
        <time>2014-02-02T13:43:33Z</time>
      </trkpt>
      <trkpt lat="42.97879" lon="-0.70768">
        <ele>1763.0037945159</ele>
        <time>2014-02-02T13:43:39Z</time>
      </trkpt>
      <trkpt lat="42.97893" lon="-0.70774">
        <ele>1766.0018465205</ele>
        <time>2014-02-02T13:43:43Z</time>
      </trkpt>
      <trkpt lat="42.97904" lon="-0.70776">
        <ele>1768.4006051252</ele>
        <time>2014-02-02T13:43:49Z</time>
      </trkpt>
      <trkpt lat="42.9791" lon="-0.70766">
        <ele>1770.2443415415</ele>
        <time>2014-02-02T13:43:53Z</time>
      </trkpt>
      <trkpt lat="42.97912" lon="-0.70761">
        <ele>1770.2443415415</ele>
        <time>2014-02-02T13:43:58Z</time>
      </trkpt>
      <trkpt lat="42.97912" lon="-0.70761">
        <ele>1770.2443415415</ele>
        <time>2014-02-02T13:44:03Z</time>
      </trkpt>
      <trkpt lat="42.97912" lon="-0.70758">
        <ele>1770.2443415415</ele>
        <time>2014-02-02T13:44:09Z</time>
      </trkpt>
      <trkpt lat="42.97921" lon="-0.70759">
        <ele>1771.1144749938</ele>
        <time>2014-02-02T13:44:13Z</time>
      </trkpt>
      <trkpt lat="42.97951" lon="-0.70755">
        <ele>1771.4185082653</ele>
        <time>2014-02-02T13:44:19Z</time>
      </trkpt>
      <trkpt lat="42.97989" lon="-0.70752">
        <ele>1770.7429655537</ele>
        <time>2014-02-02T13:44:23Z</time>
      </trkpt>
      <trkpt lat="42.97999" lon="-0.70725">
        <ele>1769.1686098933</ele>
        <time>2014-02-02T13:44:29Z</time>
      </trkpt>
      <trkpt lat="42.98014" lon="-0.70722">
        <ele>1766.686263668</ele>
        <time>2014-02-02T13:44:33Z</time>
      </trkpt>
      <trkpt lat="42.98029" lon="-0.70711">
        <ele>1763.3907566828</ele>
        <time>2014-02-02T13:44:39Z</time>
      </trkpt>
      <trkpt lat="42.98032" lon="-0.70693">
        <ele>1759.2424077071</ele>
        <time>2014-02-02T13:44:43Z</time>
      </trkpt>
      <trkpt lat="42.98035" lon="-0.7068">
        <ele>1754.6101902729</ele>
        <time>2014-02-02T13:44:49Z</time>
      </trkpt>
      <trkpt lat="42.98037" lon="-0.70675">
        <ele>1754.6101902729</ele>
        <time>2014-02-02T13:44:53Z</time>
      </trkpt>
      <trkpt lat="42.98041" lon="-0.70675">
        <ele>1749.3183256377</ele>
        <time>2014-02-02T13:45:13Z</time>
      </trkpt>
      <trkpt lat="42.98043" lon="-0.7067">
        <ele>1749.3183256377</ele>
        <time>2014-02-02T13:45:33Z</time>
      </trkpt>
      <trkpt lat="42.98051" lon="-0.70664">
        <ele>1744.0413961734</ele>
        <time>2014-02-02T13:45:39Z</time>
      </trkpt>
      <trkpt lat="42.98065" lon="-0.70665">
        <ele>1738.9861777826</ele>
        <time>2014-02-02T13:45:43Z</time>
      </trkpt>
      <trkpt lat="42.98077" lon="-0.70667">
        <ele>1734.1559642263</ele>
        <time>2014-02-02T13:45:48Z</time>
      </trkpt>
      <trkpt lat="42.98089" lon="-0.70671">
        <ele>1729.3366488837</ele>
        <time>2014-02-02T13:45:53Z</time>
      </trkpt>
      <trkpt lat="42.98091" lon="-0.70664">
        <ele>1729.3366488837</ele>
        <time>2014-02-02T13:45:59Z</time>
      </trkpt>
      <trkpt lat="42.98095" lon="-0.7066">
        <ele>1723.0180182289</ele>
        <time>2014-02-02T13:46:03Z</time>
      </trkpt>
      <trkpt lat="42.981" lon="-0.70663">
        <ele>1723.0180182289</ele>
        <time>2014-02-02T13:46:09Z</time>
      </trkpt>
      <trkpt lat="42.98104" lon="-0.70668">
        <ele>1715.7068469884</ele>
        <time>2014-02-02T13:46:13Z</time>
      </trkpt>
      <trkpt lat="42.9811" lon="-0.70669">
        <ele>1715.7068469884</ele>
        <time>2014-02-02T13:46:19Z</time>
      </trkpt>
      <trkpt lat="42.98117" lon="-0.70663">
        <ele>1707.8317759018</ele>
        <time>2014-02-02T13:46:23Z</time>
      </trkpt>
      <trkpt lat="42.98122" lon="-0.70656">
        <ele>1707.8317759018</ele>
        <time>2014-02-02T13:46:29Z</time>
      </trkpt>
      <trkpt lat="42.98134" lon="-0.70654">
        <ele>1699.3731239534</ele>
        <time>2014-02-02T13:46:33Z</time>
      </trkpt>
      <trkpt lat="42.98138" lon="-0.70644">
        <ele>1699.3731239534</ele>
        <time>2014-02-02T13:46:39Z</time>
      </trkpt>
      <trkpt lat="42.98141" lon="-0.70646">
        <ele>1690.8613840874</ele>
        <time>2014-02-02T13:46:43Z</time>
      </trkpt>
      <trkpt lat="42.98143" lon="-0.70649">
        <ele>1690.8613840874</ele>
        <time>2014-02-02T13:46:49Z</time>
      </trkpt>
      <trkpt lat="42.98144" lon="-0.7065">
        <ele>1690.8613840874</ele>
        <time>2014-02-02T13:46:53Z</time>
      </trkpt>
      <trkpt lat="42.98155" lon="-0.70653">
        <ele>1683.6667405154</ele>
        <time>2014-02-02T13:47:18Z</time>
      </trkpt>
      <trkpt lat="42.9816" lon="-0.70653">
        <ele>1683.6667405154</ele>
        <time>2014-02-02T13:47:23Z</time>
      </trkpt>
      <trkpt lat="42.98165" lon="-0.70645">
        <ele>1677.166577888</ele>
        <time>2014-02-02T13:47:29Z</time>
      </trkpt>
      <trkpt lat="42.98174" lon="-0.70638">
        <ele>1671.2858415967</ele>
        <time>2014-02-02T13:47:33Z</time>
      </trkpt>
      <trkpt lat="42.98177" lon="-0.70633">
        <ele>1671.2858415967</ele>
        <time>2014-02-02T13:47:38Z</time>
      </trkpt>
      <trkpt lat="42.98183" lon="-0.70629">
        <ele>1665.880567752</ele>
        <time>2014-02-02T13:47:43Z</time>
      </trkpt>
      <trkpt lat="42.98185" lon="-0.7063">
        <ele>1665.880567752</ele>
        <time>2014-02-02T13:47:48Z</time>
      </trkpt>
      <trkpt lat="42.98191" lon="-0.70631">
        <ele>1665.880567752</ele>
        <time>2014-02-02T13:47:53Z</time>
      </trkpt>
      <trkpt lat="42.98198" lon="-0.70633">
        <ele>1660.8009896357</ele>
        <time>2014-02-02T13:47:59Z</time>
      </trkpt>
      <trkpt lat="42.9821" lon="-0.70622">
        <ele>1656.0220865819</ele>
        <time>2014-02-02T13:48:03Z</time>
      </trkpt>
      <trkpt lat="42.98212" lon="-0.70628">
        <ele>1656.0220865819</ele>
        <time>2014-02-02T13:48:08Z</time>
      </trkpt>
      <trkpt lat="42.98213" lon="-0.70627">
        <ele>1656.0220865819</ele>
        <time>2014-02-02T13:48:13Z</time>
      </trkpt>
      <trkpt lat="42.98213" lon="-0.70628">
        <ele>1656.0220865819</ele>
        <time>2014-02-02T13:48:23Z</time>
      </trkpt>
      <trkpt lat="42.98214" lon="-0.70621">
        <ele>1651.0004078484</ele>
        <time>2014-02-02T13:48:28Z</time>
      </trkpt>
      <trkpt lat="42.98218" lon="-0.70614">
        <ele>1651.0004078484</ele>
        <time>2014-02-02T13:48:33Z</time>
      </trkpt>
      <trkpt lat="42.98221" lon="-0.70615">
        <ele>1646.2268579651</ele>
        <time>2014-02-02T13:48:39Z</time>
      </trkpt>
      <trkpt lat="42.98223" lon="-0.70618">
        <ele>1646.2268579651</ele>
        <time>2014-02-02T13:48:43Z</time>
      </trkpt>
      <trkpt lat="42.98224" lon="-0.70619">
        <ele>1646.2268579651</ele>
        <time>2014-02-02T13:48:48Z</time>
      </trkpt>
      <trkpt lat="42.98228" lon="-0.70621">
        <ele>1646.2268579651</ele>
        <time>2014-02-02T13:49:03Z</time>
      </trkpt>
      <trkpt lat="42.9823" lon="-0.70616">
        <ele>1641.6794149311</ele>
        <time>2014-02-02T13:49:08Z</time>
      </trkpt>
      <trkpt lat="42.98236" lon="-0.70611">
        <ele>1641.6794149311</ele>
        <time>2014-02-02T13:49:13Z</time>
      </trkpt>
      <trkpt lat="42.98242" lon="-0.70614">
        <ele>1637.4805638714</ele>
        <time>2014-02-02T13:49:19Z</time>
      </trkpt>
      <trkpt lat="42.98248" lon="-0.70624">
        <ele>1633.6845994348</ele>
        <time>2014-02-02T13:49:23Z</time>
      </trkpt>
      <trkpt lat="42.98252" lon="-0.70629">
        <ele>1633.6845994348</ele>
        <time>2014-02-02T13:49:29Z</time>
      </trkpt>
      <trkpt lat="42.98256" lon="-0.7062">
        <ele>1629.9654577975</ele>
        <time>2014-02-02T13:49:33Z</time>
      </trkpt>
      <trkpt lat="42.9826" lon="-0.70613">
        <ele>1629.9654577975</ele>
        <time>2014-02-02T13:49:38Z</time>
      </trkpt>
      <trkpt lat="42.98273" lon="-0.70614">
        <ele>1626.2364497975</ele>
        <time>2014-02-02T13:49:43Z</time>
      </trkpt>
      <trkpt lat="42.98276" lon="-0.70606">
        <ele>1626.2364497975</ele>
        <time>2014-02-02T13:49:49Z</time>
      </trkpt>
      <trkpt lat="42.98277" lon="-0.70606">
        <ele>1626.2364497975</ele>
        <time>2014-02-02T13:49:53Z</time>
      </trkpt>
      <trkpt lat="42.98278" lon="-0.70606">
        <ele>1626.2364497975</ele>
        <time>2014-02-02T13:49:59Z</time>
      </trkpt>
      <trkpt lat="42.98281" lon="-0.70605">
        <ele>1621.667396626</ele>
        <time>2014-02-02T13:50:03Z</time>
      </trkpt>
      <trkpt lat="42.98282" lon="-0.70605">
        <ele>1621.667396626</ele>
        <time>2014-02-02T13:50:08Z</time>
      </trkpt>
      <trkpt lat="42.98286" lon="-0.70606">
        <ele>1621.667396626</ele>
        <time>2014-02-02T13:50:23Z</time>
      </trkpt>
      <trkpt lat="42.98292" lon="-0.70607">
        <ele>1617.1194303992</ele>
        <time>2014-02-02T13:50:28Z</time>
      </trkpt>
      <trkpt lat="42.98287" lon="-0.70604">
        <ele>1617.1194303992</ele>
        <time>2014-02-02T13:50:33Z</time>
      </trkpt>
      <trkpt lat="42.98287" lon="-0.70604">
        <ele>1617.1194303992</ele>
        <time>2014-02-02T13:50:38Z</time>
      </trkpt>
      <trkpt lat="42.98285" lon="-0.70602">
        <ele>1617.1194303992</ele>
        <time>2014-02-02T13:50:43Z</time>
      </trkpt>
      <trkpt lat="42.98284" lon="-0.70603">
        <ele>1612.8422769405</ele>
        <time>2014-02-02T13:50:48Z</time>
      </trkpt>
      <trkpt lat="42.98284" lon="-0.70603">
        <ele>1612.8422769405</ele>
        <time>2014-02-02T13:50:53Z</time>
      </trkpt>
      <trkpt lat="42.98285" lon="-0.70603">
        <ele>1612.8422769405</ele>
        <time>2014-02-02T13:51:13Z</time>
      </trkpt>
      <trkpt lat="42.98282" lon="-0.70601">
        <ele>1612.8422769405</ele>
        <time>2014-02-02T13:51:18Z</time>
      </trkpt>
      <trkpt lat="42.98282" lon="-0.70596">
        <ele>1612.8422769405</ele>
        <time>2014-02-02T13:51:28Z</time>
      </trkpt>
      <trkpt lat="42.98285" lon="-0.70588">
        <ele>1608.7058319846</ele>
        <time>2014-02-02T13:51:33Z</time>
      </trkpt>
      <trkpt lat="42.98283" lon="-0.70582">
        <ele>1608.7058319846</ele>
        <time>2014-02-02T13:51:38Z</time>
      </trkpt>
      <trkpt lat="42.98285" lon="-0.70575">
        <ele>1605.1651701433</ele>
        <time>2014-02-02T13:51:43Z</time>
      </trkpt>
      <trkpt lat="42.98295" lon="-0.70573">
        <ele>1602.1498804605</ele>
        <time>2014-02-02T13:51:48Z</time>
      </trkpt>
      <trkpt lat="42.98301" lon="-0.70579">
        <ele>1602.1498804605</ele>
        <time>2014-02-02T13:51:53Z</time>
      </trkpt>
      <trkpt lat="42.98307" lon="-0.70586">
        <ele>1599.434345858</ele>
        <time>2014-02-02T13:51:58Z</time>
      </trkpt>
      <trkpt lat="42.9831" lon="-0.70577">
        <ele>1599.434345858</ele>
        <time>2014-02-02T13:52:03Z</time>
      </trkpt>
      <trkpt lat="42.98314" lon="-0.70568">
        <ele>1596.8947932362</ele>
        <time>2014-02-02T13:52:09Z</time>
      </trkpt>
      <trkpt lat="42.9832" lon="-0.70556">
        <ele>1594.689532975</ele>
        <time>2014-02-02T13:52:13Z</time>
      </trkpt>
      <trkpt lat="42.98327" lon="-0.70538">
        <ele>1592.6181454068</ele>
        <time>2014-02-02T13:52:18Z</time>
      </trkpt>
      <trkpt lat="42.98328" lon="-0.70533">
        <ele>1592.6181454068</ele>
        <time>2014-02-02T13:52:23Z</time>
      </trkpt>
      <trkpt lat="42.98328" lon="-0.70524">
        <ele>1590.4366477859</ele>
        <time>2014-02-02T13:52:28Z</time>
      </trkpt>
      <trkpt lat="42.98329" lon="-0.70515">
        <ele>1590.4366477859</ele>
        <time>2014-02-02T13:52:33Z</time>
      </trkpt>
      <trkpt lat="42.98341" lon="-0.70507">
        <ele>1588.1928642552</ele>
        <time>2014-02-02T13:52:38Z</time>
      </trkpt>
      <trkpt lat="42.98351" lon="-0.70502">
        <ele>1586.2048847472</ele>
        <time>2014-02-02T13:52:43Z</time>
      </trkpt>
      <trkpt lat="42.98357" lon="-0.70493">
        <ele>1584.1756796264</ele>
        <time>2014-02-02T13:52:48Z</time>
      </trkpt>
      <trkpt lat="42.98365" lon="-0.70495">
        <ele>1584.1756796264</ele>
        <time>2014-02-02T13:52:53Z</time>
      </trkpt>
      <trkpt lat="42.98371" lon="-0.70506">
        <ele>1581.9308786755</ele>
        <time>2014-02-02T13:52:58Z</time>
      </trkpt>
      <trkpt lat="42.98373" lon="-0.70499">
        <ele>1581.9308786755</ele>
        <time>2014-02-02T13:53:03Z</time>
      </trkpt>
      <trkpt lat="42.98371" lon="-0.70501">
        <ele>1581.9308786755</ele>
        <time>2014-02-02T13:53:08Z</time>
      </trkpt>
      <trkpt lat="42.98372" lon="-0.70502">
        <ele>1581.9308786755</ele>
        <time>2014-02-02T13:53:13Z</time>
      </trkpt>
      <trkpt lat="42.98373" lon="-0.70502">
        <ele>1578.8194168338</ele>
        <time>2014-02-02T13:53:18Z</time>
      </trkpt>
      <trkpt lat="42.98374" lon="-0.70502">
        <ele>1578.8194168338</ele>
        <time>2014-02-02T13:53:23Z</time>
      </trkpt>
      <trkpt lat="42.98374" lon="-0.70498">
        <ele>1578.8194168338</ele>
        <time>2014-02-02T13:53:28Z</time>
      </trkpt>
      <trkpt lat="42.98378" lon="-0.705">
        <ele>1578.8194168338</ele>
        <time>2014-02-02T13:53:34Z</time>
      </trkpt>
      <trkpt lat="42.98382" lon="-0.70504">
        <ele>1574.9897532961</ele>
        <time>2014-02-02T13:53:38Z</time>
      </trkpt>
      <trkpt lat="42.98382" lon="-0.70504">
        <ele>1574.9897532961</ele>
        <time>2014-02-02T13:53:43Z</time>
      </trkpt>
      <trkpt lat="42.98378" lon="-0.70503">
        <ele>1574.9897532961</ele>
        <time>2014-02-02T13:54:03Z</time>
      </trkpt>
      <trkpt lat="42.98375" lon="-0.70503">
        <ele>1574.9897532961</ele>
        <time>2014-02-02T13:54:08Z</time>
      </trkpt>
      <trkpt lat="42.98377" lon="-0.70497">
        <ele>1570.7398805237</ele>
        <time>2014-02-02T13:54:58Z</time>
      </trkpt>
      <trkpt lat="42.98378" lon="-0.70495">
        <ele>1570.7398805237</ele>
        <time>2014-02-02T13:55:04Z</time>
      </trkpt>
      <trkpt lat="42.98383" lon="-0.70487">
        <ele>1567.0387249589</ele>
        <time>2014-02-02T13:55:08Z</time>
      </trkpt>
      <trkpt lat="42.98388" lon="-0.70481">
        <ele>1567.0387249589</ele>
        <time>2014-02-02T13:55:14Z</time>
      </trkpt>
      <trkpt lat="42.984" lon="-0.70483">
        <ele>1563.6295268096</ele>
        <time>2014-02-02T13:55:18Z</time>
      </trkpt>
      <trkpt lat="42.98405" lon="-0.7047">
        <ele>1560.504072874</ele>
        <time>2014-02-02T13:55:24Z</time>
      </trkpt>
      <trkpt lat="42.98409" lon="-0.70457">
        <ele>1557.5818367284</ele>
        <time>2014-02-02T13:55:28Z</time>
      </trkpt>
      <trkpt lat="42.98413" lon="-0.70447">
        <ele>1557.5818367284</ele>
        <time>2014-02-02T13:55:34Z</time>
      </trkpt>
      <trkpt lat="42.98421" lon="-0.7045">
        <ele>1554.5425935134</ele>
        <time>2014-02-02T13:55:38Z</time>
      </trkpt>
      <trkpt lat="42.98417" lon="-0.70444">
        <ele>1554.5425935134</ele>
        <time>2014-02-02T13:55:44Z</time>
      </trkpt>
      <trkpt lat="42.98422" lon="-0.70439">
        <ele>1551.2052145737</ele>
        <time>2014-02-02T13:55:48Z</time>
      </trkpt>
      <trkpt lat="42.98428" lon="-0.70439">
        <ele>1551.2052145737</ele>
        <time>2014-02-02T13:55:54Z</time>
      </trkpt>
      <trkpt lat="42.9843" lon="-0.7044">
        <ele>1551.2052145737</ele>
        <time>2014-02-02T13:55:58Z</time>
      </trkpt>
      <trkpt lat="42.98433" lon="-0.70439">
        <ele>1547.4603222679</ele>
        <time>2014-02-02T13:56:14Z</time>
      </trkpt>
      <trkpt lat="42.98437" lon="-0.7044">
        <ele>1547.4603222679</ele>
        <time>2014-02-02T13:56:18Z</time>
      </trkpt>
      <trkpt lat="42.98438" lon="-0.7044">
        <ele>1547.4603222679</ele>
        <time>2014-02-02T13:56:24Z</time>
      </trkpt>
      <trkpt lat="42.98443" lon="-0.70433">
        <ele>1543.8417782843</ele>
        <time>2014-02-02T13:56:28Z</time>
      </trkpt>
      <trkpt lat="42.98452" lon="-0.70438">
        <ele>1540.5700399541</ele>
        <time>2014-02-02T13:56:34Z</time>
      </trkpt>
      <trkpt lat="42.98454" lon="-0.70439">
        <ele>1540.5700399541</ele>
        <time>2014-02-02T13:56:38Z</time>
      </trkpt>
      <trkpt lat="42.98456" lon="-0.70447">
        <ele>1540.5700399541</ele>
        <time>2014-02-02T13:56:58Z</time>
      </trkpt>
      <trkpt lat="42.98456" lon="-0.70448">
        <ele>1537.0990024874</ele>
        <time>2014-02-02T13:57:04Z</time>
      </trkpt>
      <trkpt lat="42.98464" lon="-0.70456">
        <ele>1533.9896483306</ele>
        <time>2014-02-02T13:57:14Z</time>
      </trkpt>
      <trkpt lat="42.98465" lon="-0.70456">
        <ele>1533.9896483306</ele>
        <time>2014-02-02T13:57:18Z</time>
      </trkpt>
      <trkpt lat="42.98469" lon="-0.70438">
        <ele>1531.1122310161</ele>
        <time>2014-02-02T13:57:28Z</time>
      </trkpt>
      <trkpt lat="42.98479" lon="-0.70446">
        <ele>1528.5764654714</ele>
        <time>2014-02-02T13:57:34Z</time>
      </trkpt>
      <trkpt lat="42.98488" lon="-0.70446">
        <ele>1526.1371935121</ele>
        <time>2014-02-02T13:57:38Z</time>
      </trkpt>
      <trkpt lat="42.98488" lon="-0.70446">
        <ele>1526.1371935121</ele>
        <time>2014-02-02T13:57:44Z</time>
      </trkpt>
      <trkpt lat="42.98488" lon="-0.70443">
        <ele>1526.1371935121</ele>
        <time>2014-02-02T13:57:48Z</time>
      </trkpt>
      <trkpt lat="42.98489" lon="-0.70444">
        <ele>1526.1371935121</ele>
        <time>2014-02-02T13:58:18Z</time>
      </trkpt>
      <trkpt lat="42.98491" lon="-0.70442">
        <ele>1526.1371935121</ele>
        <time>2014-02-02T13:58:28Z</time>
      </trkpt>
      <trkpt lat="42.98491" lon="-0.70441">
        <ele>1526.1371935121</ele>
        <time>2014-02-02T13:58:33Z</time>
      </trkpt>
      <trkpt lat="42.98502" lon="-0.70441">
        <ele>1522.3564807494</ele>
        <time>2014-02-02T13:58:38Z</time>
      </trkpt>
      <trkpt lat="42.98497" lon="-0.7043">
        <ele>1518.6295121657</ele>
        <time>2014-02-02T13:58:43Z</time>
      </trkpt>
      <trkpt lat="42.98497" lon="-0.70428">
        <ele>1518.6295121657</ele>
        <time>2014-02-02T13:58:48Z</time>
      </trkpt>
      <trkpt lat="42.98505" lon="-0.70427">
        <ele>1515.0527391347</ele>
        <time>2014-02-02T13:58:58Z</time>
      </trkpt>
      <trkpt lat="42.98512" lon="-0.70425">
        <ele>1515.0527391347</ele>
        <time>2014-02-02T13:59:03Z</time>
      </trkpt>
      <trkpt lat="42.98524" lon="-0.70433">
        <ele>1511.2828032178</ele>
        <time>2014-02-02T13:59:08Z</time>
      </trkpt>
      <trkpt lat="42.98526" lon="-0.70419">
        <ele>1507.2903621518</ele>
        <time>2014-02-02T13:59:13Z</time>
      </trkpt>
      <trkpt lat="42.98535" lon="-0.70404">
        <ele>1502.9768246907</ele>
        <time>2014-02-02T13:59:18Z</time>
      </trkpt>
      <trkpt lat="42.9855" lon="-0.70401">
        <ele>1498.3814662133</ele>
        <time>2014-02-02T13:59:23Z</time>
      </trkpt>
      <trkpt lat="42.98566" lon="-0.70396">
        <ele>1493.4694296254</ele>
        <time>2014-02-02T13:59:28Z</time>
      </trkpt>
      <trkpt lat="42.98582" lon="-0.7039">
        <ele>1487.993149474</ele>
        <time>2014-02-02T13:59:33Z</time>
      </trkpt>
      <trkpt lat="42.98594" lon="-0.70377">
        <ele>1482.0851057472</ele>
        <time>2014-02-02T13:59:38Z</time>
      </trkpt>
      <trkpt lat="42.98596" lon="-0.70378">
        <ele>1482.0851057472</ele>
        <time>2014-02-02T13:59:43Z</time>
      </trkpt>
      <trkpt lat="42.98588" lon="-0.70386">
        <ele>1475.7827762958</ele>
        <time>2014-02-02T14:00:48Z</time>
      </trkpt>
      <trkpt lat="42.98589" lon="-0.70389">
        <ele>1475.7827762958</ele>
        <time>2014-02-02T14:07:04Z</time>
      </trkpt>
      <trkpt lat="42.98598" lon="-0.70401">
        <ele>1469.4390063832</ele>
        <time>2014-02-02T14:07:08Z</time>
      </trkpt>
      <trkpt lat="42.98613" lon="-0.70393">
        <ele>1463.6546031581</ele>
        <time>2014-02-02T14:07:14Z</time>
      </trkpt>
      <trkpt lat="42.98627" lon="-0.70407">
        <ele>1458.1775868502</ele>
        <time>2014-02-02T14:07:18Z</time>
      </trkpt>
      <trkpt lat="42.98647" lon="-0.7042">
        <ele>1452.759142143</ele>
        <time>2014-02-02T14:07:24Z</time>
      </trkpt>
      <trkpt lat="42.98667" lon="-0.70431">
        <ele>1447.2837744349</ele>
        <time>2014-02-02T14:07:28Z</time>
      </trkpt>
      <trkpt lat="42.98686" lon="-0.70427">
        <ele>1441.7021885679</ele>
        <time>2014-02-02T14:07:34Z</time>
      </trkpt>
      <trkpt lat="42.98701" lon="-0.70418">
        <ele>1436.0265579284</ele>
        <time>2014-02-02T14:07:38Z</time>
      </trkpt>
      <trkpt lat="42.987" lon="-0.70418">
        <ele>1436.0265579284</ele>
        <time>2014-02-02T14:07:44Z</time>
      </trkpt>
      <trkpt lat="42.98706" lon="-0.70412">
        <ele>1436.0265579284</ele>
        <time>2014-02-02T14:08:54Z</time>
      </trkpt>
      <trkpt lat="42.98713" lon="-0.70405">
        <ele>1430.239502128</ele>
        <time>2014-02-02T14:08:58Z</time>
      </trkpt>
      <trkpt lat="42.98726" lon="-0.70397">
        <ele>1425.0312688274</ele>
        <time>2014-02-02T14:09:04Z</time>
      </trkpt>
      <trkpt lat="42.98739" lon="-0.70389">
        <ele>1420.2758783595</ele>
        <time>2014-02-02T14:09:08Z</time>
      </trkpt>
      <trkpt lat="42.98756" lon="-0.70383">
        <ele>1415.4949467735</ele>
        <time>2014-02-02T14:09:14Z</time>
      </trkpt>
      <trkpt lat="42.98772" lon="-0.70374">
        <ele>1410.7928168554</ele>
        <time>2014-02-02T14:09:18Z</time>
      </trkpt>
      <trkpt lat="42.98787" lon="-0.70363">
        <ele>1406.0064392013</ele>
        <time>2014-02-02T14:09:24Z</time>
      </trkpt>
      <trkpt lat="42.98798" lon="-0.70375">
        <ele>1401.1433981235</ele>
        <time>2014-02-02T14:09:28Z</time>
      </trkpt>
      <trkpt lat="42.98806" lon="-0.70395">
        <ele>1396.0234920011</ele>
        <time>2014-02-02T14:09:34Z</time>
      </trkpt>
      <trkpt lat="42.98821" lon="-0.70391">
        <ele>1390.5668466564</ele>
        <time>2014-02-02T14:09:38Z</time>
      </trkpt>
      <trkpt lat="42.98838" lon="-0.70399">
        <ele>1384.6138360584</ele>
        <time>2014-02-02T14:09:44Z</time>
      </trkpt>
      <trkpt lat="42.98851" lon="-0.70412">
        <ele>1378.5510648167</ele>
        <time>2014-02-02T14:09:48Z</time>
      </trkpt>
      <trkpt lat="42.9885" lon="-0.70415">
        <ele>1378.5510648167</ele>
        <time>2014-02-02T14:09:54Z</time>
      </trkpt>
      <trkpt lat="42.98856" lon="-0.70412">
        <ele>1378.5510648167</ele>
        <time>2014-02-02T14:11:44Z</time>
      </trkpt>
      <trkpt lat="42.98861" lon="-0.70409">
        <ele>1372.4487205486</ele>
        <time>2014-02-02T14:11:48Z</time>
      </trkpt>
      <trkpt lat="42.98866" lon="-0.70422">
        <ele>1366.9771063206</ele>
        <time>2014-02-02T14:11:54Z</time>
      </trkpt>
      <trkpt lat="42.98872" lon="-0.70417">
        <ele>1366.9771063206</ele>
        <time>2014-02-02T14:11:58Z</time>
      </trkpt>
      <trkpt lat="42.98874" lon="-0.70412">
        <ele>1361.6313391191</ele>
        <time>2014-02-02T14:12:03Z</time>
      </trkpt>
      <trkpt lat="42.98882" lon="-0.70402">
        <ele>1356.7934173322</ele>
        <time>2014-02-02T14:12:09Z</time>
      </trkpt>
      <trkpt lat="42.98885" lon="-0.70407">
        <ele>1356.7934173322</ele>
        <time>2014-02-02T14:12:13Z</time>
      </trkpt>
      <trkpt lat="42.98883" lon="-0.70415">
        <ele>1352.0663677676</ele>
        <time>2014-02-02T14:12:33Z</time>
      </trkpt>
      <trkpt lat="42.98888" lon="-0.70425">
        <ele>1352.0663677676</ele>
        <time>2014-02-02T14:12:38Z</time>
      </trkpt>
      <trkpt lat="42.98892" lon="-0.70439">
        <ele>1347.8313438771</ele>
        <time>2014-02-02T14:12:43Z</time>
      </trkpt>
      <trkpt lat="42.98892" lon="-0.70441">
        <ele>1347.8313438771</ele>
        <time>2014-02-02T14:12:49Z</time>
      </trkpt>
      <trkpt lat="42.9889" lon="-0.70448">
        <ele>1347.8313438771</ele>
        <time>2014-02-02T14:13:38Z</time>
      </trkpt>
      <trkpt lat="42.98897" lon="-0.70444">
        <ele>1343.8491699922</ele>
        <time>2014-02-02T14:13:43Z</time>
      </trkpt>
      <trkpt lat="42.98896" lon="-0.70441">
        <ele>1343.8491699922</ele>
        <time>2014-02-02T14:13:48Z</time>
      </trkpt>
      <trkpt lat="42.98909" lon="-0.70435">
        <ele>1340.2144922383</ele>
        <time>2014-02-02T14:14:03Z</time>
      </trkpt>
      <trkpt lat="42.9891" lon="-0.70436">
        <ele>1340.2144922383</ele>
        <time>2014-02-02T14:14:09Z</time>
      </trkpt>
      <trkpt lat="42.98912" lon="-0.70449">
        <ele>1336.3222242135</ele>
        <time>2014-02-02T14:14:43Z</time>
      </trkpt>
      <trkpt lat="42.98918" lon="-0.70445">
        <ele>1336.3222242135</ele>
        <time>2014-02-02T14:14:49Z</time>
      </trkpt>
      <trkpt lat="42.98923" lon="-0.70434">
        <ele>1332.8805715954</ele>
        <time>2014-02-02T14:14:53Z</time>
      </trkpt>
      <trkpt lat="42.98931" lon="-0.70419">
        <ele>1329.8670853725</ele>
        <time>2014-02-02T14:14:58Z</time>
      </trkpt>
      <trkpt lat="42.98937" lon="-0.70422">
        <ele>1329.8670853725</ele>
        <time>2014-02-02T14:15:04Z</time>
      </trkpt>
      <trkpt lat="42.98945" lon="-0.70418">
        <ele>1326.4383012608</ele>
        <time>2014-02-02T14:15:08Z</time>
      </trkpt>
      <trkpt lat="42.9895" lon="-0.70408">
        <ele>1326.4383012608</ele>
        <time>2014-02-02T14:15:13Z</time>
      </trkpt>
      <trkpt lat="42.98963" lon="-0.70417">
        <ele>1322.5776532769</ele>
        <time>2014-02-02T14:15:19Z</time>
      </trkpt>
      <trkpt lat="42.98968" lon="-0.70407">
        <ele>1318.7177445265</ele>
        <time>2014-02-02T14:15:23Z</time>
      </trkpt>
      <trkpt lat="42.9897" lon="-0.70395">
        <ele>1314.9135368919</ele>
        <time>2014-02-02T14:15:28Z</time>
      </trkpt>
      <trkpt lat="42.9898" lon="-0.70396">
        <ele>1311.1725799293</ele>
        <time>2014-02-02T14:15:33Z</time>
      </trkpt>
      <trkpt lat="42.98994" lon="-0.70386">
        <ele>1307.3287796074</ele>
        <time>2014-02-02T14:15:39Z</time>
      </trkpt>
      <trkpt lat="42.99005" lon="-0.70392">
        <ele>1303.4014932439</ele>
        <time>2014-02-02T14:15:43Z</time>
      </trkpt>
      <trkpt lat="42.99004" lon="-0.70378">
        <ele>1299.2792240062</ele>
        <time>2014-02-02T14:15:49Z</time>
      </trkpt>
      <trkpt lat="42.99004" lon="-0.70376">
        <ele>1299.2792240062</ele>
        <time>2014-02-02T14:15:53Z</time>
      </trkpt>
      <trkpt lat="42.99008" lon="-0.70376">
        <ele>1299.2792240062</ele>
        <time>2014-02-02T14:15:59Z</time>
      </trkpt>
      <trkpt lat="42.99017" lon="-0.70377">
        <ele>1294.9168945961</ele>
        <time>2014-02-02T14:16:13Z</time>
      </trkpt>
      <trkpt lat="42.99018" lon="-0.70377">
        <ele>1294.9168945961</ele>
        <time>2014-02-02T14:16:19Z</time>
      </trkpt>
      <trkpt lat="42.99022" lon="-0.7038">
        <ele>1294.9168945961</ele>
        <time>2014-02-02T14:16:34Z</time>
      </trkpt>
      <trkpt lat="42.99026" lon="-0.704">
        <ele>1290.7778420444</ele>
        <time>2014-02-02T14:16:38Z</time>
      </trkpt>
      <trkpt lat="42.99034" lon="-0.70412">
        <ele>1286.988149998</ele>
        <time>2014-02-02T14:16:44Z</time>
      </trkpt>
      <trkpt lat="42.99041" lon="-0.70403">
        <ele>1283.1593160549</ele>
        <time>2014-02-02T14:16:48Z</time>
      </trkpt>
      <trkpt lat="42.99042" lon="-0.70406">
        <ele>1283.1593160549</ele>
        <time>2014-02-02T14:16:54Z</time>
      </trkpt>
      <trkpt lat="42.99056" lon="-0.70405">
        <ele>1279.306223604</ele>
        <time>2014-02-02T14:17:03Z</time>
      </trkpt>
      <trkpt lat="42.99065" lon="-0.70423">
        <ele>1275.6157154486</ele>
        <time>2014-02-02T14:17:08Z</time>
      </trkpt>
      <trkpt lat="42.99069" lon="-0.70434">
        <ele>1275.6157154486</ele>
        <time>2014-02-02T14:17:13Z</time>
      </trkpt>
      <trkpt lat="42.99068" lon="-0.70434">
        <ele>1275.6157154486</ele>
        <time>2014-02-02T14:17:18Z</time>
      </trkpt>
      <trkpt lat="42.99066" lon="-0.7044">
        <ele>1271.3670176526</ele>
        <time>2014-02-02T14:20:13Z</time>
      </trkpt>
      <trkpt lat="42.99072" lon="-0.70427">
        <ele>1267.6232604067</ele>
        <time>2014-02-02T14:20:18Z</time>
      </trkpt>
      <trkpt lat="42.99075" lon="-0.7041">
        <ele>1264.2728750135</ele>
        <time>2014-02-02T14:20:24Z</time>
      </trkpt>
      <trkpt lat="42.99078" lon="-0.70392">
        <ele>1261.182625717</ele>
        <time>2014-02-02T14:20:28Z</time>
      </trkpt>
      <trkpt lat="42.99089" lon="-0.70391">
        <ele>1258.4013357603</ele>
        <time>2014-02-02T14:20:34Z</time>
      </trkpt>
      <trkpt lat="42.99091" lon="-0.70388">
        <ele>1258.4013357603</ele>
        <time>2014-02-02T14:20:38Z</time>
      </trkpt>
      <trkpt lat="42.99098" lon="-0.7039">
        <ele>1255.7428722638</ele>
        <time>2014-02-02T14:20:44Z</time>
      </trkpt>
      <trkpt lat="42.99106" lon="-0.70396">
        <ele>1253.3083257373</ele>
        <time>2014-02-02T14:20:48Z</time>
      </trkpt>
      <trkpt lat="42.99114" lon="-0.70386">
        <ele>1251.1331811495</ele>
        <time>2014-02-02T14:20:53Z</time>
      </trkpt>
      <trkpt lat="42.99123" lon="-0.70401">
        <ele>1248.831769653</ele>
        <time>2014-02-02T14:20:58Z</time>
      </trkpt>
      <trkpt lat="42.99131" lon="-0.70405">
        <ele>1248.831769653</ele>
        <time>2014-02-02T14:21:04Z</time>
      </trkpt>
      <trkpt lat="42.99139" lon="-0.70399">
        <ele>1245.8310523856</ele>
        <time>2014-02-02T14:21:08Z</time>
      </trkpt>
      <trkpt lat="42.99146" lon="-0.7041">
        <ele>1242.8271109406</ele>
        <time>2014-02-02T14:21:14Z</time>
      </trkpt>
      <trkpt lat="42.99151" lon="-0.70399">
        <ele>1239.4418358717</ele>
        <time>2014-02-02T14:21:18Z</time>
      </trkpt>
      <trkpt lat="42.9915" lon="-0.70394">
        <ele>1239.4418358717</ele>
        <time>2014-02-02T14:21:23Z</time>
      </trkpt>
      <trkpt lat="42.99152" lon="-0.70386">
        <ele>1235.3837309014</ele>
        <time>2014-02-02T14:21:28Z</time>
      </trkpt>
      <trkpt lat="42.99162" lon="-0.70381">
        <ele>1231.3790880464</ele>
        <time>2014-02-02T14:21:34Z</time>
      </trkpt>
      <trkpt lat="42.99179" lon="-0.70376">
        <ele>1227.2793782815</ele>
        <time>2014-02-02T14:21:38Z</time>
      </trkpt>
      <trkpt lat="42.99185" lon="-0.70361">
        <ele>1223.2355812408</ele>
        <time>2014-02-02T14:21:43Z</time>
      </trkpt>
      <trkpt lat="42.99184" lon="-0.7036">
        <ele>1223.2355812408</ele>
        <time>2014-02-02T14:21:48Z</time>
      </trkpt>
      <trkpt lat="42.99186" lon="-0.7036">
        <ele>1223.2355812408</ele>
        <time>2014-02-02T14:21:53Z</time>
      </trkpt>
      <trkpt lat="42.99195" lon="-0.70356">
        <ele>1219.3298858565</ele>
        <time>2014-02-02T14:23:38Z</time>
      </trkpt>
      <trkpt lat="42.99195" lon="-0.70356">
        <ele>1219.3298858565</ele>
        <time>2014-02-02T14:23:44Z</time>
      </trkpt>
      <trkpt lat="42.99208" lon="-0.70343">
        <ele>1215.8831405114</ele>
        <time>2014-02-02T14:23:54Z</time>
      </trkpt>
      <trkpt lat="42.99224" lon="-0.70329">
        <ele>1212.7446831151</ele>
        <time>2014-02-02T14:23:58Z</time>
      </trkpt>
      <trkpt lat="42.9924" lon="-0.70313">
        <ele>1209.6732648616</ele>
        <time>2014-02-02T14:24:04Z</time>
      </trkpt>
      <trkpt lat="42.99252" lon="-0.703">
        <ele>1206.5029027408</ele>
        <time>2014-02-02T14:24:08Z</time>
      </trkpt>
      <trkpt lat="42.99269" lon="-0.70285">
        <ele>1202.9360599283</ele>
        <time>2014-02-02T14:24:14Z</time>
      </trkpt>
      <trkpt lat="42.99281" lon="-0.70268">
        <ele>1199.1594098391</ele>
        <time>2014-02-02T14:24:18Z</time>
      </trkpt>
      <trkpt lat="42.99288" lon="-0.70254">
        <ele>1195.116005845</ele>
        <time>2014-02-02T14:24:24Z</time>
      </trkpt>
      <trkpt lat="42.99296" lon="-0.70239">
        <ele>1190.6962650302</ele>
        <time>2014-02-02T14:24:28Z</time>
      </trkpt>
      <trkpt lat="42.99304" lon="-0.70222">
        <ele>1186.332990716</ele>
        <time>2014-02-02T14:24:34Z</time>
      </trkpt>
      <trkpt lat="42.99305" lon="-0.70212">
        <ele>1186.332990716</ele>
        <time>2014-02-02T14:24:38Z</time>
      </trkpt>
      <trkpt lat="42.99307" lon="-0.70206">
        <ele>1182.110050839</ele>
        <time>2014-02-02T14:24:44Z</time>
      </trkpt>
      <trkpt lat="42.99309" lon="-0.702">
        <ele>1182.110050839</ele>
        <time>2014-02-02T14:24:48Z</time>
      </trkpt>
      <trkpt lat="42.99309" lon="-0.70194">
        <ele>1177.9607002022</ele>
        <time>2014-02-02T14:24:54Z</time>
      </trkpt>
      <trkpt lat="42.99313" lon="-0.70182">
        <ele>1174.2840914012</ele>
        <time>2014-02-02T14:24:58Z</time>
      </trkpt>
      <trkpt lat="42.99328" lon="-0.70183">
        <ele>1171.0884920776</ele>
        <time>2014-02-02T14:25:04Z</time>
      </trkpt>
      <trkpt lat="42.99332" lon="-0.70182">
        <ele>1171.0884920776</ele>
        <time>2014-02-02T14:25:08Z</time>
      </trkpt>
      <trkpt lat="42.99335" lon="-0.70185">
        <ele>1171.0884920776</ele>
        <time>2014-02-02T14:25:38Z</time>
      </trkpt>
      <trkpt lat="42.99348" lon="-0.70193">
        <ele>1168.6684749211</ele>
        <time>2014-02-02T14:25:44Z</time>
      </trkpt>
      <trkpt lat="42.99368" lon="-0.70191">
        <ele>1166.5166391535</ele>
        <time>2014-02-02T14:25:48Z</time>
      </trkpt>
      <trkpt lat="42.99381" lon="-0.70182">
        <ele>1164.4647858962</ele>
        <time>2014-02-02T14:25:53Z</time>
      </trkpt>
      <trkpt lat="42.99398" lon="-0.70174">
        <ele>1162.1550909313</ele>
        <time>2014-02-02T14:25:58Z</time>
      </trkpt>
      <trkpt lat="42.99401" lon="-0.70153">
        <ele>1159.5450239861</ele>
        <time>2014-02-02T14:26:04Z</time>
      </trkpt>
      <trkpt lat="42.99409" lon="-0.70121">
        <ele>1156.6681461221</ele>
        <time>2014-02-02T14:26:08Z</time>
      </trkpt>
      <trkpt lat="42.99412" lon="-0.70109">
        <ele>1153.6860743502</ele>
        <time>2014-02-02T14:26:14Z</time>
      </trkpt>
      <trkpt lat="42.99411" lon="-0.70103">
        <ele>1153.6860743502</ele>
        <time>2014-02-02T14:26:18Z</time>
      </trkpt>
      <trkpt lat="42.99415" lon="-0.70101">
        <ele>1153.6860743502</ele>
        <time>2014-02-02T14:26:24Z</time>
      </trkpt>
      <trkpt lat="42.99416" lon="-0.70101">
        <ele>1150.4895225748</ele>
        <time>2014-02-02T14:26:28Z</time>
      </trkpt>
      <trkpt lat="42.99427" lon="-0.701">
        <ele>1147.9146319358</ele>
        <time>2014-02-02T14:26:48Z</time>
      </trkpt>
      <trkpt lat="42.9943" lon="-0.70096">
        <ele>1147.9146319358</ele>
        <time>2014-02-02T14:26:58Z</time>
      </trkpt>
      <trkpt lat="42.99436" lon="-0.70083">
        <ele>1145.7833193855</ele>
        <time>2014-02-02T14:27:04Z</time>
      </trkpt>
      <trkpt lat="42.99437" lon="-0.70071">
        <ele>1145.7833193855</ele>
        <time>2014-02-02T14:27:08Z</time>
      </trkpt>
      <trkpt lat="42.99445" lon="-0.70073">
        <ele>1143.4250278047</ele>
        <time>2014-02-02T14:27:14Z</time>
      </trkpt>
      <trkpt lat="42.99452" lon="-0.70067">
        <ele>1143.4250278047</ele>
        <time>2014-02-02T14:27:18Z</time>
      </trkpt>
      <trkpt lat="42.99456" lon="-0.7006">
        <ele>1140.3488746644</ele>
        <time>2014-02-02T14:27:24Z</time>
      </trkpt>
      <trkpt lat="42.99455" lon="-0.7006">
        <ele>1140.3488746644</ele>
        <time>2014-02-02T14:27:28Z</time>
      </trkpt>
      <trkpt lat="42.99456" lon="-0.70058">
        <ele>1140.3488746644</ele>
        <time>2014-02-02T14:27:34Z</time>
      </trkpt>
      <trkpt lat="42.99452" lon="-0.70046">
        <ele>1137.8602890115</ele>
        <time>2014-02-02T14:28:28Z</time>
      </trkpt>
      <trkpt lat="42.99452" lon="-0.70045">
        <ele>1137.8602890115</ele>
        <time>2014-02-02T14:28:33Z</time>
      </trkpt>
      <trkpt lat="42.99451" lon="-0.70043">
        <ele>1137.8602890115</ele>
        <time>2014-02-02T14:28:38Z</time>
      </trkpt>
      <trkpt lat="42.99449" lon="-0.70041">
        <ele>1137.8602890115</ele>
        <time>2014-02-02T14:28:43Z</time>
      </trkpt>
      <trkpt lat="42.99448" lon="-0.7004">
        <ele>1137.8602890115</ele>
        <time>2014-02-02T14:28:48Z</time>
      </trkpt>
      <trkpt lat="42.99447" lon="-0.70034">
        <ele>1135.8270056209</ele>
        <time>2014-02-02T14:29:03Z</time>
      </trkpt>
      <trkpt lat="42.99446" lon="-0.70033">
        <ele>1135.8270056209</ele>
        <time>2014-02-02T14:29:08Z</time>
      </trkpt>
      <trkpt lat="42.99446" lon="-0.70033">
        <ele>1135.8270056209</ele>
        <time>2014-02-02T14:29:13Z</time>
      </trkpt>
      <trkpt lat="42.9944" lon="-0.70017">
        <ele>1134.009995492</ele>
        <time>2014-02-02T14:29:43Z</time>
      </trkpt>
      <trkpt lat="42.99436" lon="-0.70016">
        <ele>1134.009995492</ele>
        <time>2014-02-02T14:29:48Z</time>
      </trkpt>
      <trkpt lat="42.99434" lon="-0.70013">
        <ele>1134.009995492</ele>
        <time>2014-02-02T14:29:53Z</time>
      </trkpt>
      <trkpt lat="42.99433" lon="-0.7001">
        <ele>1132.3890274505</ele>
        <time>2014-02-02T14:29:58Z</time>
      </trkpt>
      <trkpt lat="42.9943" lon="-0.7">
        <ele>1132.3890274505</ele>
        <time>2014-02-02T14:30:03Z</time>
      </trkpt>
      <trkpt lat="42.99419" lon="-0.69989">
        <ele>1130.8728466542</ele>
        <time>2014-02-02T14:30:08Z</time>
      </trkpt>
      <trkpt lat="42.99416" lon="-0.69971">
        <ele>1129.319065592</ele>
        <time>2014-02-02T14:30:13Z</time>
      </trkpt>
      <trkpt lat="42.99426" lon="-0.69969">
        <ele>1127.5383258755</ele>
        <time>2014-02-02T14:30:18Z</time>
      </trkpt>
      <trkpt lat="42.99429" lon="-0.69954">
        <ele>1125.4856294131</ele>
        <time>2014-02-02T14:30:23Z</time>
      </trkpt>
      <trkpt lat="42.99433" lon="-0.69956">
        <ele>1125.4856294131</ele>
        <time>2014-02-02T14:30:28Z</time>
      </trkpt>
      <trkpt lat="42.99434" lon="-0.69958">
        <ele>1125.4856294131</ele>
        <time>2014-02-02T14:30:33Z</time>
      </trkpt>
      <trkpt lat="42.99441" lon="-0.69966">
        <ele>1122.6157729766</ele>
        <time>2014-02-02T14:30:48Z</time>
      </trkpt>
      <trkpt lat="42.99443" lon="-0.69967">
        <ele>1122.6157729766</ele>
        <time>2014-02-02T14:30:53Z</time>
      </trkpt>
      <trkpt lat="42.99446" lon="-0.69969">
        <ele>1122.6157729766</ele>
        <time>2014-02-02T14:30:58Z</time>
      </trkpt>
      <trkpt lat="42.99446" lon="-0.69971">
        <ele>1122.6157729766</ele>
        <time>2014-02-02T14:31:03Z</time>
      </trkpt>
      <trkpt lat="42.99451" lon="-0.69972">
        <ele>1119.7950671028</ele>
        <time>2014-02-02T14:31:08Z</time>
      </trkpt>
      <trkpt lat="42.99456" lon="-0.69972">
        <ele>1119.7950671028</ele>
        <time>2014-02-02T14:31:13Z</time>
      </trkpt>
      <trkpt lat="42.9946" lon="-0.69973">
        <ele>1116.903845926</ele>
        <time>2014-02-02T14:31:18Z</time>
      </trkpt>
      <trkpt lat="42.99462" lon="-0.69974">
        <ele>1116.903845926</ele>
        <time>2014-02-02T14:31:23Z</time>
      </trkpt>
      <trkpt lat="42.99471" lon="-0.69974">
        <ele>1113.3703812756</ele>
        <time>2014-02-02T14:31:58Z</time>
      </trkpt>
      <trkpt lat="42.99471" lon="-0.69975">
        <ele>1113.3703812756</ele>
        <time>2014-02-02T14:32:04Z</time>
      </trkpt>
      <trkpt lat="42.99471" lon="-0.69975">
        <ele>1113.3703812756</ele>
        <time>2014-02-02T14:32:08Z</time>
      </trkpt>
      <trkpt lat="42.99477" lon="-0.69985">
        <ele>1110.0791319445</ele>
        <time>2014-02-02T14:32:23Z</time>
      </trkpt>
      <trkpt lat="42.9948" lon="-0.69987">
        <ele>1110.0791319445</ele>
        <time>2014-02-02T14:32:28Z</time>
      </trkpt>
      <trkpt lat="42.99484" lon="-0.69991">
        <ele>1110.0791319445</ele>
        <time>2014-02-02T14:32:33Z</time>
      </trkpt>
      <trkpt lat="42.99485" lon="-0.69993">
        <ele>1107.18608303</ele>
        <time>2014-02-02T14:32:38Z</time>
      </trkpt>
      <trkpt lat="42.99485" lon="-0.69993">
        <ele>1107.18608303</ele>
        <time>2014-02-02T14:32:43Z</time>
      </trkpt>
      <trkpt lat="42.9949" lon="-0.69994">
        <ele>1107.18608303</ele>
        <time>2014-02-02T14:32:58Z</time>
      </trkpt>
      <trkpt lat="42.99493" lon="-0.69997">
        <ele>1107.18608303</ele>
        <time>2014-02-02T14:33:03Z</time>
      </trkpt>
      <trkpt lat="42.99494" lon="-0.69998">
        <ele>1104.5753253016</ele>
        <time>2014-02-02T14:33:09Z</time>
      </trkpt>
      <trkpt lat="42.99494" lon="-0.69998">
        <ele>1104.5753253016</ele>
        <time>2014-02-02T14:33:13Z</time>
      </trkpt>
      <trkpt lat="42.99504" lon="-0.69999">
        <ele>1102.7007820631</ele>
        <time>2014-02-02T14:34:13Z</time>
      </trkpt>
      <trkpt lat="42.99496" lon="-0.69992">
        <ele>1101.3181298488</ele>
        <time>2014-02-02T14:34:43Z</time>
      </trkpt>
      <trkpt lat="42.99495" lon="-0.69992">
        <ele>1101.3181298488</ele>
        <time>2014-02-02T14:34:49Z</time>
      </trkpt>
      <trkpt lat="42.995" lon="-0.69979">
        <ele>1100.3149793042</ele>
        <time>2014-02-02T14:35:43Z</time>
      </trkpt>
      <trkpt lat="42.99498" lon="-0.69975">
        <ele>1100.3149793042</ele>
        <time>2014-02-02T14:35:49Z</time>
      </trkpt>
      <trkpt lat="42.99496" lon="-0.69968">
        <ele>1099.3700484278</ele>
        <time>2014-02-02T14:35:53Z</time>
      </trkpt>
      <trkpt lat="42.99497" lon="-0.69967">
        <ele>1099.3700484278</ele>
        <time>2014-02-02T14:35:59Z</time>
      </trkpt>
      <trkpt lat="42.99495" lon="-0.69958">
        <ele>1099.3700484278</ele>
        <time>2014-02-02T14:36:03Z</time>
      </trkpt>
      <trkpt lat="42.99491" lon="-0.69946">
        <ele>1098.3152832192</ele>
        <time>2014-02-02T14:36:09Z</time>
      </trkpt>
      <trkpt lat="42.99493" lon="-0.69943">
        <ele>1098.3152832192</ele>
        <time>2014-02-02T14:36:13Z</time>
      </trkpt>
      <trkpt lat="42.99494" lon="-0.69943">
        <ele>1098.3152832192</ele>
        <time>2014-02-02T14:36:19Z</time>
      </trkpt>
      <trkpt lat="42.99494" lon="-0.69941">
        <ele>1098.3152832192</ele>
        <time>2014-02-02T14:36:23Z</time>
      </trkpt>
      <trkpt lat="42.99494" lon="-0.69936">
        <ele>1096.7503911444</ele>
        <time>2014-02-02T14:36:29Z</time>
      </trkpt>
      <trkpt lat="42.99494" lon="-0.69922">
        <ele>1095.1706861205</ele>
        <time>2014-02-02T14:36:33Z</time>
      </trkpt>
      <trkpt lat="42.99494" lon="-0.6991">
        <ele>1095.1706861205</ele>
        <time>2014-02-02T14:36:38Z</time>
      </trkpt>
      <trkpt lat="42.99494" lon="-0.69903">
        <ele>1093.3579223854</ele>
        <time>2014-02-02T14:36:43Z</time>
      </trkpt>
      <trkpt lat="42.99495" lon="-0.69895">
        <ele>1093.3579223854</ele>
        <time>2014-02-02T14:36:49Z</time>
      </trkpt>
      <trkpt lat="42.995" lon="-0.69888">
        <ele>1091.3556370234</ele>
        <time>2014-02-02T14:36:53Z</time>
      </trkpt>
      <trkpt lat="42.99506" lon="-0.69884">
        <ele>1091.3556370234</ele>
        <time>2014-02-02T14:36:59Z</time>
      </trkpt>
      <trkpt lat="42.99509" lon="-0.6988">
        <ele>1088.6139506381</ele>
        <time>2014-02-02T14:37:03Z</time>
      </trkpt>
      <trkpt lat="42.99509" lon="-0.6988">
        <ele>1088.6139506381</ele>
        <time>2014-02-02T14:37:09Z</time>
      </trkpt>
      <trkpt lat="42.99507" lon="-0.69879">
        <ele>1088.6139506381</ele>
        <time>2014-02-02T14:37:19Z</time>
      </trkpt>
      <trkpt lat="42.99507" lon="-0.6988">
        <ele>1088.6139506381</ele>
        <time>2014-02-02T14:37:23Z</time>
      </trkpt>
      <trkpt lat="42.99505" lon="-0.69876">
        <ele>1088.6139506381</ele>
        <time>2014-02-02T14:37:28Z</time>
      </trkpt>
      <trkpt lat="42.99507" lon="-0.69875">
        <ele>1085.3028751804</ele>
        <time>2014-02-02T14:37:33Z</time>
      </trkpt>
      <trkpt lat="42.99508" lon="-0.69872">
        <ele>1085.3028751804</ele>
        <time>2014-02-02T14:37:39Z</time>
      </trkpt>
      <trkpt lat="42.99507" lon="-0.69863">
        <ele>1082.2157133227</ele>
        <time>2014-02-02T14:37:43Z</time>
      </trkpt>
      <trkpt lat="42.99506" lon="-0.69858">
        <ele>1082.2157133227</ele>
        <time>2014-02-02T14:37:48Z</time>
      </trkpt>
      <trkpt lat="42.99506" lon="-0.69851">
        <ele>1082.2157133227</ele>
        <time>2014-02-02T14:37:53Z</time>
      </trkpt>
      <trkpt lat="42.99504" lon="-0.69843">
        <ele>1079.2655140395</ele>
        <time>2014-02-02T14:37:59Z</time>
      </trkpt>
      <trkpt lat="42.99507" lon="-0.69843">
        <ele>1079.2655140395</ele>
        <time>2014-02-02T14:38:03Z</time>
      </trkpt>
      <trkpt lat="42.99508" lon="-0.69843">
        <ele>1079.2655140395</ele>
        <time>2014-02-02T14:38:09Z</time>
      </trkpt>
      <trkpt lat="42.99509" lon="-0.69848">
        <ele>1079.2655140395</ele>
        <time>2014-02-02T14:38:13Z</time>
      </trkpt>
      <trkpt lat="42.9951" lon="-0.69848">
        <ele>1076.227291147</ele>
        <time>2014-02-02T14:38:19Z</time>
      </trkpt>
      <trkpt lat="42.99504" lon="-0.69832">
        <ele>1073.2531732831</ele>
        <time>2014-02-02T14:38:33Z</time>
      </trkpt>
      <trkpt lat="42.99504" lon="-0.69818">
        <ele>1070.4119320773</ele>
        <time>2014-02-02T14:38:39Z</time>
      </trkpt>
      <trkpt lat="42.99504" lon="-0.69815">
        <ele>1070.4119320773</ele>
        <time>2014-02-02T14:38:43Z</time>
      </trkpt>
      <trkpt lat="42.99502" lon="-0.69803">
        <ele>1067.2193370297</ele>
        <time>2014-02-02T14:38:59Z</time>
      </trkpt>
      <trkpt lat="42.99502" lon="-0.69803">
        <ele>1067.2193370297</ele>
        <time>2014-02-02T14:39:03Z</time>
      </trkpt>
      <trkpt lat="42.99505" lon="-0.69799">
        <ele>1067.2193370297</ele>
        <time>2014-02-02T14:39:19Z</time>
      </trkpt>
      <trkpt lat="42.99504" lon="-0.69798">
        <ele>1067.2193370297</ele>
        <time>2014-02-02T14:39:23Z</time>
      </trkpt>
      <trkpt lat="42.99502" lon="-0.69795">
        <ele>1067.2193370297</ele>
        <time>2014-02-02T14:39:29Z</time>
      </trkpt>
      <trkpt lat="42.99502" lon="-0.69793">
        <ele>1064.4815191376</ele>
        <time>2014-02-02T14:39:33Z</time>
      </trkpt>
      <trkpt lat="42.99501" lon="-0.69793">
        <ele>1064.4815191376</ele>
        <time>2014-02-02T14:39:40Z</time>
      </trkpt>
      <trkpt lat="42.99494" lon="-0.69787">
        <ele>1062.1659466786</ele>
        <time>2014-02-02T14:40:03Z</time>
      </trkpt>
      <trkpt lat="42.99498" lon="-0.69786">
        <ele>1062.1659466786</ele>
        <time>2014-02-02T14:40:19Z</time>
      </trkpt>
      <trkpt lat="42.99497" lon="-0.69788">
        <ele>1062.1659466786</ele>
        <time>2014-02-02T14:40:29Z</time>
      </trkpt>
      <trkpt lat="42.99498" lon="-0.6979">
        <ele>1062.1659466786</ele>
        <time>2014-02-02T14:40:33Z</time>
      </trkpt>
      <trkpt lat="42.99505" lon="-0.69802">
        <ele>1060.5007208893</ele>
        <time>2014-02-02T14:41:08Z</time>
      </trkpt>
      <trkpt lat="42.99506" lon="-0.69803">
        <ele>1060.5007208893</ele>
        <time>2014-02-02T14:41:13Z</time>
      </trkpt>
      <trkpt lat="42.99502" lon="-0.69791">
        <ele>1059.4359896894</ele>
        <time>2014-02-02T14:41:33Z</time>
      </trkpt>
      <trkpt lat="42.99502" lon="-0.6979">
        <ele>1059.4359896894</ele>
        <time>2014-02-02T14:41:39Z</time>
      </trkpt>
      <trkpt lat="42.99512" lon="-0.69799">
        <ele>1058.7077430505</ele>
        <time>2014-02-02T14:42:03Z</time>
      </trkpt>
      <trkpt lat="42.99516" lon="-0.69801">
        <ele>1058.7077430505</ele>
        <time>2014-02-02T14:44:23Z</time>
      </trkpt>
      <trkpt lat="42.99529" lon="-0.69803">
        <ele>1058.2001597706</ele>
        <time>2014-02-02T14:44:28Z</time>
      </trkpt>
      <trkpt lat="42.99535" lon="-0.69814">
        <ele>1057.8053564852</ele>
        <time>2014-02-02T14:44:33Z</time>
      </trkpt>
      <trkpt lat="42.99539" lon="-0.69824">
        <ele>1057.8053564852</ele>
        <time>2014-02-02T14:44:38Z</time>
      </trkpt>
      <trkpt lat="42.99542" lon="-0.69827">
        <ele>1057.480762986</ele>
        <time>2014-02-02T14:44:43Z</time>
      </trkpt>
      <trkpt lat="42.99545" lon="-0.69835">
        <ele>1057.480762986</ele>
        <time>2014-02-02T14:44:48Z</time>
      </trkpt>
      <trkpt lat="42.99548" lon="-0.69838">
        <ele>1057.201221999</ele>
        <time>2014-02-02T14:44:53Z</time>
      </trkpt>
      <trkpt lat="42.9956" lon="-0.69848">
        <ele>1056.9866141637</ele>
        <time>2014-02-02T14:44:58Z</time>
      </trkpt>
      <trkpt lat="42.99564" lon="-0.6986">
        <ele>1056.7832155645</ele>
        <time>2014-02-02T14:45:03Z</time>
      </trkpt>
      <trkpt lat="42.99561" lon="-0.69868">
        <ele>1056.7832155645</ele>
        <time>2014-02-02T14:45:08Z</time>
      </trkpt>
      <trkpt lat="42.99562" lon="-0.69876">
        <ele>1056.7863102446</ele>
        <time>2014-02-02T14:45:18Z</time>
      </trkpt>
      <trkpt lat="42.99562" lon="-0.69877">
        <ele>1056.7863102446</ele>
        <time>2014-02-02T14:45:24Z</time>
      </trkpt>
      <trkpt lat="42.99566" lon="-0.69875">
        <ele>1056.7863102446</ele>
        <time>2014-02-02T14:45:54Z</time>
      </trkpt>
      <trkpt lat="42.99568" lon="-0.69872">
        <ele>1056.7863102446</ele>
        <time>2014-02-02T14:45:58Z</time>
      </trkpt>
      <trkpt lat="42.99575" lon="-0.69861">
        <ele>1055.4614459053</ele>
        <time>2014-02-02T14:46:24Z</time>
      </trkpt>
      <trkpt lat="42.99578" lon="-0.69859">
        <ele>1055.4614459053</ele>
        <time>2014-02-02T14:46:28Z</time>
      </trkpt>
      <trkpt lat="42.9958" lon="-0.69858">
        <ele>1055.4614459053</ele>
        <time>2014-02-02T14:46:34Z</time>
      </trkpt>
      <trkpt lat="42.99583" lon="-0.69858">
        <ele>1055.4614459053</ele>
        <time>2014-02-02T14:46:38Z</time>
      </trkpt>
      <trkpt lat="42.99584" lon="-0.69859">
        <ele>1054.1288441703</ele>
        <time>2014-02-02T14:46:43Z</time>
      </trkpt>
      <trkpt lat="42.99589" lon="-0.69865">
        <ele>1054.1288441703</ele>
        <time>2014-02-02T14:46:58Z</time>
      </trkpt>
      <trkpt lat="42.99584" lon="-0.69879">
        <ele>1052.5851833748</ele>
        <time>2014-02-02T14:47:18Z</time>
      </trkpt>
      <trkpt lat="42.99585" lon="-0.69882">
        <ele>1052.5851833748</ele>
        <time>2014-02-02T14:47:23Z</time>
      </trkpt>
      <trkpt lat="42.99586" lon="-0.69886">
        <ele>1052.5851833748</ele>
        <time>2014-02-02T14:47:28Z</time>
      </trkpt>
      <trkpt lat="42.99588" lon="-0.69885">
        <ele>1052.5851833748</ele>
        <time>2014-02-02T14:47:33Z</time>
      </trkpt>
      <trkpt lat="42.99585" lon="-0.69897">
        <ele>1050.9021865642</ele>
        <time>2014-02-02T14:48:03Z</time>
      </trkpt>
      <trkpt lat="42.99585" lon="-0.69898">
        <ele>1050.9021865642</ele>
        <time>2014-02-02T14:48:08Z</time>
      </trkpt>
      <trkpt lat="42.99594" lon="-0.6991">
        <ele>1049.2188668591</ele>
        <time>2014-02-02T14:48:28Z</time>
      </trkpt>
      <trkpt lat="42.99597" lon="-0.69913">
        <ele>1049.2188668591</ele>
        <time>2014-02-02T14:48:33Z</time>
      </trkpt>
      <trkpt lat="42.99604" lon="-0.69911">
        <ele>1047.6641340112</ele>
        <time>2014-02-02T14:48:38Z</time>
      </trkpt>
      <trkpt lat="42.99609" lon="-0.69912">
        <ele>1047.6641340112</ele>
        <time>2014-02-02T14:48:43Z</time>
      </trkpt>
      <trkpt lat="42.99613" lon="-0.69914">
        <ele>1045.6942577216</ele>
        <time>2014-02-02T14:48:48Z</time>
      </trkpt>
      <trkpt lat="42.99614" lon="-0.69914">
        <ele>1045.6942577216</ele>
        <time>2014-02-02T14:48:53Z</time>
      </trkpt>
      <trkpt lat="42.99615" lon="-0.69918">
        <ele>1045.6942577216</ele>
        <time>2014-02-02T14:48:58Z</time>
      </trkpt>
      <trkpt lat="42.99616" lon="-0.69922">
        <ele>1045.6942577216</ele>
        <time>2014-02-02T14:49:03Z</time>
      </trkpt>
      <trkpt lat="42.9962" lon="-0.69926">
        <ele>1043.801077041</ele>
        <time>2014-02-02T14:49:08Z</time>
      </trkpt>
      <trkpt lat="42.99626" lon="-0.69932">
        <ele>1043.801077041</ele>
        <time>2014-02-02T14:49:13Z</time>
      </trkpt>
      <trkpt lat="42.99631" lon="-0.69939">
        <ele>1042.0510749483</ele>
        <time>2014-02-02T14:49:18Z</time>
      </trkpt>
      <trkpt lat="42.99638" lon="-0.69943">
        <ele>1042.0510749483</ele>
        <time>2014-02-02T14:49:23Z</time>
      </trkpt>
      <trkpt lat="42.99643" lon="-0.69948">
        <ele>1040.4767102168</ele>
        <time>2014-02-02T14:49:28Z</time>
      </trkpt>
      <trkpt lat="42.99649" lon="-0.6995">
        <ele>1040.4767102168</ele>
        <time>2014-02-02T14:49:33Z</time>
      </trkpt>
      <trkpt lat="42.99655" lon="-0.69953">
        <ele>1039.093231572</ele>
        <time>2014-02-02T14:49:38Z</time>
      </trkpt>
      <trkpt lat="42.9966" lon="-0.69958">
        <ele>1039.093231572</ele>
        <time>2014-02-02T14:49:43Z</time>
      </trkpt>
      <trkpt lat="42.99665" lon="-0.6996">
        <ele>1037.8998953597</ele>
        <time>2014-02-02T14:49:48Z</time>
      </trkpt>
      <trkpt lat="42.99673" lon="-0.69966">
        <ele>1036.8811401879</ele>
        <time>2014-02-02T14:49:53Z</time>
      </trkpt>
      <trkpt lat="42.99679" lon="-0.69974">
        <ele>1036.8811401879</ele>
        <time>2014-02-02T14:49:58Z</time>
      </trkpt>
      <trkpt lat="42.99685" lon="-0.69988">
        <ele>1035.8347845971</ele>
        <time>2014-02-02T14:50:03Z</time>
      </trkpt>
      <trkpt lat="42.99691" lon="-0.69994">
        <ele>1035.8347845971</ele>
        <time>2014-02-02T14:50:08Z</time>
      </trkpt>
      <trkpt lat="42.99697" lon="-0.69999">
        <ele>1034.9051033837</ele>
        <time>2014-02-02T14:50:14Z</time>
      </trkpt>
      <trkpt lat="42.99715" lon="-0.70008">
        <ele>1034.1246395939</ele>
        <time>2014-02-02T14:50:18Z</time>
      </trkpt>
      <trkpt lat="42.99725" lon="-0.70024">
        <ele>1033.45114445</ele>
        <time>2014-02-02T14:50:23Z</time>
      </trkpt>
      <trkpt lat="42.99727" lon="-0.70031">
        <ele>1033.45114445</ele>
        <time>2014-02-02T14:50:28Z</time>
      </trkpt>
      <trkpt lat="42.99728" lon="-0.7004">
        <ele>1032.8164250195</ele>
        <time>2014-02-02T14:50:34Z</time>
      </trkpt>
      <trkpt lat="42.99729" lon="-0.70055">
        <ele>1032.2581435549</ele>
        <time>2014-02-02T14:50:38Z</time>
      </trkpt>
      <trkpt lat="42.99728" lon="-0.70068">
        <ele>1031.7822382214</ele>
        <time>2014-02-02T14:50:44Z</time>
      </trkpt>
      <trkpt lat="42.99723" lon="-0.70081">
        <ele>1031.3940618097</ele>
        <time>2014-02-02T14:50:48Z</time>
      </trkpt>
      <trkpt lat="42.9972" lon="-0.70095">
        <ele>1031.0695903413</ele>
        <time>2014-02-02T14:50:53Z</time>
      </trkpt>
      <trkpt lat="42.9972" lon="-0.70106">
        <ele>1031.0695903413</ele>
        <time>2014-02-02T14:50:58Z</time>
      </trkpt>
      <trkpt lat="42.99718" lon="-0.70119">
        <ele>1030.8008848232</ele>
        <time>2014-02-02T14:51:04Z</time>
      </trkpt>
      <trkpt lat="42.99719" lon="-0.70129">
        <ele>1030.8008848232</ele>
        <time>2014-02-02T14:51:08Z</time>
      </trkpt>
      <trkpt lat="42.99722" lon="-0.70136">
        <ele>1030.6237573256</ele>
        <time>2014-02-02T14:51:13Z</time>
      </trkpt>
      <trkpt lat="42.99728" lon="-0.70141">
        <ele>1030.6237573256</ele>
        <time>2014-02-02T14:51:18Z</time>
      </trkpt>
      <trkpt lat="42.99744" lon="-0.70148">
        <ele>1030.4991708837</ele>
        <time>2014-02-02T14:51:24Z</time>
      </trkpt>
      <trkpt lat="42.99751" lon="-0.70152">
        <ele>1030.4991708837</ele>
        <time>2014-02-02T14:51:28Z</time>
      </trkpt>
      <trkpt lat="42.99748" lon="-0.70155">
        <ele>1029.5694710584</ele>
        <time>2014-02-02T14:51:34Z</time>
      </trkpt>
      <trkpt lat="42.99745" lon="-0.70149">
        <ele>1029.5694710584</ele>
        <time>2014-02-02T14:51:38Z</time>
      </trkpt>
      <trkpt lat="42.99747" lon="-0.70139">
        <ele>1024.6212867474</ele>
        <time>2014-02-02T14:51:44Z</time>
      </trkpt>
      <trkpt lat="42.99748" lon="-0.70127">
        <ele>1024.6212867474</ele>
        <time>2014-02-02T14:51:48Z</time>
      </trkpt>
      <trkpt lat="42.99749" lon="-0.70116">
        <ele>1018.4530933599</ele>
        <time>2014-02-02T14:51:54Z</time>
      </trkpt>
      <trkpt lat="42.99751" lon="-0.70108">
        <ele>1018.4530933599</ele>
        <time>2014-02-02T14:51:58Z</time>
      </trkpt>
      <trkpt lat="42.99751" lon="-0.70101">
        <ele>1011.7157615493</ele>
        <time>2014-02-02T14:52:04Z</time>
      </trkpt>
      <trkpt lat="42.99753" lon="-0.70092">
        <ele>1011.7157615493</ele>
        <time>2014-02-02T14:52:08Z</time>
      </trkpt>
      <trkpt lat="42.99756" lon="-0.70086">
        <ele>1004.4086888766</ele>
        <time>2014-02-02T14:52:14Z</time>
      </trkpt>
      <trkpt lat="42.99765" lon="-0.70088">
        <ele>997.08050259122</ele>
        <time>2014-02-02T14:52:18Z</time>
      </trkpt>
      <trkpt lat="42.99768" lon="-0.70084">
        <ele>997.08050259122</ele>
        <time>2014-02-02T14:52:24Z</time>
      </trkpt>
      <trkpt lat="42.99774" lon="-0.7008">
        <ele>989.3604277294</ele>
        <time>2014-02-02T14:52:28Z</time>
      </trkpt>
      <trkpt lat="42.99779" lon="-0.70072">
        <ele>989.3604277294</ele>
        <time>2014-02-02T14:52:34Z</time>
      </trkpt>
      <trkpt lat="42.99784" lon="-0.70064">
        <ele>981.2517653228</ele>
        <time>2014-02-02T14:52:38Z</time>
      </trkpt>
      <trkpt lat="42.99785" lon="-0.70048">
        <ele>973.33493806683</ele>
        <time>2014-02-02T14:52:44Z</time>
      </trkpt>
      <trkpt lat="42.99786" lon="-0.70038">
        <ele>973.33493806683</ele>
        <time>2014-02-02T14:52:48Z</time>
      </trkpt>
      <trkpt lat="42.99788" lon="-0.70027">
        <ele>965.18143610128</ele>
        <time>2014-02-02T14:52:54Z</time>
      </trkpt>
      <trkpt lat="42.9979" lon="-0.70019">
        <ele>965.18143610128</ele>
        <time>2014-02-02T14:52:58Z</time>
      </trkpt>
      <trkpt lat="42.99789" lon="-0.70009">
        <ele>956.99990747671</ele>
        <time>2014-02-02T14:53:04Z</time>
      </trkpt>
      <trkpt lat="42.99788" lon="-0.70002">
        <ele>956.99990747671</ele>
        <time>2014-02-02T14:53:08Z</time>
      </trkpt>
      <trkpt lat="42.99791" lon="-0.69991">
        <ele>948.72406454756</ele>
        <time>2014-02-02T14:53:14Z</time>
      </trkpt>
      <trkpt lat="42.99793" lon="-0.69985">
        <ele>948.72406454756</ele>
        <time>2014-02-02T14:53:18Z</time>
      </trkpt>
      <trkpt lat="42.99797" lon="-0.69979">
        <ele>940.37890040113</ele>
        <time>2014-02-02T14:53:24Z</time>
      </trkpt>
      <trkpt lat="42.99796" lon="-0.69971">
        <ele>940.37890040113</ele>
        <time>2014-02-02T14:53:28Z</time>
      </trkpt>
      <trkpt lat="42.99798" lon="-0.69965">
        <ele>932.30446152698</ele>
        <time>2014-02-02T14:53:34Z</time>
      </trkpt>
      <trkpt lat="42.99798" lon="-0.69958">
        <ele>932.30446152698</ele>
        <time>2014-02-02T14:53:38Z</time>
      </trkpt>
      <trkpt lat="42.998" lon="-0.69948">
        <ele>924.56969094857</ele>
        <time>2014-02-02T14:53:44Z</time>
      </trkpt>
      <trkpt lat="42.99801" lon="-0.6994">
        <ele>924.56969094857</ele>
        <time>2014-02-02T14:53:48Z</time>
      </trkpt>
      <trkpt lat="42.99799" lon="-0.69934">
        <ele>916.99212828767</ele>
        <time>2014-02-02T14:53:54Z</time>
      </trkpt>
      <trkpt lat="42.99799" lon="-0.69932">
        <ele>916.99212828767</ele>
        <time>2014-02-02T14:53:58Z</time>
      </trkpt>
      <trkpt lat="42.99796" lon="-0.69925">
        <ele>916.99212828767</ele>
        <time>2014-02-02T14:54:04Z</time>
      </trkpt>
      <trkpt lat="42.99795" lon="-0.69922">
        <ele>909.7044950775</ele>
        <time>2014-02-02T14:54:08Z</time>
      </trkpt>
      <trkpt lat="42.99793" lon="-0.69915">
        <ele>909.7044950775</ele>
        <time>2014-02-02T14:54:14Z</time>
      </trkpt>
      <trkpt lat="42.9978" lon="-0.69901">
        <ele>903.10233569939</ele>
        <time>2014-02-02T14:54:18Z</time>
      </trkpt>
      <trkpt lat="42.9977" lon="-0.69875">
        <ele>897.20391718063</ele>
        <time>2014-02-02T14:54:24Z</time>
      </trkpt>
      <trkpt lat="42.99763" lon="-0.69852">
        <ele>891.77877029581</ele>
        <time>2014-02-02T14:54:28Z</time>
      </trkpt>
      <trkpt lat="42.99762" lon="-0.69846">
        <ele>891.77877029581</ele>
        <time>2014-02-02T14:54:34Z</time>
      </trkpt>
      <trkpt lat="42.99759" lon="-0.69839">
        <ele>886.58278037585</ele>
        <time>2014-02-02T14:54:38Z</time>
      </trkpt>
      <trkpt lat="42.99757" lon="-0.69831">
        <ele>886.58278037585</ele>
        <time>2014-02-02T14:54:44Z</time>
      </trkpt>
      <trkpt lat="42.99754" lon="-0.69823">
        <ele>882.10926381956</ele>
        <time>2014-02-02T14:54:48Z</time>
      </trkpt>
      <trkpt lat="42.99751" lon="-0.69816">
        <ele>882.10926381956</ele>
        <time>2014-02-02T14:54:54Z</time>
      </trkpt>
      <trkpt lat="42.9975" lon="-0.69809">
        <ele>878.23642847103</ele>
        <time>2014-02-02T14:54:58Z</time>
      </trkpt>
      <trkpt lat="42.99751" lon="-0.69806">
        <ele>878.23642847103</ele>
        <time>2014-02-02T14:55:04Z</time>
      </trkpt>
      <trkpt lat="42.9975" lon="-0.69801">
        <ele>878.23642847103</ele>
        <time>2014-02-02T14:55:08Z</time>
      </trkpt>
      <trkpt lat="42.99748" lon="-0.69794">
        <ele>874.64760972439</ele>
        <time>2014-02-02T14:55:13Z</time>
      </trkpt>
      <trkpt lat="42.99747" lon="-0.69787">
        <ele>874.64760972439</ele>
        <time>2014-02-02T14:55:18Z</time>
      </trkpt>
      <trkpt lat="42.99744" lon="-0.69774">
        <ele>871.42294226887</ele>
        <time>2014-02-02T14:55:23Z</time>
      </trkpt>
      <trkpt lat="42.99739" lon="-0.69762">
        <ele>868.67855785417</ele>
        <time>2014-02-02T14:55:28Z</time>
      </trkpt>
      <trkpt lat="42.99735" lon="-0.69737">
        <ele>866.3618889049</ele>
        <time>2014-02-02T14:55:33Z</time>
      </trkpt>
      <trkpt lat="42.99733" lon="-0.6973">
        <ele>866.3618889049</ele>
        <time>2014-02-02T14:55:38Z</time>
      </trkpt>
      <trkpt lat="42.99731" lon="-0.69723">
        <ele>864.45158445784</ele>
        <time>2014-02-02T14:55:44Z</time>
      </trkpt>
      <trkpt lat="42.99743" lon="-0.69725">
        <ele>863.37323342502</ele>
        <time>2014-02-02T14:56:54Z</time>
      </trkpt>
      <trkpt lat="42.99738" lon="-0.69719">
        <ele>863.37323342502</ele>
        <time>2014-02-02T14:57:14Z</time>
      </trkpt>
      <trkpt lat="42.99738" lon="-0.69717">
        <ele>863.37323342502</ele>
        <time>2014-02-02T14:57:18Z</time>
      </trkpt>
      <trkpt lat="42.99732" lon="-0.69712">
        <ele>862.78366373323</ele>
        <time>2014-02-02T14:57:24Z</time>
      </trkpt>
      <trkpt lat="42.9973" lon="-0.69706">
        <ele>862.78366373323</ele>
        <time>2014-02-02T14:57:28Z</time>
      </trkpt>
      <trkpt lat="42.99728" lon="-0.697">
        <ele>862.53631681141</ele>
        <time>2014-02-02T14:57:34Z</time>
      </trkpt>
      <trkpt lat="42.99727" lon="-0.69696">
        <ele>862.53631681141</ele>
        <time>2014-02-02T14:57:38Z</time>
      </trkpt>
      <trkpt lat="42.99727" lon="-0.69692">
        <ele>862.53631681141</ele>
        <time>2014-02-02T14:57:43Z</time>
      </trkpt>
      <trkpt lat="42.99725" lon="-0.69687">
        <ele>862.66725618688</ele>
        <time>2014-02-02T14:57:48Z</time>
      </trkpt>
      <trkpt lat="42.99722" lon="-0.69681">
        <ele>862.66725618688</ele>
        <time>2014-02-02T14:57:54Z</time>
      </trkpt>
      <trkpt lat="42.99721" lon="-0.69675">
        <ele>863.10788147279</ele>
        <time>2014-02-02T14:57:58Z</time>
      </trkpt>
      <trkpt lat="42.99718" lon="-0.69668">
        <ele>863.10788147279</ele>
        <time>2014-02-02T14:58:04Z</time>
      </trkpt>
      <trkpt lat="42.99716" lon="-0.69662">
        <ele>863.8081400215</ele>
        <time>2014-02-02T14:58:08Z</time>
      </trkpt>
      <trkpt lat="42.99716" lon="-0.69655">
        <ele>863.8081400215</ele>
        <time>2014-02-02T14:58:14Z</time>
      </trkpt>
      <trkpt lat="42.99718" lon="-0.69651">
        <ele>863.8081400215</ele>
        <time>2014-02-02T14:58:18Z</time>
      </trkpt>
      <trkpt lat="42.99714" lon="-0.69644">
        <ele>864.79299064422</ele>
        <time>2014-02-02T14:58:24Z</time>
      </trkpt>
      <trkpt lat="42.99711" lon="-0.69638">
        <ele>864.79299064422</ele>
        <time>2014-02-02T14:58:28Z</time>
      </trkpt>
      <trkpt lat="42.9971" lon="-0.69632">
        <ele>865.9983416151</ele>
        <time>2014-02-02T14:58:33Z</time>
      </trkpt>
      <trkpt lat="42.99708" lon="-0.69628">
        <ele>865.9983416151</ele>
        <time>2014-02-02T14:58:38Z</time>
      </trkpt>
      <trkpt lat="42.99708" lon="-0.69623">
        <ele>865.9983416151</ele>
        <time>2014-02-02T14:58:44Z</time>
      </trkpt>
      <trkpt lat="42.99707" lon="-0.69618">
        <ele>867.34986708511</ele>
        <time>2014-02-02T14:58:48Z</time>
      </trkpt>
      <trkpt lat="42.99708" lon="-0.69612">
        <ele>867.34986708511</ele>
        <time>2014-02-02T14:58:54Z</time>
      </trkpt>
      <trkpt lat="42.99709" lon="-0.69608">
        <ele>867.34986708511</ele>
        <time>2014-02-02T14:58:58Z</time>
      </trkpt>
      <trkpt lat="42.9971" lon="-0.69602">
        <ele>868.83606093047</ele>
        <time>2014-02-02T14:59:03Z</time>
      </trkpt>
      <trkpt lat="42.99711" lon="-0.69598">
        <ele>868.83606093047</ele>
        <time>2014-02-02T14:59:08Z</time>
      </trkpt>
      <trkpt lat="42.99711" lon="-0.69591">
        <ele>868.83606093047</ele>
        <time>2014-02-02T14:59:14Z</time>
      </trkpt>
      <trkpt lat="42.99711" lon="-0.69586">
        <ele>870.41722379535</ele>
        <time>2014-02-02T14:59:18Z</time>
      </trkpt>
      <trkpt lat="42.99711" lon="-0.69578">
        <ele>870.41722379535</ele>
        <time>2014-02-02T14:59:24Z</time>
      </trkpt>
      <trkpt lat="42.99709" lon="-0.69572">
        <ele>872.12855747499</ele>
        <time>2014-02-02T14:59:28Z</time>
      </trkpt>
      <trkpt lat="42.99707" lon="-0.69562">
        <ele>872.12855747499</ele>
        <time>2014-02-02T14:59:34Z</time>
      </trkpt>
      <trkpt lat="42.99706" lon="-0.69557">
        <ele>873.88725131685</ele>
        <time>2014-02-02T14:59:38Z</time>
      </trkpt>
      <trkpt lat="42.99706" lon="-0.69551">
        <ele>873.88725131685</ele>
        <time>2014-02-02T14:59:44Z</time>
      </trkpt>
      <trkpt lat="42.99704" lon="-0.69545">
        <ele>875.73199111898</ele>
        <time>2014-02-02T14:59:48Z</time>
      </trkpt>
      <trkpt lat="42.99703" lon="-0.69539">
        <ele>875.73199111898</ele>
        <time>2014-02-02T14:59:54Z</time>
      </trkpt>
      <trkpt lat="42.99701" lon="-0.69532">
        <ele>877.68425284878</ele>
        <time>2014-02-02T14:59:58Z</time>
      </trkpt>
      <trkpt lat="42.99699" lon="-0.69523">
        <ele>877.68425284878</ele>
        <time>2014-02-02T15:00:04Z</time>
      </trkpt>
      <trkpt lat="42.99701" lon="-0.69517">
        <ele>879.67747610618</ele>
        <time>2014-02-02T15:00:08Z</time>
      </trkpt>
      <trkpt lat="42.99706" lon="-0.6951">
        <ele>879.67747610618</ele>
        <time>2014-02-02T15:00:14Z</time>
      </trkpt>
      <trkpt lat="42.99708" lon="-0.69506">
        <ele>881.62138505809</ele>
        <time>2014-02-02T15:00:18Z</time>
      </trkpt>
      <trkpt lat="42.99708" lon="-0.69498">
        <ele>881.62138505809</ele>
        <time>2014-02-02T15:00:24Z</time>
      </trkpt>
      <trkpt lat="42.99707" lon="-0.69491">
        <ele>883.50488178569</ele>
        <time>2014-02-02T15:00:28Z</time>
      </trkpt>
      <trkpt lat="42.99708" lon="-0.69485">
        <ele>883.50488178569</ele>
        <time>2014-02-02T15:00:34Z</time>
      </trkpt>
      <trkpt lat="42.9971" lon="-0.69481">
        <ele>883.50488178569</ele>
        <time>2014-02-02T15:00:38Z</time>
      </trkpt>
      <trkpt lat="42.99712" lon="-0.69474">
        <ele>885.2605783826</ele>
        <time>2014-02-02T15:00:44Z</time>
      </trkpt>
      <trkpt lat="42.99714" lon="-0.6947">
        <ele>885.2605783826</ele>
        <time>2014-02-02T15:00:48Z</time>
      </trkpt>
      <trkpt lat="42.99715" lon="-0.69466">
        <ele>885.2605783826</ele>
        <time>2014-02-02T15:00:53Z</time>
      </trkpt>
      <trkpt lat="42.99716" lon="-0.69459">
        <ele>886.84119090157</ele>
        <time>2014-02-02T15:00:58Z</time>
      </trkpt>
      <trkpt lat="42.99721" lon="-0.69454">
        <ele>886.84119090157</ele>
        <time>2014-02-02T15:01:03Z</time>
      </trkpt>
      <trkpt lat="42.99721" lon="-0.69454">
        <ele>886.84119090157</ele>
        <time>2014-02-02T15:01:09Z</time>
      </trkpt>
      <trkpt lat="42.99728" lon="-0.69446">
        <ele>888.31908416685</ele>
        <time>2014-02-02T15:01:18Z</time>
      </trkpt>
      <trkpt lat="42.99729" lon="-0.69446">
        <ele>888.31908416685</ele>
        <time>2014-02-02T15:01:23Z</time>
      </trkpt>
      <trkpt lat="42.99734" lon="-0.69443">
        <ele>888.31908416685</ele>
        <time>2014-02-02T15:01:28Z</time>
      </trkpt>
      <trkpt lat="42.99736" lon="-0.69442">
        <ele>888.31908416685</ele>
        <time>2014-02-02T15:01:33Z</time>
      </trkpt>
      <trkpt lat="42.99735" lon="-0.69429">
        <ele>889.86287673141</ele>
        <time>2014-02-02T15:02:19Z</time>
      </trkpt>
      <trkpt lat="42.99734" lon="-0.69433">
        <ele>889.86287673141</ele>
        <time>2014-02-02T15:02:23Z</time>
      </trkpt>
      <trkpt lat="42.99729" lon="-0.69442">
        <ele>891.19669132748</ele>
        <time>2014-02-02T15:02:33Z</time>
      </trkpt>
      <trkpt lat="42.9973" lon="-0.69439">
        <ele>891.19669132748</ele>
        <time>2014-02-02T15:02:39Z</time>
      </trkpt>
      <trkpt lat="42.99731" lon="-0.69441">
        <ele>891.19669132748</ele>
        <time>2014-02-02T15:03:09Z</time>
      </trkpt>
      <trkpt lat="42.99733" lon="-0.69445">
        <ele>891.19669132748</ele>
        <time>2014-02-02T15:03:13Z</time>
      </trkpt>
      <trkpt lat="42.99733" lon="-0.69446">
        <ele>891.19669132748</ele>
        <time>2014-02-02T15:03:19Z</time>
      </trkpt>
    </trkseg>
  </trk>
</gpx>